[[{"header":{"parameterUnit":"m.s-1","parameterCategory":1,"la1":30.6,"la2":28.766,"lo1":-90.7593,"lo2":-88.6598,"dy":0.0162,"dx":0.0183,"nx":116,"ny":114,"refTime":"2023-09-29T00:00:00:Z","depth":0,"parameterNumber":2,"parameterNumberName":"U-component_of_WINDS"},"data":[0.0,0.0,0.0,0.0,0.0,0.0,0.0,0.0,0.0,0.0,0.0,0.0,0.0,0.0,0.0,0.0,0.0,0.0,0.0,0.0,0.0,0.0,0.0,0.0,0.0,0.0,0.0,0.0,0.0,0.0,0.0,0.0,0.0,0.0,0.0,0.0,0.0,0.0,0.0,0.0,0.0,0.0,0.0,0.0,0.0,0.0,0.0,0.0,0.0,0.0,0.0,0.0,0.0,0.0,0.0,0.0,0.0,0.0,0.0,0.0,0.0,0.0,0.0,0.0,0.0,0.0,0.0,0.0,0.0,0.0,0.0,0.0,0.0,0.0,0.0,0.0,0.0,0.0,0.0,0.0,0.0,0.0,0.0,0.0,0.0,0.0,0.0,0.0,0.0,0.0,0.0,0.0,0.0,0.0,0.0,0.0,0.0,0.0,0.0,0.0,0.0,0.0,0.0,0.0,0.0,0.0,0.0,0.0,0.0,0.0,0.0,0.0,0.0,0.0,0.0,0.0,0.0,0.0,0.0,0.0,0.0,0.0,0.0,0.0,0.0,0.0,0.0,0.0,0.0,0.0,0.0,0.0,0.0,0.0,0.0,0.0,0.0,0.0,0.0,0.0,0.0,0.0,0.0,0.0,0.0,0.0,0.0,0.0,0.0,0.0,0.0,0.0,0.0,0.0,0.0,0.0,0.0,0.0,0.0,0.0,0.0,0.0,0.0,0.0,0.0,0.0,0.0,0.0,0.0,0.0,0.0,0.0,0.0,0.0,0.0,0.0,0.0,0.0,0.0,0.0,0.0,0.0,0.0,0.0,0.0,0.0,0.0,0.0,0.0,0.0,0.0,0.0,0.0,0.0,0.0,0.0,0.0,0.0,0.0,0.0,0.0,0.0,0.0,0.0,0.0,0.0,0.0,0.0,0.0,0.0,0.0,0.0,0.0,0.0,0.0,0.0,0.0,0.0,0.0,0.0,0.0,0.0,0.0,0.0,0.0,0.0,0.0,0.0,0.0,0.0,0.0,0.0,0.0,0.0,0.0,0.0,0.0,0.0,0.0,0.0,0.0,0.0,0.0,0.0,0.0,0.0,0.0,0.0,0.0,0.0,0.0,0.0,0.0,0.0,0.0,0.0,0.0,0.0,0.0,0.0,0.0,0.0,0.0,0.0,0.0,0.0,0.0,0.0,0.0,0.0,0.0,0.0,0.0,0.0,0.0,0.0,0.0,0.0,0.0,0.0,0.0,0.0,0.0,0.0,0.0,0.0,0.0,0.0,0.0,0.0,0.0,0.0,0.0,0.0,0.0,0.0,0.0,0.0,0.0,0.0,0.0,0.0,0.0,0.0,0.0,0.0,0.0,0.0,0.0,0.0,0.0,0.0,0.0,0.0,0.0,0.0,0.0,0.0,0.0,0.0,0.0,0.0,0.0,0.0,0.0,0.0,0.0,0.0,0.0,0.0,0.0,0.0,0.0,0.0,0.0,0.0,0.0,0.0,0.0,0.0,0.0,0.0,0.0,0.0,0.0,0.0,0.0,0.0,0.0,0.0,0.0,0.0,0.0,0.0,0.0,0.0,0.0,0.0,0.0,0.0,0.0,0.0,0.0,0.0,0.0,0.0,0.0,0.0,0.0,0.0,0.0,0.0,0.0,0.0,0.0,0.0,0.0,0.0,0.0,0.0,0.0,0.0,0.0,0.0,0.0,0.0,0.0,0.0,0.0,0.0,0.0,0.0,0.0,0.0,0.0,0.0,0.0,0.0,0.0,0.0,0.0,0.0,0.0,0.0,0.0,0.0,0.0,0.0,0.0,0.0,0.0,0.0,0.0,0.0,0.0,0.0,0.0,0.0,0.0,0.0,0.0,0.0,0.0,0.0,0.0,0.0,0.0,0.0,0.0,0.0,0.0,0.0,0.0,0.0,0.0,0.0,0.0,0.0,0.0,0.0,0.0,0.0,0.0,0.0,0.0,0.0,0.0,0.0,0.0,0.0,0.0,0.0,0.0,0.0,0.0,0.0,0.0,0.0,0.0,0.0,0.0,0.0,0.0,0.0,0.0,0.0,0.0,0.0,0.0,0.0,0.0,0.0,0.0,0.0,0.0,0.0,0.0,0.0,0.0,0.0,0.0,0.0,0.0,0.0,0.0,0.0,0.0,0.0,0.0,0.0,0.0,0.0,0.0,0.0,0.0,0.0,0.0,0.0,0.0,0.0,0.0,0.0,0.0,0.0,0.0,0.0,0.0,0.0,0.0,0.0,0.0,0.0,0.0,0.0,0.0,0.0,0.0,0.0,0.0,0.0,0.0,0.0,0.0,0.0,0.0,0.0,0.0,0.0,0.0,0.0,0.0,0.0,0.0,0.0,0.0,0.0,0.0,0.0,0.0,0.0,0.0,0.0,0.0,0.0,0.0,0.0,0.0,0.0,0.0,0.0,0.0,0.0,0.0,0.0,0.0,0.0,0.0,0.0,0.0,0.0,0.0,0.0,0.0,0.0,0.0,0.0,0.0,0.0,0.0,0.0,0.0,0.0,0.0,0.0,0.0,0.0,0.0,0.0,0.0,0.0,0.0,0.0,0.0,0.0,0.0,0.0,0.0,0.0,0.0,0.0,0.0,0.0,0.0,0.0,0.0,0.0,0.0,0.0,0.0,0.0,0.0,0.0,0.0,0.0,0.0,0.0,0.0,0.0,0.0,0.0,0.0,0.0,0.0,0.0,0.0,0.0,0.0,0.0,0.0,0.0,0.0,0.0,0.0,0.0,0.0,0.0,0.0,0.0,0.0,0.0,0.0,0.0,0.0,0.0,0.0,0.0,0.0,0.0,0.0,0.0,0.0,0.0,0.0,0.0,0.0,0.0,0.0,0.0,0.0,0.0,0.0,0.0,0.0,0.0,0.0,0.0,0.0,0.0,0.0,0.0,0.0,0.0,0.0,0.0,0.0,0.0,0.0,0.0,0.0,0.0,0.0,0.0,0.0,0.0,0.0,0.0,0.0,0.0,0.0,0.0,0.0,0.0,0.0,0.0,0.0,0.0,0.0,0.0,0.0,0.0,0.0,0.0,0.0,0.0,0.0,0.0,0.0,0.0,0.0,0.0,0.0,0.0,0.0,0.0,0.0,0.0,0.0,0.0,0.0,0.0,0.0,0.0,0.0,0.0,0.0,0.0,0.0,0.0,0.0,0.0,0.0,0.0,0.0,0.0,0.0,0.0,0.0,0.0,0.0,0.0,0.0,0.0,0.0,0.0,0.0,0.0,0.0,0.0,0.0,0.0,0.0,0.0,0.0,0.0,0.0,0.0,0.0,0.0,0.0,0.0,0.0,0.0,0.0,0.0,0.0,0.0,0.0,0.0,0.0,0.0,0.0,0.0,0.0,0.0,0.0,0.0,0.0,0.0,0.0,0.0,0.0,0.0,0.0,0.0,0.0,0.0,0.0,0.0,0.0,0.0,0.0,0.0,0.0,0.0,0.0,0.0,0.0,0.0,0.0,0.0,0.0,0.0,0.0,0.0,0.0,0.0,0.0,0.0,0.0,0.0,0.0,0.0,0.0,0.0,0.0,0.0,0.0,0.0,0.0,0.0,0.0,0.0,0.0,0.0,0.0,0.0,0.0,0.0,0.0,0.0,0.0,0.0,0.0,0.0,0.0,0.0,0.0,0.0,0.0,0.0,0.0,0.0,0.0,0.0,0.0,0.0,0.0,0.0,0.0,0.0,0.0,0.0,0.0,0.0,0.0,0.0,0.0,0.0,0.0,0.0,0.0,0.0,0.0,0.0,0.0,0.0,0.0,0.0,0.0,0.0,0.0,0.0,0.0,0.0,0.0,0.0,0.0,0.0,0.0,0.0,0.0,0.0,0.0,0.0,0.0,0.0,0.0,0.0,0.0,0.0,0.0,0.0,0.0,0.0,0.0,0.0,0.0,0.0,0.0,0.0,0.0,0.0,0.0,0.0,0.0,0.0,0.0,0.0,0.0,0.0,0.0,0.0,0.0,0.0,0.0,0.0,0.0,0.0,0.0,0.0,0.0,0.0,0.0,0.0,0.0,0.0,0.0,0.0,0.0,0.0,0.0,0.0,0.0,0.0,0.0,0.0,0.0,0.0,0.0,0.0,0.0,0.0,0.0,0.0,0.0,0.0,0.0,0.0,0.0,0.0,0.0,0.0,0.0,0.0,0.0,0.0,0.0,0.0,0.0,0.0,0.0,0.0,0.0,0.0,0.0,0.0,0.0,0.0,0.0,0.0,0.0,0.0,0.0,0.0,0.0,0.0,0.0,0.0,0.0,0.0,0.0,0.0,0.0,0.0,0.0,0.0,0.0,0.0,0.0,0.0,0.0,0.0,0.0,0.0,0.0,0.0,0.0,0.0,0.0,0.0,0.0,0.0,0.0,0.0,0.0,0.0,0.0,0.0,0.0,0.0,0.0,0.0,0.0,0.0,0.0,0.0,0.0,0.0,0.0,0.0,0.0,0.0,0.0,0.0,0.0,0.0,0.0,0.0,0.0,0.0,0.0,0.0,0.0,0.0,0.0,0.0,0.0,0.0,0.0,0.0,0.0,0.0,0.0,0.0,0.0,0.0,0.0,0.0,0.0,0.0,0.0,0.0,0.0,0.0,0.0,0.0,0.0,0.0,0.0,0.0,0.0,0.0,0.0,0.0,0.0,0.0,0.0,0.0,0.0,0.0,0.0,0.0,0.0,0.0,0.0,0.0,0.0,0.0,0.0,0.0,0.0,0.0,0.0,0.0,0.0,0.0,0.0,0.0,0.0,0.0,0.0,0.0,0.0,0.0,0.0,0.0,0.0,0.0,0.0,0.0,0.0,0.0,0.0,0.0,0.0,0.0,0.0,0.0,0.0,0.0,0.0,0.0,0.0,0.0,0.0,0.0,0.0,0.0,0.0,0.0,0.0,0.0,0.0,0.0,0.0,0.0,0.0,0.0,0.0,0.0,0.0,0.0,0.0,0.0,0.0,0.0,0.0,0.0,0.0,0.0,0.0,0.0,0.0,0.0,0.0,0.0,0.0,0.0,0.0,0.0,0.0,0.0,0.0,0.0,0.0,0.0,0.0,0.0,0.0,0.0,0.0,0.0,0.0,0.0,0.0,0.0,0.0,0.0,0.0,0.0,0.0,0.0,0.0,0.0,0.0,0.0,0.0,0.0,0.0,0.0,0.0,0.0,0.0,0.0,0.0,0.0,0.0,0.0,0.0,0.0,0.0,0.0,0.0,0.0,0.0,0.0,0.0,0.0,0.0,0.0,0.0,0.0,0.0,0.0,0.0,0.0,0.0,0.0,0.0,0.0,0.0,0.0,0.0,0.0,0.0,0.0,0.0,0.0,0.0,0.0,0.0,0.0,0.0,0.0,0.0,0.0,0.0,0.0,0.0,0.0,0.0,0.0,0.0,0.0,0.0,0.0,0.0,0.0,0.0,0.0,0.0,0.0,0.0,0.0,0.0,0.0,0.0,0.0,0.0,0.0,0.0,0.0,0.0,0.0,0.0,0.0,0.0,0.0,0.0,0.0,0.0,0.0,0.0,0.0,0.0,0.0,0.0,0.0,0.0,0.0,0.0,0.0,0.0,0.0,0.0,0.0,0.0,0.0,0.0,0.0,0.0,0.0,0.0,0.0,0.0,0.0,0.0,0.0,0.0,0.0,0.0,0.0,0.0,0.0,0.0,0.0,0.0,0.0,0.0,0.0,0.0,0.0,0.0,0.0,0.0,0.0,0.0,0.0,0.0,0.0,0.0,0.0,0.0,0.0,0.0,0.0,0.0,0.0,0.0,0.0,0.0,0.0,0.0,0.0,0.0,0.0,0.0,0.0,0.0,0.0,0.0,0.0,0.0,0.0,0.0,0.0,0.0,0.0,0.0,0.0,0.0,0.0,0.0,0.0,0.0,0.0,0.0,0.0,0.0,0.0,0.0,0.0,0.0,0.0,0.0,0.0,0.0,0.0,0.0,0.0,0.0,0.0,0.0,0.0,0.0,0.0,0.0,0.0,0.0,0.0,0.0,0.0,0.0,0.0,0.0,0.0,0.0,0.0,0.0,0.0,0.0,0.0,0.0,0.0,0.0,0.0,0.0,0.0,0.0,0.0,0.0,0.0,0.0,0.0,0.0,0.0,0.0,0.0,0.0,0.0,0.0,0.0,0.0,0.0,0.0,0.0,0.0,0.0,0.0,0.0,0.0,0.0,0.0,0.0,0.0,0.0,0.0,0.0,0.0,0.0,0.0,0.0,0.0,0.0,0.0,0.0,0.0,0.0,0.0,0.0409,0.0421,0.0403,0.0437,0.0982,0.1514,0.2022,0.0,0.0,0.0,0.0,0.0,0.0,0.0,0.0,0.0,0.0,0.0,0.0,0.0,0.0,0.0,0.0,0.0,0.0,0.0,0.0,0.0,0.0,0.0,0.0,0.0,0.0,0.0,0.0,0.0,0.0,0.0,0.0,0.0,0.0,0.0,0.0,0.0,0.0,0.0,0.0,0.0,0.0,0.0,0.0,0.0,0.0,0.0,0.0,0.0,0.0,0.0,0.0,0.0,0.0,0.0,0.0,0.0,0.0,0.0,0.0,0.0,0.0,0.0,0.0,0.0,0.0,0.0,0.0,0.0,0.0,0.0,0.0,0.0,0.0,0.0,0.0,0.0,0.0,0.0,0.0,0.0,0.0,0.0,0.0,0.0,0.0,0.0,0.0,0.0,0.0,0.0,0.0,0.0,0.0,0.0,0.0,0.0,0.0,0.0,0.0,0.0,0.0,0.0,0.0,0.0,0.0,-0.0076,-0.0129,-0.013,-0.0079,-0.0027,0.0,0.0,0.0,0.048,0.1329,0.1329,0.0,0.0,0.0,0.0,0.0,0.0,0.0,0.0,0.0,0.0,0.0,0.0,0.0,0.0,0.0,0.0,0.0,0.0,0.0,0.0,0.0,0.0,0.0,0.0,0.0,0.0,0.0,0.0,0.0,0.0,0.0,0.0,0.0,0.0,0.0,0.0,0.0,0.0,0.0,0.0,0.0,0.0,0.0,0.0,0.0,0.0,0.0,0.0,0.0,0.0,0.0,0.0,0.0,0.0,0.0,0.0,0.0,0.0,0.0,0.0,0.0,0.0,0.0,-0.085,-0.0335,0.0,0.0,0.0,0.0,0.0,0.0,0.0,0.0,0.0,0.0,0.0,0.0,0.0,0.0,0.0,0.0,0.0,0.0,0.0,0.0,0.0,0.0,0.0,0.0,0.0,0.0,0.0,0.0051,0.0,0.0,0.0,0.0,0.0,0.0,0.0,0.0,0.0,0.0,0.0,0.0,-0.0336,-0.0622,-0.0633,-0.0353,-0.0112,0.0,0.0,0.0,0.0088,0.0204,0.0204,0.0204,0.0203,0.0,0.0,0.0,0.0,0.0,0.0,0.0,0.0,0.0,0.0,0.0,0.0,0.0,0.0,0.0,0.0,0.0,0.0,0.0,0.0,0.0,0.0,0.0,0.0,0.0,0.0,0.0,0.0,0.0,0.0,0.0,0.0,0.0,0.0,0.0,0.0,0.0,0.0,0.0,0.0,0.0,-0.0245,-0.0859,0.0,0.0,0.0,0.0,0.0,0.0,0.0,0.0,0.0,0.0,0.0,0.0,0.0,-0.3964,-0.3063,-0.2535,-0.1917,-0.1245,-0.0817,-0.0389,0.0,0.0,0.0,0.0,0.0,0.0,0.0,0.0,0.0,0.0,0.0,0.0,0.0,0.0,0.0,0.0,0.0,0.0,0.0,0.0,0.0,0.0,0.0,0.0,0.0,0.0,0.0,0.0,0.0,0.0,0.0,0.0,0.0,0.0,0.0,-0.0131,0.0,0.0,0.0,-0.067,-0.0675,-0.1016,-0.1225,-0.1348,-0.1248,-0.1176,-0.1195,-0.1195,-0.1067,-0.0846,-0.0854,-0.0543,0.0,0.0,0.0,0.0,0.0,0.0,0.0,0.0,0.0,0.0,0.0,0.0,0.0,0.0,0.0,0.0,0.0,0.0,0.0,0.0,0.0,0.0,0.0,0.0,0.0,0.0,0.0,0.0,0.0,0.0,0.0,0.0,0.0,0.0,0.0,0.0,0.0,0.0,0.0,0.0,0.0,0.0,-0.0189,-0.0647,-0.1288,-0.198,0.0,0.0,0.0,0.0,0.0,0.0,0.0,0.0,0.0,-0.3436,-0.3012,-0.2614,-0.2245,-0.1595,-0.1134,-0.0866,-0.0451,-0.0164,0.0,0.0,0.0,0.0,0.0,0.0,0.0,0.0,0.0,0.0,0.0,0.0,0.0,0.0,0.0,0.0,0.0,0.0,0.0,0.0,0.0,0.0,0.0,0.0,0.0,0.0,0.0,0.0,0.0,0.0,0.0,0.0,0.0,0.0,0.0,-0.0241,-0.0447,-0.0523,-0.0993,-0.1283,-0.1368,-0.1723,-0.2081,-0.2466,-0.2383,-0.237,-0.2364,-0.2323,-0.2181,-0.188,-0.1816,-0.1176,-0.012,-0.0119,-0.0089,0.0,0.0,0.0,0.0,0.0,0.0,0.0,0.0,0.0,0.0,0.0,0.0,0.0,0.0,0.0,0.0,0.0,0.0,0.0,0.0,0.0,0.0,0.0,0.0,0.0,0.0,0.0,0.0,0.0,0.0,0.0,0.0,0.0,0.0,0.0,0.0,0.0,0.0,0.0,-0.0132,-0.0445,-0.1022,-0.1588,0.0,0.0,0.0,0.0,0.0,0.0,-0.3592,-0.3325,-0.2929,-0.2275,-0.1714,-0.1377,-0.1359,-0.075,-0.0465,-0.043,-0.0128,0.0,0.0,0.0,0.0,0.0,0.0,0.0,0.0,0.0,0.0,0.0,0.0,0.0,0.0,0.0,0.0,0.0,0.0,0.0,0.0,0.0,0.0,0.0,0.0,0.0,0.0,0.0,0.0,0.0,0.0,0.0,0.0,0.0,0.0,0.0,0.0,-0.0248,-0.0542,-0.0851,-0.1675,-0.2277,-0.2613,-0.305,-0.3328,-0.342,-0.3186,-0.3053,-0.3055,-0.2981,-0.2958,-0.2927,-0.2663,-0.1764,-0.0472,-0.0465,-0.0277,0.0,0.0,0.0,0.0,0.0,0.0,0.0,0.0,0.0,0.0,0.0,0.0,0.0,0.0,0.0,0.0,0.0,0.0,0.0,0.0,0.0,0.0,0.0,0.0,0.0,0.0,0.0,0.0,0.0,0.0,0.0,0.0,0.0,0.0,0.0,0.0,0.0,0.0,0.0,0.0,-0.0471,-0.0799,0.0,0.0,0.0,0.0,-0.2249,-0.2636,-0.259,-0.1875,-0.1878,-0.1546,-0.0742,-0.0674,-0.0469,-0.0085,-0.0043,-0.0043,-0.0043,0.0,0.0,0.0,0.0,0.0,0.0,0.0,0.0,0.0,0.0,0.0,0.0,0.0,0.0,0.0,0.0,0.0,0.0,0.0,0.0,0.0,0.0,0.0,0.0,0.0,0.0,0.0,0.0,0.0,0.0,0.0,0.0,0.0,0.0,0.0,0.0,0.0,-0.0445,-0.0845,-0.1137,-0.2005,-0.2923,-0.3951,-0.444,-0.4936,-0.5438,-0.5557,-0.56,-0.56,-0.557,-0.5311,-0.4865,-0.4867,-0.409,-0.2747,-0.1654,-0.113,-0.0986,-0.0518,-0.0328,0.0,0.0,0.0,0.0,0.0,0.0,0.0,0.0,0.0,0.0,0.0,0.0,0.0,0.0,0.0,0.0,0.0,0.0,0.0,0.0,0.0,0.0,0.0,0.0,0.0,0.0,0.0,0.0,0.0,0.0,0.0,0.0,0.0,0.0,0.0,0.0,0.0,-0.0154,-0.0461,0.0,-0.0846,-0.1347,-0.1585,-0.1526,-0.167,-0.154,-0.1037,-0.1004,-0.076,-0.0214,-0.0217,-0.0131,0.0,0.0,0.0,0.0,0.0,0.0,0.0,0.0,0.0,0.0,0.0,0.0,0.0,0.0,0.0,0.0,0.0,0.0,0.0,0.0,0.0,0.0,0.0,0.0,0.0,0.0,0.0,0.0,0.0,0.0,0.0,0.0,0.0,0.0,0.0,0.0,0.0,0.0,0.0,0.0,0.0,-0.056,-0.102,-0.1296,-0.2496,-0.3746,-0.5034,-0.5508,-0.611,-0.6836,-0.705,-0.7238,-0.7327,-0.7324,-0.7048,-0.6561,-0.6512,-0.5985,-0.5023,-0.3384,-0.2354,-0.1734,-0.1004,-0.0617,-0.0452,0.0,0.0,0.0,0.0,0.0,0.0,0.0,0.0,0.0,0.0,0.0,0.0,0.0,0.0,0.0,0.0,0.0,0.0,0.0,0.0,0.0,0.0,0.0,0.0,0.0,0.0,0.0,0.0,0.0,0.0,0.0,0.0,0.0,0.0,0.0,0.0,0.0,-0.0203,-0.0325,-0.0329,-0.0576,-0.0743,-0.0791,-0.0797,-0.0679,-0.0432,-0.0389,-0.0261,0.0,0.0,0.0,0.0,0.0,0.0,0.0,0.0,0.0,0.0,0.0,0.0,0.0,0.0,0.0,0.0,0.0,0.0,0.0,0.0,0.0,0.0,0.0,0.0,0.0,0.0,0.0,0.0,0.0,0.0,0.0,0.0,0.0,0.0,0.0,0.0,0.0,0.0,0.0,0.0,0.0,0.0,0.0,0.0,-0.0566,-0.1009,-0.1319,-0.316,-0.4664,-0.5748,-0.6172,-0.676,-0.7489,-0.7489,-0.7676,-0.7983,-0.7926,-0.7903,-0.7858,-0.7428,-0.7207,-0.7066,-0.548,-0.3837,-0.2173,-0.1428,-0.0864,-0.0473,0.0,0.0,0.0,0.0,0.0,0.0,0.0,0.0,0.0,0.0,0.0,0.0,0.0,0.0,0.0,0.0,0.0,0.0,0.0,0.0,0.0,0.0,0.0,0.0,0.0,0.0,0.0,0.0,0.0,0.0,0.0,0.0,0.0,0.0,0.0,0.0,0.0,0.0,0.0,0.0,0.0,0.0,0.0,0.0,0.0,0.0,0.0,0.0,0.0,0.0,0.0,0.0,0.0,0.0,0.0,0.0,0.0,0.0,0.0,0.0,0.0,0.0,0.0,0.0,0.0,0.0,0.0,0.0,0.0,0.0,0.0,0.004,0.004,0.0,0.0,0.0,0.0,0.0,0.0,0.0,0.0,0.0,0.0,0.0,0.0,0.0,0.0,0.0,0.0,0.0,0.0,0.0,-0.0337,-0.0986,-0.1995,-0.2811,-0.3836,-0.5058,-0.5711,-0.6381,-0.7059,-0.7552,-0.7829,-0.7921,-0.7919,-0.7798,-0.7609,-0.759,-0.7181,-0.6484,-0.5604,-0.4495,-0.3241,-0.1976,-0.1234,-0.0801,0.0,0.0,0.0,0.0,0.0,0.0,0.0,0.0,0.0,0.0,0.0,0.0,0.0,0.0,0.0,0.0,0.0,0.0,0.0,0.0,0.0,0.0,0.0,0.0,0.0,0.0,0.0,0.0,0.0,0.0,0.0,0.0,0.0,0.0,0.0,0.0,0.0,0.0,0.0,0.0,0.0,0.0,0.0,0.0,0.0,0.0,0.0,0.0,0.0,0.0,0.0,0.0,0.0,0.0,0.0,0.0,0.0,0.0,0.0,0.0,0.0,0.0,0.0,0.0,0.0,0.0,0.0,0.0,0.0,0.0042,0.0372,0.0895,0.1359,0.0,0.0,0.0,0.0,0.0,0.0,0.0505,0.0305,0.0155,0.0159,0.0081,0.0,0.0,0.0,0.0,0.0,0.0,0.0,0.0,-0.0254,-0.0856,-0.1884,-0.2268,-0.3024,-0.4195,-0.478,-0.554,-0.6491,-0.6858,-0.7219,-0.7511,-0.7511,-0.7448,-0.7311,-0.7158,-0.6779,-0.6185,-0.5175,-0.4285,-0.3424,-0.1986,-0.1235,-0.0961,-0.0265,0.0,0.0,0.0,0.0,0.0,0.0,0.0,0.0,0.0,0.0,0.0,0.0,0.0,0.0,0.0,0.0,0.0,0.0,0.0,0.0,0.0,0.0,0.0,0.0,0.0,0.0,0.0,0.0,0.0,0.0,0.0,0.0,0.0,0.0,0.0,0.0,0.0,0.0,0.0,0.0,0.0,0.0,0.0,0.0,0.0,0.0,0.0,0.0,0.0,0.0,0.0,0.0,0.0,0.0,0.0,0.0,0.0,0.0,0.0,0.0,0.0,0.0089,0.0311,0.031,0.0528,0.0,0.0,0.0,0.0,0.0,0.1477,0.2268,0.0,0.0,0.0,0.0,0.0,0.0,0.1287,0.0898,0.0575,0.0506,0.0298,0.011,0.0056,0.0056,0.0028,0.0,0.0,0.0,0.0,-0.0228,-0.0637,-0.1266,-0.1584,-0.2184,-0.3171,-0.3512,-0.4281,-0.5506,-0.5548,-0.59,-0.6545,-0.6553,-0.6584,-0.6616,-0.6076,-0.5825,-0.5716,-0.4253,-0.3397,-0.2893,-0.1555,-0.1036,-0.0965,-0.0276,0.0,0.0,0.0,0.0,0.0,0.0,0.0,0.0,0.0,0.0,0.0,0.0,0.0,0.0,0.0,0.0,0.0,0.0,0.0,0.0,0.0,0.0,0.0,0.0,0.0,0.0,0.0,0.0,0.0,0.0,0.026,0.027,0.0371,0.0373,0.0282,0.0048,0.0,0.0,0.0,0.0,0.0048,0.0096,0.0095,0.0094,0.0186,0.0,0.0,0.0,0.0,0.0,0.0,0.0,0.0046,0.0091,0.009,0.0135,0.0269,0.0269,0.0269,0.0314,0.0314,0.0584,0.0942,0.1022,0.1592,0.2293,0.0865,0.0386,0.0555,0.138,0.2362,0.3256,0.0,0.0,0.0,0.0,0.0,0.0,0.1866,0.1794,0.1618,0.1195,0.1082,0.0853,0.0364,0.0336,0.0224,0.0028,0.0,0.0,0.0,-0.0057,-0.0261,-0.0647,-0.0748,-0.1123,-0.1848,-0.2188,-0.2619,-0.3143,-0.3429,-0.3643,-0.3779,-0.3761,-0.3814,-0.3866,-0.3745,-0.3566,-0.3335,-0.2765,-0.2275,-0.182,-0.0966,-0.0606,-0.056,-0.0141,0.0,0.0,0.0,0.0,0.0,0.0,0.0,0.0,0.0,0.0,0.0,0.0,0.0,0.0,0.0,0.0,0.0,0.0,0.0,0.0,0.0,0.0,0.0,0.0,0.0,0.0,0.0,0.0,0.0,0.1733,0.1899,0.2105,0.2534,0.2576,0.1956,0.0193,0.0,0.0,0.0,0.0,0.0197,0.0628,0.0622,0.0805,0.1172,0.0837,0.0648,0.0648,0.0233,0.0,0.0,0.0,0.0185,0.0547,0.0,0.0,0.1794,0.1794,0.1973,0.2333,0.2333,0.2378,0.2511,0.2863,0.3378,0.379,0.2742,0.2758,0.3375,0.3911,0.5075,0.6475,0.0,0.0,0.0,0.0,0.0,0.0,0.3425,0.3019,0.266,0.2392,0.1987,0.1638,0.1344,0.1177,0.0981,0.0673,0.0367,0.0199,0.0199,0.0087,-0.0089,-0.0238,-0.0242,-0.0492,-0.0998,-0.1155,-0.1503,-0.1987,-0.216,-0.2367,-0.2546,-0.2566,-0.2595,-0.2632,-0.2449,-0.2272,-0.213,-0.1591,-0.1229,-0.1003,-0.0472,-0.0255,-0.0219,-0.0074,0.0,0.0,0.0,0.0,0.0,0.0,0.0,0.0,0.0,0.0,0.0,0.0,0.0,0.0,0.0,0.0,0.0,0.0,0.0,0.0,0.0,0.0,0.0,0.0,0.0,0.1557,0.1796,0.0,0.2504,0.3037,0.338,0.3721,0.4038,0.4099,0.3457,0.1819,0.159,0.1601,0.1593,0.1593,0.1735,0.1964,0.1994,0.2123,0.2353,0.2151,0.2002,0.2002,0.1725,0.1581,0.1621,0.1566,0.1648,0.1911,0.2123,0.2511,0.2937,0.3208,0.3424,0.3587,0.3587,0.3855,0.4393,0.5596,0.6246,0.6437,0.6444,0.5804,0.4948,0.5349,0.6609,0.8165,0.0,0.0,0.0,0.0,0.0,0.0,0.0,0.4501,0.3956,0.3796,0.3213,0.2742,0.2491,0.2269,0.1962,0.1514,0.1053,0.0747,0.069,0.0505,0.0364,0.0303,0.0308,0.0125,-0.0285,-0.0317,-0.0607,-0.1198,-0.1201,-0.1376,-0.1695,-0.1699,-0.1712,-0.1766,-0.1442,-0.128,-0.1253,-0.0669,-0.0395,-0.0368,-0.0111,0.0,0.0,0.0,0.0,0.0,0.0,0.0,0.0,0.0,0.0,0.0,0.0,0.0,0.0,0.0,0.0,0.0,0.0,0.0,0.0,0.0,0.0,0.0,0.0,0.1842,0.244,0.2559,0.2964,0.3379,0.3594,0.4031,0.4533,0.4964,0.5478,0.5901,0.6262,0.632,0.5959,0.4971,0.4082,0.354,0.3532,0.3508,0.3592,0.3841,0.3863,0.3944,0.4191,0.3987,0.3883,0.3883,0.3639,0.3489,0.3532,0.3434,0.3545,0.3713,0.4076,0.4434,0.4746,0.511,0.5356,0.5435,0.5425,0.5867,0.6806,0.8364,0.9077,0.9215,0.9976,0.8898,0.6972,0.7113,0.8215,0.9606,0.0,0.0,0.0,0.0,0.0,0.0,0.0,0.0,0.5953,0.5191,0.506,0.4644,0.3553,0.3413,0.305,0.2185,0.2104,0.1983,0.1754,0.1831,0.1692,0.1353,0.1391,0.1092,0.0419,0.0387,0.0195,-0.0164,-0.0166,-0.0202,-0.024,-0.0242,-0.0244,-0.0244,-0.021,-0.0177,-0.0181,-0.0109,-0.0074,-0.0038,0.0,0.0,0.0,0.0,0.0,0.0,0.0,0.0,0.0,0.0,0.0,0.0,0.0,0.0,0.0,0.0,0.0,0.0073,0.0435,0.1096,0.17,0.1759,0.2162,0.267,0.0,0.339,0.3661,0.4208,0.4412,0.4791,0.5657,0.6017,0.6785,0.8837,0.9211,0.9643,1.0795,1.0938,1.0882,1.0757,0.7218,0.473,0.464,0.4632,0.5082,0.6137,0.6233,0.6679,0.7684,0.6777,0.62,0.62,0.5162,0.4599,0.4608,0.4638,0.5031,0.5853,0.5887,0.6808,0.8431,0.8477,0.8886,0.9522,0.9433,0.966,1.015,1.0372,1.0733,1.1094,1.1182,1.1344,1.1395,1.0925,1.1219,1.1963,0.0,0.0,0.0,0.0,0.0,0.0,0.0,0.0,0.6921,0.6569,0.6308,0.5959,0.5453,0.4951,0.4501,0.4083,0.3467,0.3099,0.3069,0.2813,0.2674,0.2593,0.2399,0.2171,0.1908,0.1673,0.1483,0.1332,0.1385,0.1398,0.1407,0.1212,0.1112,0.1076,0.0579,0.0365,0.0332,0.0112,0.0,0.0,0.0,0.0,0.0,0.0,0.0,0.0,0.0,0.0,0.0,0.0,0.0,0.0,0.0,0.0,0.004,0.0273,0.0343,0.0558,0.1442,0.2231,0.2835,0.3081,0.3888,0.4675,0.4919,0.5987,0.6968,0.7282,0.7949,0.861,0.9012,0.9553,1.0199,0.0,1.1589,1.2068,1.2642,1.2771,1.2694,1.2575,1.0924,0.9499,0.8899,0.8793,0.9048,0.951,0.9561,0.9765,1.0228,0.9834,0.9536,0.9438,0.8981,0.8643,0.8559,0.8544,0.8735,0.9116,0.9256,0.9754,1.0465,1.064,1.0886,1.1082,1.1299,1.1464,1.1627,1.216,1.2514,1.2698,1.2964,1.323,1.3262,1.2153,1.2253,1.2963,0.0,0.0,0.0,0.0,0.0,0.0,0.0,0.0,0.0,0.0,0.7409,0.7132,0.6965,0.632,0.5884,0.5827,0.5084,0.465,0.4747,0.4422,0.4234,0.4265,0.3985,0.371,0.3398,0.3122,0.2869,0.2707,0.2768,0.2791,0.2811,0.2534,0.2361,0.226,0.1609,0.1242,0.1134,0.0842,0.074,0.0753,0.0753,0.0716,0.0719,0.0719,0.0709,0.0617,0.0154,0.0,0.0,0.0,0.0076,0.0156,0.0156,0.0314,0.0513,0.0814,0.1261,0.1852,0.2931,0.3916,0.4743,0.5153,0.6219,0.7186,0.742,0.8749,0.9979,1.0169,1.0965,1.1637,1.1832,1.2361,1.2879,1.3249,1.3695,1.4071,1.4441,1.4435,1.4325,1.4174,1.4134,1.3865,1.3173,1.2498,1.2179,1.2399,1.2404,1.2518,1.2704,1.2523,1.2369,1.2293,1.2074,1.1903,1.1818,1.1709,1.1738,1.1856,1.2034,1.2213,1.2394,1.2713,1.2702,1.2532,1.2858,1.2908,1.2831,1.3502,1.3812,1.3812,1.4166,1.4299,1.4153,1.3029,1.3054,1.3576,0.0,0.0,0.0,0.0,0.0,0.0,0.0,0.0,0.0,0.0,0.0,0.0,0.0,0.7321,0.7058,0.6858,0.6888,0.6901,0.69,0.7011,0.6863,0.6431,0.6457,0.5895,0.4665,0.4633,0.4333,0.3742,0.3744,0.3792,0.3839,0.3761,0.3575,0.3269,0.3156,0.2906,0.2548,0.2579,0.261,0.2598,0.2598,0.2582,0.2516,0.2516,0.2441,0.2118,0.057,0.0,0.0,0.0,0.026,0.0569,0.0569,0.107,0.166,0.1659,0.2864,0.4318,0.4866,0.6394,0.7929,0.8277,0.932,1.0438,1.1069,1.1485,1.1883,1.2385,1.2558,1.2798,1.334,1.3548,1.4066,1.5405,1.5609,1.5911,1.6774,1.6738,1.6592,1.6585,1.6458,1.6424,0.0,1.4428,1.3366,1.418,1.4198,1.451,1.5159,1.458,1.4198,1.4192,1.3439,1.3053,1.3053,1.2928,1.3062,1.3444,1.3438,1.3836,1.4629,1.4819,1.479,1.4589,1.4487,1.4338,1.4255,1.4255,1.4299,1.4299,1.4299,1.4299,1.4299,1.4248,1.4153,1.4068,0.0,0.0,0.0,0.0,0.0,0.0,0.0,0.0,0.0,0.0,0.0,0.0,0.0,0.0,0.0,0.0,0.7978,0.7856,0.797,0.7917,0.7948,0.8079,0.7893,0.7696,0.7492,0.7278,0.7084,0.6974,0.7034,0.7055,0.7072,0.6526,0.623,0.6184,0.5046,0.4485,0.4335,0.3789,0.3578,0.3574,0.3506,0.3485,0.3467,0.3333,0.321,0.3038,0.0,0.19,0.1463,0.1467,0.1545,0.1713,0.1932,0.217,0.253,0.3413,0.4999,0.6563,0.7205,0.8499,0.9842,1.0325,1.1294,1.2207,1.2514,1.332,1.4079,1.4317,1.4682,1.5011,1.5209,1.5248,1.5494,1.6,1.6077,1.6286,1.673,1.6693,1.6547,1.6547,1.6469,0.0,0.0,0.0,0.0,1.6047,1.6066,1.6191,1.6394,1.6197,1.6021,1.5924,1.5615,1.5468,1.5373,1.524,1.5195,1.5351,1.5018,1.4973,1.5166,1.5154,1.5031,1.4882,1.4733,1.4577,1.4434,1.434,1.4299,1.4299,1.4299,1.4299,1.4299,1.4299,1.4265,1.4224,0.0,0.0,0.0,0.0,0.0,0.0,0.0,0.0,0.0,0.0,0.0,0.0,0.0,0.0,0.0,0.0,0.0,0.8793,0.9032,0.8909,0.8977,0.9308,0.9126,0.9073,0.9223,0.9014,0.8902,0.8938,0.9013,0.9051,0.9131,0.8577,0.8315,0.8287,0.7211,0.6683,0.6532,0.5994,0.5747,0.5739,0.5671,0.5592,0.5556,0.5345,0.5194,0.0,0.497,0.463,0.4037,0.2927,0.2761,0.305,0.3262,0.3781,0.4556,0.5914,0.7347,0.8696,0.9427,1.0597,1.1737,1.2316,1.3174,1.3887,1.412,1.4824,1.5447,1.5493,1.5714,1.5906,1.5852,1.5839,1.5906,1.611,1.6239,1.6415,1.6655,1.6615,1.6554,1.6554,1.6476,1.6442,0.0,0.0,0.0,1.6971,1.6978,1.6978,1.6978,1.6978,1.6937,1.6836,1.673,1.6648,1.6554,1.6456,1.6361,1.6307,1.5961,1.5716,1.556,1.5357,1.5181,1.5038,1.4889,1.4733,1.4539,1.4496,1.4428,1.4373,1.4373,1.4346,1.4299,1.4299,1.4299,1.4299,0.0,0.0,0.0,0.0,0.0,0.0,0.0,0.0,0.0,0.0,0.0,0.0,0.0,0.0,0.0,0.0,0.0,0.0,0.997,0.9984,1.0027,1.0128,1.012,1.0036,0.988,0.9862,0.9806,0.9714,0.9714,0.9796,0.9987,0.9911,0.9789,0.9619,0.9579,0.9347,0.8966,0.8946,0.8943,0.8929,0.8781,0.8718,0.86,0.8361,0.8155,0.8026,0.7832,0.7787,0.7403,0.4445,0.4008,0.4724,0.4733,0.5943,0.7632,0.89,0.9866,1.0713,1.1505,1.2582,1.364,1.4198,1.4885,1.5506,1.5826,1.601,1.6071,1.5915,1.571,1.5512,0.0,0.0,1.5479,1.5826,1.609,1.6395,1.6642,1.6682,1.6689,0.0,0.0,0.0,0.0,0.0,0.0,1.6978,1.6985,1.6978,1.6978,1.6978,1.6978,1.6978,1.6784,1.6709,1.6709,1.656,1.6463,1.632,1.6157,1.6008,1.5901,1.556,1.5337,1.5187,1.5091,1.4896,1.4708,1.4694,1.4606,1.4523,1.4523,1.4434,1.4312,1.4312,1.4306,1.4299,0.0,0.0,0.0,0.0,0.0,0.0,0.0,0.0,0.0,0.0,0.0,0.0,0.0,0.0,0.0,0.0,0.0,0.0,0.9977,0.9984,1.0132,1.0404,1.0491,1.0624,1.0848,1.0931,1.1038,1.1074,1.1074,1.1164,1.1293,1.0996,1.0902,1.1049,1.0389,1.0092,1.0063,0.9704,0.9506,0.9418,0.931,0.9235,0.9106,0.8879,0.8739,0.8679,0.8617,0.8573,0.8357,0.7004,0.704,0.7681,0.791,0.8785,0.9824,1.038,1.1384,1.2453,1.2996,1.3866,1.469,1.502,1.5472,1.5779,1.5703,1.5805,1.5888,1.5574,1.5316,1.5126,1.5092,1.4991,1.4998,1.5459,1.5778,0.0,1.6524,1.6527,0.0,1.6682,0.0,1.6527,1.6682,1.6696,0.0,0.0,1.7039,1.6978,1.6978,1.6978,1.6978,1.6978,1.6944,1.6924,1.6924,1.6716,1.6567,1.6463,1.6205,1.6062,1.6064,1.5716,1.5499,1.5343,1.5194,1.5045,1.4903,1.4741,1.4674,1.4633,1.4633,1.459,1.4455,1.4455,1.4387,1.4299,0.0,0.0,0.0,0.0,0.0,0.0,0.0,0.0,0.0,0.0,0.0,0.0,0.0,0.0,0.0,0.0,0.0,0.0,0.0,1.0651,1.0674,1.0919,1.0801,1.0894,1.1199,1.1186,1.1274,1.1416,1.1416,1.1497,1.164,1.1388,1.1398,1.1584,1.1095,1.0915,1.0989,1.0682,1.0565,0.0,0.0,1.0299,1.0203,0.9935,0.9862,0.9908,0.9813,0.9932,1.01,0.9938,0.9739,0.9671,1.0393,1.1053,1.1635,1.2103,1.292,1.3753,1.4175,1.4691,1.5235,1.5533,1.5683,1.5757,1.5737,1.5696,1.5574,1.5282,1.4977,1.4753,1.4685,1.4658,1.4808,1.5323,0.0,0.0,1.6653,1.6775,1.6849,0.0,1.687,0.0,1.6937,1.6944,1.7039,0.0,1.7154,1.71,1.7168,1.7107,1.7073,1.7073,1.7012,1.6978,1.6978,1.6897,1.6775,1.6567,1.6456,1.6307,1.6178,1.594,1.575,1.5594,0.0,1.5337,1.5255,1.5099,1.4944,1.493,1.4869,1.4746,1.4611,1.4611,1.4563,1.4496,0.0,0.0,0.0,0.0,0.0,0.0,0.0,0.0,0.0,0.0,0.0,0.0,0.0,0.0,0.0,0.0,0.0,0.0,0.0,0.0,1.1476,1.1557,1.1171,1.1048,1.1311,1.1108,1.1118,1.1344,1.1241,1.1282,1.1405,1.137,1.1416,1.1558,1.1558,1.1558,1.1558,1.1558,1.1545,1.1482,1.1382,1.1321,1.1274,0.0,1.1023,1.1159,1.1029,1.1381,1.1969,1.253,1.1933,1.1128,1.2274,1.2814,1.3144,1.3776,1.4306,1.4726,1.5011,1.5303,1.5594,1.5901,1.5805,1.5716,1.5826,1.5567,1.5262,1.495,1.4638,1.4394,1.4285,1.4387,1.4679,1.5282,1.5778,1.6279,1.6842,1.708,1.7195,1.7195,1.7209,1.7222,1.7222,1.7222,1.7283,1.7439,1.7324,1.7304,1.7412,1.7297,1.7216,1.7195,1.7053,1.6978,1.6978,1.6978,1.691,1.673,1.6709,1.6567,1.6361,1.6191,1.6029,1.5928,1.573,1.5607,1.558,1.5445,1.5364,1.5228,1.5106,1.4964,1.4782,1.4782,1.4755,1.4721,0.0,0.0,0.0,0.0,0.0,0.0,0.0,0.0,0.0,0.0,1.3662,1.25,0.0,0.0,0.0,0.0,0.0,0.0,0.0,0.0,0.0,1.1927,1.1736,1.1733,1.1925,1.1739,1.1803,1.2099,1.1499,1.131,1.1473,1.1125,1.1104,1.1274,1.1274,1.1274,1.1274,1.1274,1.1172,1.1029,1.1002,1.0914,1.0846,1.0887,0.0,0.0,1.1347,1.1884,1.244,1.2839,1.2842,1.2875,1.3568,1.3995,1.4291,1.4685,1.5092,1.5479,1.5704,1.592,1.6164,1.6218,1.6117,1.5913,1.5567,1.5262,0.0,1.4502,1.417,1.3987,1.4095,1.4238,1.4529,1.5126,1.5703,1.6205,1.6551,1.6944,1.7195,0.0,1.7304,1.7378,1.7378,1.7378,0.0,0.0,1.7527,1.7473,1.7426,1.7399,1.7324,1.7195,1.7053,1.6978,1.6978,1.6978,1.6965,1.6937,1.6757,1.6669,1.6615,1.6395,1.6185,1.6085,1.5928,0.0,1.5587,1.556,1.5539,1.5512,1.5533,1.5432,1.5296,1.5296,1.514,1.493,0.0,0.0,0.0,0.0,0.0,0.0,0.0,1.6113,1.6372,1.6631,1.581,1.5065,1.4708,1.4679,1.4679,0.0,0.0,0.0,0.0,0.0,0.0,1.3557,1.3201,1.3042,1.3135,1.2996,1.2857,1.2824,0.0,1.1979,1.1903,1.1328,1.1102,1.1205,1.1036,1.0934,1.0934,1.0934,1.0894,1.0792,1.0792,1.0799,1.0813,1.0887,0.0,0.0,1.1714,1.2182,1.2678,1.3057,1.339,1.3771,1.4251,1.4624,1.4923,1.5228,1.5581,1.5886,1.6003,1.6191,1.6402,1.6327,1.6137,1.5866,1.5493,0.0,0.0,1.4258,1.3939,1.3707,1.3824,1.4027,1.4353,1.4869,1.5459,1.6008,1.6456,1.691,1.7222,1.7304,1.7446,1.7487,1.7487,1.7487,1.7548,1.7758,1.7758,1.7724,1.765,1.75,1.7351,1.7195,1.7053,1.6978,1.6978,1.6978,1.6978,1.6978,1.6904,1.6777,1.6696,1.6554,1.6405,1.63,1.6157,1.6049,1.5925,1.5818,1.575,1.5744,1.5621,1.5546,1.5479,1.5479,1.5438,1.5316,0.0,0.0,0.0,0.0,0.0,0.0,0.0,1.6965,1.7238,1.7621,1.7869,1.7799,1.7274,1.6903,1.6721,0.0,0.0,0.0,0.0,0.0,0.0,0.0,0.0,0.0,1.4731,0.0,0.0,1.3997,1.3407,0.0,0.0,0.0,0.0,0.0,1.085,1.0684,1.0684,1.0684,1.0684,0.0,0.0,1.0806,0.0,0.0,0.0,0.0,0.0,1.24,1.284,1.322,1.3648,1.4102,1.455,1.4916,1.5248,1.5588,1.5893,1.6137,1.6171,1.6395,1.6578,1.6402,1.613,1.5854,1.5445,1.4896,1.438,1.4082,1.379,1.3593,1.3578,1.3844,1.417,1.4572,1.512,1.5688,1.63,1.6795,1.7168,1.7351,1.7589,0.0,1.7855,1.7964,0.0,1.8247,1.815,1.8033,1.7915,1.7582,1.7365,1.7243,1.7073,1.6978,1.6978,1.6978,1.6978,1.6978,1.6978,1.6917,1.6743,1.6716,1.6635,1.6564,1.6415,1.6341,1.6293,1.6049,1.5983,1.5942,1.5778,1.5688,1.5688,1.5688,1.5716,1.5634,0.0,0.0,0.0,0.0,0.0,0.0,0.0,1.8325,1.8644,1.9436,1.9569,1.9582,1.948,1.8244,1.742,0.0,0.0,0.0,0.0,0.0,0.0,0.0,0.0,0.0,0.0,0.0,0.0,1.6213,1.4903,0.0,0.0,0.0,0.0,0.0,0.0,1.0684,1.0684,1.0684,0.0,0.0,0.0,0.0,0.0,0.0,0.0,0.0,0.0,1.2594,1.3009,1.3173,1.3492,1.3896,1.4394,1.4828,1.5269,1.5751,1.6049,1.632,1.6442,1.6707,1.687,1.6571,1.6279,1.5913,1.5337,0.0,1.4231,1.3883,1.3627,1.3464,1.3558,1.3714,1.3964,1.4462,1.4923,1.5384,1.5901,1.6422,1.6844,1.7182,0.0,0.0,1.8605,1.9115,1.9438,1.946,1.8964,1.8412,1.7922,1.7582,1.7412,1.7399,1.7127,1.6978,1.6978,1.6978,1.6978,1.6978,1.6978,1.6971,1.6951,1.6763,1.6689,1.6669,1.652,1.6429,0.0,1.6279,1.6185,1.6056,1.6049,1.6042,1.6042,1.6042,1.6003,1.5881,0.0,0.0,0.0,0.0,0.0,0.0,1.8129,1.837,1.8677,1.917,1.9586,1.9733,1.9589,1.9145,1.8812,1.8674,0.0,0.0,0.0,0.0,0.0,0.0,0.0,0.0,0.0,0.0,1.77,1.7389,1.6246,0.0,0.0,0.0,0.0,0.0,0.0,1.0684,1.0684,1.0684,0.0,0.0,0.0,0.0,0.0,0.0,0.0,0.0,0.0,0.0,1.3023,1.3166,1.341,1.3734,1.4136,1.4367,1.4672,1.5486,1.5934,1.6225,1.6456,1.6748,1.6904,1.6598,1.63,1.592,1.5323,0.0,1.4211,1.3862,1.3607,1.3417,1.3478,1.3639,1.3856,1.4038,1.4563,1.5038,1.5398,1.5967,1.6456,1.6754,1.7611,1.8295,0.0,0.0,2.0177,2.0662,2.045,2.0238,2.001,1.8343,1.7419,1.7419,1.7134,1.6978,1.6978,1.6978,1.6978,1.6978,1.6978,1.6978,1.6978,1.6917,1.689,1.6876,1.6727,1.6574,0.0,1.6476,1.6402,1.6347,1.6347,1.6293,1.6218,1.6218,1.6123,1.6037,0.0,0.0,0.0,0.0,0.0,1.7689,1.7969,1.8276,1.8624,1.9011,1.9492,1.972,1.9548,1.9679,1.9679,1.9428,1.9401,0.0,0.0,0.0,0.0,0.0,0.0,0.0,0.0,0.0,1.9104,1.8483,1.7346,1.6213,0.0,0.0,1.2206,1.1784,0.0,0.0,0.0,0.0,0.0,0.0,0.0,0.0,0.0,0.0,0.0,0.0,0.0,0.0,0.0,0.0,0.0,1.3607,1.3865,1.4069,1.4311,1.5194,1.5649,1.5961,1.63,1.6612,1.6781,1.6524,1.6232,1.5866,1.5309,1.476,1.4265,1.3869,1.3632,1.3519,1.3478,1.3632,1.3815,1.3899,1.4261,1.4758,1.5197,1.5774,1.6355,1.7004,1.7981,1.885,1.9478,2.0781,2.1728,2.2143,2.2143,2.2088,2.1932,2.0008,1.8757,1.8442,1.8133,1.7915,1.7758,1.7758,1.7549,1.7241,1.7241,1.7136,1.6978,1.6978,1.6978,1.6978,1.6863,1.6743,0.0,1.6581,1.6564,1.6524,1.6524,1.6463,1.6374,1.6374,1.6279,1.6151,0.0,0.0,0.0,0.0,0.0,0.0,1.7969,1.8276,1.8732,1.9321,1.9626,1.98,1.98,1.98,1.9679,1.9428,1.9401,0.0,0.0,0.0,0.0,0.0,0.0,0.0,0.0,0.0,1.9915,1.9584,1.8183,1.6764,1.5368,1.3604,1.2429,1.1784,0.0,0.0,0.0,0.0,0.0,0.0,0.0,0.0,1.1827,0.0,0.0,0.0,0.0,0.0,0.0,0.0,0.0,0.0,0.0,1.3922,1.4401,1.4895,1.5187,1.5513,1.5967,1.63,1.649,1.6347,1.6083,1.5786,1.533,1.4835,1.438,1.3889,1.3795,1.3747,1.3612,1.37,1.3892,1.4048,1.4204,1.4541,1.5297,1.5874,1.6729,1.8197,1.9314,2.0619,2.2282,2.3935,2.46,2.4037,2.3983,2.371,2.311,2.2687,2.1953,2.0794,2.0454,1.9999,1.9469,1.9469,1.8903,1.7811,1.7811,1.7496,1.6978,1.6978,1.6978,1.6978,1.6978,1.689,0.0,1.6696,1.6608,1.6524,1.6524,1.6517,1.6517,1.6517,1.6429,1.6307,0.0,0.0,0.0,0.0,0.0,0.0,0.0,1.7956,1.8303,1.8718,1.9227,1.9535,1.9535,1.9853,1.9987,1.9693,1.9666,0.0,0.0,0.0,0.0,0.0,0.0,0.0,0.0,0.0,2.0507,1.9947,1.8772,1.7507,1.6116,1.4595,1.3391,1.2477,1.2008,1.1512,0.0,0.0,0.0,0.0,0.0,1.1674,1.2036,0.0,0.0,0.0,0.0,0.0,0.0,0.0,0.0,0.0,0.0,0.0,0.0,1.5104,1.5581,1.6094,1.6229,1.6482,1.6578,1.6134,1.5771,1.5459,1.516,1.4958,1.4778,1.4526,1.465,1.4693,1.4344,1.4672,1.488,1.4634,1.4943,1.5505,1.6325,1.7111,1.8065,1.9223,2.1019,2.2877,2.474,2.5595,2.6501,2.7465,2.7573,2.7627,2.7822,2.7377,2.5543,2.2059,2.1646,2.118,2.0608,2.0252,1.9469,1.8327,1.7968,1.7496,1.6978,1.6978,1.6978,1.6978,1.6978,1.6951,1.691,1.691,1.6876,1.6836,1.6836,1.6768,1.6628,1.6628,1.6533,1.6456,0.0,0.0,0.0,0.0,0.0,0.0,0.0,1.7822,1.8129,1.845,1.8905,1.9267,1.9388,1.9693,1.988,1.9813,1.9907,0.0,0.0,0.0,0.0,0.0,0.0,0.0,2.1109,2.1109,2.0824,2.0297,1.9362,1.83,1.7196,1.5738,1.466,1.3861,1.3153,1.2498,0.0,0.0,0.0,0.0,1.1477,1.1762,1.2104,0.0,0.0,0.0,0.0,0.0,0.0,0.0,0.0,0.0,0.0,0.0,0.0,0.0,1.6135,1.6588,1.609,1.6328,1.6591,1.6063,1.5847,1.5744,1.5491,1.5521,1.555,1.538,1.5688,1.5858,1.5532,1.5826,1.6028,1.573,1.5988,1.6547,1.7539,1.8534,1.9964,2.2161,2.4491,2.6389,2.762,2.8262,2.9028,3.0113,3.0167,3.0281,3.0509,3.0154,2.8558,2.5623,2.4608,2.3761,2.2986,2.227,2.1189,1.9895,1.9321,1.8753,1.8237,1.8237,1.8237,1.8237,1.8237,1.8125,0.0,1.7915,1.7706,1.7293,1.7293,1.7074,1.6784,1.6784,1.6689,1.6554,0.0,0.0,0.0,0.0,0.0,0.0,0.0,1.7796,1.8103,1.845,1.8731,1.9011,1.9361,1.9415,1.9548,1.9813,0.0,0.0,0.0,0.0,0.0,0.0,0.0,0.0,2.1109,2.1109,2.0964,2.0641,1.9933,1.9209,1.8466,1.708,1.6215,1.5808,1.4488,1.3646,0.0,0.0,0.0,0.0,1.1665,1.1911,0.0,0.0,0.0,0.0,0.0,0.0,0.0,0.0,0.0,0.0,0.0,0.0,0.0,0.0,0.0,0.0,0.0,1.6046,1.6543,1.6076,1.6239,1.646,1.6302,1.6542,0.0,1.6412,1.6859,1.723,1.7101,1.7165,1.7288,1.7244,1.734,1.781,1.8982,2.0281,2.2562,2.658,2.8992,3.0444,3.0716,3.1401,3.1889,3.1996,3.1996,3.1875,3.1555,3.1328,3.11,3.073,2.8973,2.7469,2.6303,2.5182,2.379,2.2184,2.1509,2.0937,2.0424,2.0424,2.0424,0.0,2.0424,2.0103,1.9626,1.9574,1.8903,1.7863,1.7811,1.7444,1.6978,1.6978,1.689,1.6716,0.0,0.0,0.0,0.0,0.0,0.0,0.0,0.0,0.0,0.0,1.8544,1.8784,1.9348,1.9559,1.9813,0.0,0.0,0.0,0.0,0.0,0.0,0.0,0.0,0.0,2.1109,2.1109,2.1025,2.0896,2.0488,2.0026,1.9528,1.8942,1.8161,1.7263,1.6392,1.4851,0.0,0.0,0.0,0.0,1.1592,1.1823,0.0,0.0,0.0,0.0,1.3081,1.3554,0.0,0.0,0.0,0.0,0.0,0.0,0.0,0.0,1.7308,1.728,1.6355,0.0,1.7026,1.6529,1.7031,1.7522,0.0,1.7823,1.8462,1.806,1.8645,1.9099,1.8749,1.8994,1.9117,1.8768,1.9499,2.0429,2.1431,2.4072,2.6767,2.9205,3.0303,3.1123,3.1834,3.2197,3.2782,3.3644,3.3697,3.3793,3.3981,3.3693,3.3406,3.3119,3.2047,3.0329,2.8042,2.6508,2.5069,2.3822,2.284,2.2115,2.1604,2.1604,2.1604,2.1604,2.1604,2.1284,2.0712,2.0296,1.9417,1.838,1.7968,1.7444,1.6978,1.6978,1.6958,1.6924,0.0,0.0,0.0,0.0,0.0,0.0,0.0,0.0,0.0,0.0,0.0,0.0,0.0,0.0,0.0,0.0,0.0,0.0,0.0,0.0,0.0,0.0,0.0,2.1014,2.0856,2.0856,2.0776,2.058,2.0642,2.0547,2.0319,2.0223,1.9679,1.8669,1.708,1.5163,0.0,0.0,0.0,1.1504,1.1586,0.0,0.0,0.0,0.0,0.0,1.339,1.394,0.0,1.4995,1.6045,1.7232,0.0,0.0,0.0,0.0,1.7713,1.7628,1.6974,1.7188,1.7599,1.763,1.8339,1.8995,1.8952,1.9653,2.0226,1.9957,2.0484,2.1041,2.1132,2.1152,2.1192,2.1292,2.1666,2.2621,2.4524,2.7293,2.9811,3.1565,3.2363,3.3003,3.3546,3.3713,3.4068,3.4663,3.4597,3.4556,3.4576,3.4282,3.3988,3.3681,3.2954,3.1806,3.0088,2.8705,2.7572,2.6691,2.581,2.5245,2.4988,2.4988,2.4988,2.4988,2.4731,2.4174,2.3357,2.2529,2.1241,1.9686,1.9172,1.8282,1.7346,1.7346,1.7188,1.6978,0.0,0.0,0.0,0.0,0.0,0.0,0.0,0.0,0.0,0.0,0.0,0.0,0.0,0.0,0.0,0.0,0.0,0.0,0.0,0.0,0.0,0.0,2.0856,2.0729,2.0443,2.038,2.0272,2.0073,2.0545,2.0793,2.0845,2.1,2.0533,1.9444,1.6882,1.4928,0.0,0.0,0.0,1.1584,1.1584,0.0,0.0,0.0,0.0,0.0,0.0,0.0,0.0,1.5764,1.6738,1.7736,1.8394,0.0,0.0,0.0,0.0,0.0,1.7764,1.8117,1.8687,1.9136,2.0009,2.087,2.1171,2.163,2.197,2.1842,2.2235,2.2832,2.3525,2.342,2.3433,2.4148,2.4096,2.497,2.7795,3.0027,3.1937,3.3444,3.4317,3.4936,3.5164,3.5191,3.5177,3.5137,3.491,3.4616,3.4269,3.4015,3.3748,3.3427,3.2963,3.2511,3.2071,3.0898,3.0088,2.962,2.9038,2.8783,2.8783,2.8783,2.8783,2.8733,0.0,0.0,2.6251,2.5182,2.3479,2.1405,2.0789,1.9634,1.8275,1.823,1.7863,1.7346,0.0,0.0,0.0,0.0,0.0,0.0,0.0,0.0,0.0,0.0,0.0,0.0,0.0,0.0,0.0,0.0,0.0,0.0,0.0,0.0,0.0,1.9424,1.9679,1.9794,1.9731,1.9488,1.9516,1.9935,2.0184,2.0529,2.0966,2.0888,1.9789,1.7873,1.5977,1.4451,1.3286,0.0,0.0,1.1584,1.1584,0.0,0.0,0.0,0.0,0.0,0.0,0.0,0.0,1.4892,1.6027,1.7293,1.7905,0.0,0.0,0.0,0.0,0.0,1.9031,2.0303,2.15,2.1055,2.2182,2.3297,2.2777,2.3284,2.3664,2.2925,2.3422,2.4194,2.4811,2.5197,2.5612,2.6145,2.7336,2.8783,3.0571,3.1749,3.2893,3.4023,3.4524,3.4936,3.5164,3.5191,3.5097,3.4909,3.4842,3.4523,3.3975,3.3908,3.3748,3.3427,3.3314,3.3263,3.3163,3.1655,3.086,3.0759,3.0189,2.9924,2.9924,2.9924,2.9924,2.9924,0.0,2.8512,2.7389,2.6303,2.4812,2.3117,2.2132,2.1241,2.0556,2.0103,1.9582,1.9007,0.0,0.0,0.0,0.0,0.0,0.0,0.0,0.0,0.0,0.0,0.0,0.0,0.0,0.0,0.0,0.0,0.0,0.0,0.0,0.0,1.8964,1.8258,1.7636,1.7604,1.8194,1.817,1.8114,1.8071,1.8822,1.9224,1.9274,1.884,1.8004,1.6804,1.5167,1.3896,1.3003,1.2445,1.2028,1.1692,0.0,0.0,0.0,0.0,0.0,0.0,0.0,0.0,0.0,0.0,1.584,1.6799,1.7706,0.0,0.0,0.0,0.0,0.0,2.0282,2.1921,2.3645,2.3791,2.44,2.4969,2.4879,2.5149,2.5317,2.4909,2.5149,2.5699,2.6499,2.6766,2.714,2.7999,2.9529,3.0886,3.1751,3.2715,3.3641,3.4482,3.4735,3.4936,3.5164,3.5057,3.491,3.4829,3.4521,3.4175,3.3895,3.3721,3.3561,3.3414,3.3414,3.3414,3.3414,3.2662,3.231,3.231,3.2058,3.1958,3.1958,3.1958,3.1958,3.1894,0.0,3.0252,2.9377,2.7991,2.661,2.5327,2.4503,2.3512,2.2313,2.1189,2.0408,1.9783,0.0,0.0,0.0,0.0,0.0,0.0,0.0,0.0,0.0,0.0,0.0,0.0,0.0,0.0,0.0,0.0,0.0,0.0,0.0,1.8249,1.7676,1.6818,1.5661,1.5528,1.6524,1.6559,1.6416,1.6133,1.7097,1.7458,1.7285,1.6563,1.6085,1.5653,1.4167,1.319,1.2653,1.2266,1.1989,1.1786,0.0,0.0,0.0,0.0,0.0,0.0,0.0,0.0,0.0,0.0,0.0,0.0,0.0,0.0,0.0,1.8736,1.9835,2.1011,2.1526,2.3313,2.5211,2.5959,2.6169,2.6268,2.6604,2.6645,2.6671,2.6609,2.6706,2.7041,2.7952,2.8328,2.8841,2.986,3.122,3.2274,3.2613,3.3519,3.4255,3.4762,3.4882,3.4923,3.5084,3.4949,3.4762,3.4628,3.4148,3.3855,3.3788,3.3547,3.3414,3.3414,3.3414,3.3414,3.3414,3.3414,3.3414,3.3414,3.3414,3.3414,3.3414,3.3414,3.3414,3.3364,3.241,3.1668,3.1062,2.9733,2.8563,2.7634,2.7071,2.5933,2.438,2.2676,2.1648,2.0877,0.0,0.0,0.0,0.0,0.0,0.0,0.0,0.0,0.0,0.0,0.0,0.0,0.0,0.0,0.0,0.0,0.0,0.0,0.0,1.657,1.5838,1.4665,1.4226,1.4382,1.5229,1.4648,1.4556,1.5017,1.5292,1.5534,1.5743,1.4998,1.4469,1.4009,1.2837,1.2302,1.2201,1.1944,1.1823,1.1807,1.1979,0.0,0.0,0.0,0.0,0.0,0.0,0.0,0.0,0.0,0.0,0.0,0.0,0.0,1.7732,1.8909,2.0485,2.197,2.2814,2.4557,2.618,2.6481,2.6989,2.7405,2.7405,2.7405,2.7399,2.7273,2.7594,2.8065,2.8639,2.995,3.1182,3.1808,3.2674,3.338,3.3737,3.4336,3.4762,3.4815,3.5004,3.507,3.4869,3.4829,3.4588,3.3988,3.3908,3.3761,3.3467,3.3427,3.3414,3.3414,3.3414,3.3414,3.3414,3.3414,3.3414,3.3414,3.3414,3.3414,3.3414,3.3414,3.3414,3.3364,3.2812,3.2259,3.1718,3.1062,3.0506,2.9936,2.9366,2.8439,2.7214,2.5574,2.4296,2.3004,0.0,0.0,0.0,0.0,0.0,0.0,0.0,0.0,0.0,0.0,0.0,0.0,0.0,0.0,0.0,0.0,0.0,0.0,0.0,1.5088,1.4438,1.3464,1.289,1.2729,1.2974,1.3186,1.3418,1.3734,1.4093,1.4398,1.4637,1.3769,1.323,1.2971,1.2178,1.1835,1.1849,1.1805,1.1884,1.1979,1.2077,1.2159,0.0,0.0,0.0,0.0,0.0,0.0,0.0,0.0,1.3785,1.4458,1.5473,1.6709,1.8051,1.9357,2.1173,2.2895,2.3776,2.5268,2.6652,2.6943,2.7501,2.8032,2.836,2.8453,2.8542,2.8828,2.9066,2.9318,2.9716,3.0537,3.1423,3.2011,3.2853,3.3534,3.3841,3.4229,3.4482,3.4482,3.4589,3.4603,3.4496,3.4322,3.4135,3.3908,3.3708,3.3534,3.3414,3.3414,3.3414,3.3414,3.3414,3.3414,3.3414,3.3414,3.3414,3.3414,3.3414,3.3414,3.3414,3.3414,3.3414,3.3364,3.2812,3.2461,3.2259,3.1718,3.1365,3.1151,3.0595,2.9936,2.9061,2.7378,2.5635,2.3832,0.0,0.0,0.0,0.0,0.0,0.0,0.0,0.0,0.0,0.0,0.0,0.0,0.0,0.0,0.0,0.0,0.0,0.0,1.406,1.3604,1.303,1.2269,1.1846,1.1576,1.1468,1.1998,1.2431,1.2714,1.3103,1.3386,1.3529,1.2848,1.2423,1.2269,1.1789,1.1584,1.159,1.1732,1.1891,1.1993,1.2077,1.2132,0.0,0.0,0.0,0.0,0.0,0.0,0.0,0.0,1.3742,1.4491,1.557,1.6982,1.8491,2.012,2.1874,2.3508,2.4602,2.5698,2.6667,2.7188,2.7684,2.8272,2.9068,2.9392,2.9619,3.0207,3.0327,3.0394,3.0595,3.1102,3.169,3.2291,3.304,3.3668,3.3975,3.4189,3.4322,3.4322,3.4322,3.4282,3.4189,3.4002,3.3841,3.3748,3.3534,3.3414,3.3414,3.3414,3.3414,3.3414,3.3414,3.3414,3.3414,3.3414,3.3414,3.3414,3.3414,3.3414,3.3414,3.3414,3.3414,3.3364,3.3013,3.2862,3.2812,3.2461,3.231,3.2259,3.1907,3.1302,3.0544,2.9022,2.7071,2.4905,0.0,0.0,0.0,0.0,0.0,0.0,0.0,0.0,0.0,0.0,0.0,0.0,0.0,0.0,0.0,0.0,0.0,0.0,1.2513,1.2042,1.155,1.1038,1.1129,1.1092,1.0914,1.109,1.1499,1.2098,1.2352,1.2427,1.2284,1.2166,1.1979,1.1786,1.1644,1.1584,1.159,1.1732,1.1793,1.1807,1.2036,1.1972,1.1793,0.0,0.0,0.0,0.0,0.0,0.0,0.0,1.3647,1.4548,1.5822,1.732,1.9053,2.1284,2.2641,2.3766,2.5358,2.5898,2.6212,2.7081,2.7495,2.8096,2.9579,3.0154,3.0574,3.1116,3.1189,3.1236,3.1236,3.1717,3.2291,3.2879,3.348,3.3975,3.4269,3.4309,3.4309,3.4309,3.4309,3.4202,3.3908,3.3881,3.3748,3.3427,3.3414,3.3414,3.3414,3.3414,3.3414,3.3414,3.3414,3.3414,3.3414,3.3414,3.3414,3.3414,3.34,3.3414,3.3414,3.3414,3.3414,3.3414,3.3414,3.3414,3.3414,3.3414,3.3414,3.3414,3.3414,3.2762,3.1668,3.0595,2.8806,2.661,0.0,0.0,0.0,0.0,0.0,0.0,0.0,0.0,0.0,0.0,0.0,0.0,0.0,0.0,0.0,0.0,0.0,0.0,1.1495,1.1083,1.0798,1.0674,1.0697,1.0783,1.0907,1.1266,1.1619,1.1898,1.2094,1.2115,1.1965,1.1918,1.1823,1.1644,1.1604,1.1584,1.159,1.1732,1.1793,1.1807,1.2036,1.207,0.0,0.0,0.0,0.0,0.0,0.0,0.0,0.0,0.0,0.0,1.7284,1.8991,2.0758,2.2372,2.3636,2.4752,2.5568,2.6043,2.6466,2.7135,2.7802,2.8617,2.9673,3.0301,3.0942,3.1992,3.1984,3.1837,3.1837,3.1984,3.2225,3.2661,3.3049,3.3347,3.3641,3.3681,3.3681,3.3681,3.3681,3.3654,3.3561,3.3547,3.3507,3.3414,3.3414,3.3414,3.3414,3.3414,3.3414,3.3414,3.3414,3.3414,3.3414,3.3213,3.3106,3.3106,3.2955,3.3013,3.3414,3.3414,3.3414,3.3414,3.3414,3.3414,3.3414,3.3414,3.3414,3.3414,3.3414,3.2963,3.2259,3.1554,2.9924,2.7867,0.0,0.0,0.0,0.0,0.0,0.0,0.0,0.0,0.0,0.0,1.3006,0.0,0.0,0.0,0.0,0.0,0.0,0.0,0.0,1.0445,1.0343,1.0431,1.046,1.0663,1.1023,1.1362,1.1599,1.1712,1.1996,1.1979,1.1793,1.1793,1.1719,1.1584,1.1584,1.1584,1.1626,1.1671,1.1712,1.1719,1.185,1.1918,1.1972,0.0,0.0,0.0,0.0,0.0,0.0,0.0,0.0,0.0,1.8906,2.0609,2.2252,2.3576,2.4539,2.532,2.5872,2.6228,2.656,2.7255,2.811,2.9125,3.0474,3.1156,3.1764,3.2594,3.2621,3.2412,3.2305,3.2372,3.2505,3.2741,3.2959,3.3213,3.3387,3.3414,3.3414,3.3414,3.3414,3.3414,3.3414,3.3414,3.3414,3.3414,3.3414,3.3414,3.3414,3.3414,3.336,3.324,3.324,3.3187,3.3066,3.2942,3.2848,3.2848,3.2674,3.2781,3.3066,3.3066,3.3066,3.3066,3.3187,3.3307,3.3414,3.3414,3.3414,3.3414,3.3414,3.3063,3.2561,3.2259,3.0987,2.9405,0.0,0.0,0.0,0.0,0.0,0.0,0.0,0.0,0.0,0.0,1.1812,1.1639,0.0,0.0,0.0,0.0,0.0,0.0,0.0,1.0088,1.0089,1.0308,1.0439,1.0738,1.1206,1.1356,1.1463,1.1584,1.1928,1.1952,1.1773,1.1773,1.1705,1.1584,1.1584,1.1584,1.1584,1.1584,1.1584,1.1584,1.1584,1.1678,1.1813,1.1813,0.0,0.0,0.0,0.0,0.0,0.0,0.0,0.0,2.0564,2.2134,2.3516,2.4775,2.5243,2.5505,2.6254,2.6453,2.668,2.7562,2.8511,2.9708,3.1704,3.242,3.2714,3.2959,3.3013,3.2933,3.2728,3.2888,3.3013,3.3013,3.324,3.3414,3.3414,3.3414,3.3414,3.3414,3.3414,3.3414,3.3414,3.3414,3.3414,3.3414,3.3414,3.34,3.3374,3.3374,3.324,3.2946,3.2933,3.2862,3.2594,3.2567,3.2554,3.2554,3.2527,3.2514,3.2514,3.2567,3.2594,3.2607,3.2875,3.3106,3.3374,3.3374,3.3387,3.3414,3.3387,3.3087,3.2662,3.2635,3.1995,3.1062,0.0,0.0,0.0,0.0,0.0,0.0,0.0,0.0,0.0,0.0,0.0,0.0,0.0,0.0,0.0,0.0,0.0,0.0,0.0,0.9964,1.0089,1.0308,1.0643,1.0968,1.1335,1.1375,1.1463,1.1584,1.1681,1.1694,1.1631,1.1631,1.1611,1.1584,1.1584,1.1584,1.1584,1.1584,1.1584,1.1584,1.1584,1.1775,1.205,1.205,1.2402,0.0,0.0,0.0,0.0,0.0,0.0,0.0,2.1772,2.3086,2.4132,2.5023,2.5531,2.5987,2.6547,2.6894,2.7336,2.819,2.9593,3.1049,3.2233,3.2728,3.2973,3.3253,3.332,3.3293,3.324,3.328,3.332,3.332,3.3374,3.3414,3.3414,3.3414,3.3414,3.3414,3.3414,3.3414,3.3414,3.3414,3.3414,3.3414,3.3414,3.3307,3.308,3.3066,3.2933,3.2701,3.2688,3.2661,3.2594,3.2367,3.2198,3.2198,3.1971,3.1912,3.1925,3.238,3.2594,3.2594,3.2661,3.2848,3.3066,3.3066,3.32,3.3387,3.316,3.3164,3.3187,3.3011,3.2615,3.2259,0.0,0.0,0.0,0.0,0.0,0.0,0.0,0.0,0.0,0.0,0.0,0.0,0.0,0.0,0.0,0.0,0.0,0.0,0.0,0.0,1.015,1.048,1.0853,1.1158,1.1389,1.1463,1.1504,1.1511,1.1586,1.1584,1.1584,1.1584,1.1584,1.1584,1.1584,1.1543,1.1511,1.1586,1.1579,1.1518,1.1556,1.1864,1.2254,1.2368,1.2882,1.3671,1.4368,0.0,0.0,0.0,0.0,0.0,0.0,0.0,2.4675,2.5438,2.579,2.6118,2.6667,2.7134,2.7789,2.9112,3.0555,3.1797,3.246,3.2929,3.3227,3.3374,3.3414,3.3414,3.3414,3.3414,3.3414,3.3414,3.3414,3.3414,3.3414,3.3414,3.3414,3.3414,3.3414,3.3414,3.3414,3.3414,3.3414,3.3414,3.328,3.3133,3.2986,3.2888,3.2688,3.2393,3.238,3.2313,3.2179,3.2019,3.1891,3.1891,3.1791,3.1711,3.1724,3.2032,3.2246,3.238,3.238,3.2554,3.2822,3.2822,3.2915,3.2986,3.2875,3.2915,3.3,3.2986,3.2931,3.2828,0.0,0.0,0.0,0.0,0.0,0.0,0.0,0.0,0.0,0.0,0.0,0.0,0.0,0.0,0.0,0.0,0.0,0.0,0.0,0.0,0.0,1.0711,1.0995,1.1234,1.1348,1.1477,1.1477,1.1355,1.1504,1.1592,1.1584,1.1611,1.1604,1.1584,1.1611,1.1572,1.1436,1.1565,1.1581,1.1549,1.1673,1.207,1.2612,1.286,1.3573,1.4563,1.5578,1.678,1.81,1.99,0.0,0.0,0.0,0.0,2.4992,2.5641,2.5877,2.6038,2.6587,2.7321,2.8323,2.9998,3.1236,3.2185,3.2527,3.2986,3.34,3.3347,3.3374,3.3414,3.3414,3.3414,3.3414,3.3414,3.3374,3.3334,3.3334,3.3334,3.3334,3.3334,3.3387,3.3387,3.3347,3.3334,3.332,3.3267,3.304,3.2929,3.2826,3.2648,3.238,3.2038,3.2024,3.1904,3.1724,3.1711,3.1711,3.1711,3.1711,3.1711,3.1711,3.1711,3.1797,3.2024,3.2024,3.2198,3.2514,3.2514,3.2541,3.2594,3.2541,3.2581,3.2688,3.2888,3.2973,3.3093,0.0,0.0,0.0,0.0,0.0,0.0,0.0,0.0,0.0,0.0,0.0,0.0,0.0,0.0,0.0,0.0,0.0,0.0,0.9977,0.0,0.0,1.0874,1.0921,1.1043,1.1227,1.1247,1.1247,1.1227,1.1348,1.1491,1.1584,1.1705,1.1698,1.1626,1.1712,1.1685,1.1556,1.1577,1.1785,1.2094,1.2115,1.2648,1.348,1.3788,1.4705,1.5972,1.702,1.8394,1.9872,2.1292,2.2413,0.0,0.0,0.0,2.4735,2.5104,2.5371,2.5705,2.6293,2.7629,2.9098,3.0159,3.1236,3.2185,3.2527,3.2986,3.3334,3.3093,3.324,3.3414,3.3414,3.3414,3.3414,3.3414,3.32,3.304,3.304,3.304,3.304,3.304,3.3253,3.332,3.3066,3.304,3.2982,3.2728,3.2674,3.2541,3.2238,3.2185,3.2024,3.1744,3.173,3.1751,3.1711,3.1711,3.1711,3.1711,3.1711,3.1711,3.1711,3.1711,3.1738,3.173,3.173,3.1891,3.2158,3.2158,3.2367,3.2567,3.2265,3.2478,3.2942,3.2728,3.2969,3.336,0.0,0.0,0.0,0.0,0.0,0.0,0.0,0.0,0.0,0.0,0.0,0.0,0.0,0.0,0.0,0.9792,0.9792,0.9893,1.0161,1.0378,1.0629,1.0901,1.0914,1.0982,1.1193,1.12,1.1124,1.1043,1.1274,1.1423,1.1497,1.1898,1.2013,1.187,1.1932,1.1877,1.1735,1.1953,0.0,0.0,0.0,0.0,1.4772,1.5236,1.6302,0.0,0.0,0.0,0.0,2.2188,2.3079,2.3809,2.419,0.0,0.0,0.0,2.5037,2.5464,2.6386,2.7696,2.9005,2.9887,3.0996,3.1984,3.2487,3.2795,3.2982,3.2973,3.2946,3.2933,3.2933,3.2933,3.2933,3.2933,3.2875,3.2781,3.2781,3.2781,3.2781,3.2781,3.2902,3.2929,3.2795,3.2781,3.2728,3.2607,3.2433,3.2238,3.2104,3.1944,3.173,3.1423,3.1423,3.1343,3.1183,3.1183,3.1263,3.1423,3.1583,3.1711,3.1711,3.1711,3.1711,3.1711,3.1711,3.1791,3.1864,3.1864,3.1944,3.2086,3.1917,3.2118,3.2492,3.2581,3.2862,3.3187,0.0,0.0,0.0,0.0,0.0,0.0,0.0,0.0,0.0,0.0,0.0,0.0,0.0,0.0,0.0,0.0,0.9792,0.9951,1.0295,1.0444,1.0609,1.0846,1.086,1.0907,1.1084,1.1084,1.0995,1.086,1.1185,1.1375,1.1463,1.1986,1.221,1.2213,1.2213,1.2142,1.2038,1.24,0.0,0.0,0.0,0.0,0.0,0.0,0.0,0.0,0.0,0.0,0.0,0.0,0.0,0.0,2.406,2.4249,0.0,0.0,0.0,2.5184,2.6213,2.7308,2.839,2.9339,3.0461,3.1564,3.2219,3.2487,3.2634,3.2732,3.2634,3.246,3.238,3.2487,3.2594,3.2594,3.2527,3.2487,3.2487,3.2487,3.2487,3.2487,3.2554,3.2567,3.2487,3.2487,3.2447,3.238,3.2118,3.1998,3.1998,3.1717,3.145,3.1236,3.1156,3.1009,3.0795,3.0795,3.0902,3.1116,3.1343,3.145,3.145,3.1517,3.1557,3.1557,3.1684,3.1711,3.1711,3.1711,3.1711,3.1711,3.1711,3.1938,3.2238,3.2514,3.2822,3.312,0.0,0.0,0.0,0.0,0.0,0.0,0.0,0.0,0.0,0.0,0.0,0.0,0.9792,0.9792,0.9792,0.9792,0.9792,0.9951,1.0295,1.0444,1.0561,1.0691,1.0698,0.0,1.0744,1.0744,1.0704,1.0698,1.1063,1.1321,1.1613,1.1962,1.2254,1.2481,1.2481,1.2547,1.2673,1.289,0.0,0.0,0.0,0.0,0.0,0.0,0.0,0.0,0.0,0.0,0.0,0.0,0.0,0.0,0.0,0.0,2.3843,0.0,0.0,0.0,2.5411,2.6239,2.7201,2.8377,2.9566,3.0694,3.1564,3.2193,3.2514,3.2198,3.2131,3.2038,3.177,3.2219,3.2594,3.2594,3.2305,3.2131,3.2131,3.2131,3.2131,3.2131,3.242,3.2487,3.2158,3.2131,3.2011,3.1778,3.1751,3.1738,3.1738,3.141,3.1236,3.1176,3.0955,3.0808,3.0795,3.0795,3.0795,3.0808,3.0835,3.0835,3.0849,3.1116,3.1249,3.1263,3.1543,3.1711,3.1711,3.1711,3.1711,3.1711,3.1711,3.2072,3.2567,3.2581,3.2955,3.3387,0.0,0.0,0.0,0.0,0.0,0.0,0.0,0.0,0.0,0.0,0.0,0.0,0.0,0.9792,0.9792,0.9792,0.9879,1.0028,1.0263,1.0444,1.0561,1.0677,1.0684,1.0684,1.0684,1.0684,1.0684,1.0684,1.105,1.1302,1.1484,1.1979,1.2416,1.2741,1.2846,1.2909,1.3018,1.4062,0.0,0.0,0.0,0.0,0.0,0.0,0.0,0.0,0.0,0.0,0.0,0.0,0.0,0.0,0.0,0.0,0.0,2.3803,2.395,2.4209,2.4759,2.5598,2.6547,2.7736,2.8925,3.0065,3.0902,3.141,3.1717,3.181,3.1824,3.1797,3.1738,3.1885,3.2032,3.2032,3.1938,3.1824,3.1824,3.1824,3.1824,3.1824,3.1744,3.173,3.181,3.165,3.157,3.1711,3.1711,3.1631,3.1396,3.1289,3.1049,3.0675,3.0568,3.0421,3.0234,3.0421,3.056,3.056,3.0702,3.0795,3.0795,3.0902,3.1049,3.1236,3.1343,3.149,3.1711,3.1711,3.1711,3.1711,3.1711,3.2072,3.2594,3.2594,3.2969,3.3414,0.0,0.0,0.0,0.0,0.0,0.0,0.0,0.0,0.0,0.9978,0.0,0.0,0.0,0.0,0.9978,0.9978,1.0035,1.0188,1.0376,1.0439,1.0561,1.0677,1.0684,1.0684,1.0684,1.0684,1.0684,1.0684,1.0968,1.1165,1.1363,1.1976,1.2499,1.296,1.3498,1.3755,1.3915,0.0,0.0,1.6915,0.0,0.0,2.0405,0.0,0.0,0.0,0.0,0.0,0.0,0.0,0.0,0.0,0.0,0.0,0.0,0.0,0.0,2.3701,2.4052,2.4836,2.5772,2.6841,2.7936,2.8991,2.998,3.0434,3.0755,3.1189,3.135,3.141,3.1503,3.1597,3.1711,3.1711,3.1711,3.1711,3.1711,3.1711,3.1711,3.1711,3.141,3.1343,3.1684,3.1396,3.1343,3.165,3.1583,3.1436,3.1189,3.1036,3.0675,3.0132,3.0212,3.0074,2.978,3.006,3.0207,3.0207,3.0408,3.0501,3.0501,3.0595,3.0808,3.1089,3.1183,3.1396,3.1711,3.1711,3.1711,3.1711,3.1711,3.2072,3.2594,3.2594,3.2969,3.3414,0.0,0.0,0.0,0.0,0.0,0.0,0.0,0.0,0.0,1.0315,0.0,0.0,0.0,0.0,0.0,1.0322,1.0322,1.0383,1.048,1.0493,1.0568,1.0677,1.0684,1.0684,1.0684,1.0684,1.0684,1.0684,1.084,1.1023,1.1234,1.1896,1.2482,1.3108,1.4416,1.5108,1.5373,0.0,1.7502,1.8256,0.0,2.044,2.09,0.0,0.0,0.0,2.2458,2.2645,0.0,0.0,0.0,0.0,0.0,0.0,0.0,0.0,0.0,0.0,0.0,0.0,0.0,2.5743,2.6626,2.759,2.8681,2.9232,2.9619,3.0266,3.0568,3.0862,3.1156,3.145,3.1684,3.1684,3.1711,3.1711,3.1711,3.1711,3.1711,3.1711,3.141,3.1343,3.1684,3.1396,3.1343,3.1684,3.1383,3.1162,3.1196,3.0662,3.0132,2.9499,2.9753,2.9766,2.9472,2.9753,2.9887,2.9887,2.9887,2.99,2.9913,3.0253,3.0547,3.0795,3.1089,3.1383,3.1711,3.1711,3.1711,3.1711,3.1711,3.2072,3.2594,3.2594,3.2969,3.3414,0.0,0.0,0.0,0.0,0.0,0.0,1.0315,1.0315,1.0315,0.0,0.0,0.0,1.0315,1.0403,1.0432,1.0432,1.0534,1.0568,1.0493,1.0595,1.0677,1.0684,1.0684,1.0684,1.0684,1.0684,1.0684,1.0684,1.084,1.107,1.1424,1.2048,1.2851,1.3853,1.5141,1.6247,1.7208,1.7844,0.0,1.9041,2.058,2.1309,0.0,0.0,0.0,0.0,0.0,2.3482,0.0,0.0,2.338,2.3153,0.0,0.0,0.0,0.0,0.0,0.0,2.326,0.0,0.0,0.0,0.0,0.0,2.7589,2.8323,2.9018,2.9606,3.0172,3.0568,3.0862,3.0982,3.1036,3.1036,3.1443,3.1711,3.1711,3.1711,3.1711,3.1711,3.141,3.1343,3.1684,3.1209,3.1036,3.133,3.1076,3.0822,3.0608,3.0247,2.9873,2.9499,2.9566,2.9459,2.9121,2.9202,2.9242,2.9242,2.9242,2.9392,2.9606,2.9686,3.0052,3.0547,3.0782,3.1076,3.137,3.1583,3.1711,3.1711,3.1711,3.2072,3.2594,3.2594,3.2969,3.3414,0.0,0.0,0.0,0.0,0.0,1.0466,1.0466,1.0466,1.0466,0.0,0.0,0.0,1.0676,1.0757,1.0805,1.0805,1.0799,1.0745,1.0657,1.0704,1.0684,1.0684,1.0684,1.0684,1.0684,1.0684,1.075,1.0916,1.0979,1.1289,1.1866,1.2562,1.3477,1.461,1.6052,1.7358,1.8517,0.0,0.0,0.0,2.1459,0.0,0.0,2.2852,2.314,0.0,0.0,0.0,2.3607,2.3763,2.3581,0.0,0.0,0.0,0.0,0.0,0.0,0.0,0.0,0.0,0.0,0.0,0.0,0.0,2.6626,2.7215,2.7843,2.8473,2.9169,2.9713,3.0007,3.0261,3.0474,3.0595,3.0948,3.1256,3.145,3.149,3.153,3.1698,3.141,3.1343,3.1684,3.1142,3.0915,3.1162,3.0849,3.0488,3.0194,3.0007,2.9726,2.9312,2.9419,2.9285,2.8815,2.8935,2.9001,2.9001,2.9001,2.9081,2.9299,2.9432,2.974,3.0194,3.0608,3.0955,3.1249,3.1543,3.1711,3.1711,3.1711,3.2072,3.2594,3.2594,3.2969,3.3414,0.0,0.0,1.0684,1.0684,1.0698,1.0711,1.0711,1.0725,1.0772,0.0,1.0867,1.1022,1.1234,1.1247,1.1247,1.1247,1.1063,1.0934,1.0914,1.0772,1.0684,1.0684,1.0684,1.0684,1.0684,1.075,1.0883,1.1214,1.128,1.1677,1.2379,1.3261,1.4263,1.5371,1.6938,1.8262,1.9374,0.0,0.0,2.1014,2.2164,2.2484,0.0,0.0,2.2974,0.0,2.3313,2.3412,2.3479,2.3741,2.3647,0.0,0.0,0.0,0.0,0.0,2.3,0.0,0.0,0.0,0.0,0.0,0.0,0.0,2.577,2.6118,2.6453,2.7081,2.7856,2.8551,2.8788,2.9295,2.982,3.0159,3.0212,3.0408,3.1129,3.1176,3.133,3.1684,3.141,3.133,3.1644,3.1089,3.0849,3.1116,3.0621,3.0181,2.9887,2.9873,2.9593,2.8961,2.9245,2.9125,2.8564,2.8775,2.8895,2.8895,2.8895,2.8908,2.8961,2.9272,2.9566,2.99,3.0448,3.0875,3.1196,3.149,3.1684,3.1711,3.1711,3.2059,3.2541,3.2541,3.2888,3.332,0.0,1.0684,1.0684,1.0684,1.0786,1.0874,1.0874,1.1002,1.1111,1.1111,1.1212,1.1362,1.1511,1.1531,1.1531,1.1531,1.128,1.107,1.0921,1.0772,1.0684,1.0684,1.0684,1.0684,1.0684,1.0949,1.1115,1.1214,1.1776,1.2305,1.2741,1.3754,1.4824,1.5904,1.7315,1.8538,1.9596,2.0488,0.0,2.1766,2.1987,0.0,2.2371,2.3001,2.338,2.3669,2.3928,2.4146,2.4319,0.0,2.4075,2.3981,0.0,0.0,0.0,0.0,0.0,0.0,0.0,0.0,0.0,0.0,0.0,0.0,2.5208,2.5478,2.5852,2.644,2.7122,2.7657,2.7909,2.8257,2.8634,2.8898,2.8951,2.9486,3.1009,3.1176,3.133,3.1684,3.141,3.1249,3.1303,3.0782,3.052,3.0574,3.0207,2.9873,2.9579,2.9566,2.9299,2.8711,2.8751,2.8604,2.8272,2.8326,2.8366,2.8366,2.8366,2.8457,2.8698,2.8751,2.9072,2.9593,2.994,3.0381,3.0902,3.1196,3.145,3.1711,3.1711,3.1877,3.2185,3.2185,3.2412,3.2795,1.0684,1.0684,1.0684,1.0684,1.0813,1.0914,1.0914,1.107,1.12,1.12,1.1362,1.1592,1.1816,1.1843,1.1809,1.1698,1.1518,1.1294,1.107,1.088,1.0765,1.0691,1.085,1.0949,1.0949,1.1314,1.1644,1.2008,1.2568,1.3194,1.3884,1.4954,1.5899,1.6818,1.8162,1.92,1.9928,2.0883,2.1561,2.2017,2.2097,0.0,2.2659,2.3137,2.3385,2.3607,2.4048,2.4359,2.4559,2.4302,2.4209,0.0,0.0,2.3803,2.3803,0.0,2.3803,2.387,0.0,0.0,0.0,2.4609,0.0,0.0,0.0,2.4863,2.5157,2.5451,2.5985,2.648,2.6814,2.7108,2.7456,2.7869,2.8056,2.8617,2.9909,3.0349,3.0742,3.1183,3.1102,3.0955,3.0808,3.0394,3.0087,2.9972,2.978,2.9633,2.9486,2.9486,2.9219,2.8631,2.8604,2.8457,2.8192,2.8179,2.8179,2.8179,2.8179,2.8272,2.8419,2.8537,2.8845,2.9285,2.9726,3.0247,3.0808,3.1102,3.1396,3.1711,3.1711,3.1851,3.2104,3.2104,3.2291,3.2621,1.0684,1.0684,1.0698,1.0725,1.0853,1.0968,1.0995,1.1158,1.1295,1.1322,1.1558,1.1843,1.2118,0.0,0.0,0.0,1.1698,1.1511,0.0,0.0,1.086,1.0738,1.1036,1.1214,1.1214,1.171,1.2305,1.2931,1.3416,1.417,1.5127,1.6126,1.7001,1.7787,1.904,1.9807,2.0246,2.1205,2.1756,2.2004,0.0,2.2592,2.2934,2.3207,2.3332,2.3452,2.4075,2.4436,2.4559,2.4369,0.0,2.4249,2.4111,2.4058,0.0,0.0,0.0,0.0,0.0,0.0,0.0,0.0,0.0,2.485,0.0,0.0,0.0,2.4506,2.4933,2.5438,2.577,2.6065,2.64,2.6961,2.7255,2.7736,2.8577,2.9152,2.9766,3.0528,3.0568,3.0448,3.0266,2.9927,2.9646,2.9419,2.9392,2.9379,2.9325,2.9312,2.9072,2.8537,2.8524,2.8433,2.8192,2.8179,2.8179,2.8179,2.8179,2.8179,2.8192,2.8404,2.8711,2.9028,2.9539,3.0114,3.0728,3.1022,3.1316,3.1583,3.165,3.181,3.2024,3.2024,3.2171,3.2433,1.0684,1.0684,1.0732,1.0867,1.1043,1.122,1.1321,1.147,1.1613,1.1735,1.2026,1.223,0.0,0.0,0.0,0.0,0.0,0.0,1.1572,0.0,0.0,1.0887,1.1092,1.1214,1.1214,1.2173,1.2898,1.3317,1.4277,1.5127,1.5876,1.6613,1.7486,1.8515,1.9252,1.9966,2.0596,2.1301,2.1756,0.0,2.2298,2.2592,0.0,2.3207,2.3487,2.3794,2.4346,2.4572,2.4599,0.0,2.4546,2.4586,0.0,2.4967,0.0,0.0,0.0,0.0,0.0,0.0,0.0,0.0,2.4877,0.0,0.0,0.0,2.3977,2.4195,0.0,2.4786,2.5117,0.0,0.0,2.6091,2.6386,2.676,2.7375,2.7749,2.847,2.9847,2.9793,2.9619,2.9637,2.9312,2.9081,2.9041,2.9041,2.8935,2.8724,2.8711,2.8551,2.8245,2.8232,2.8219,2.8179,2.8179,2.8179,2.8179,2.8179,2.8179,2.8179,2.8219,2.8511,2.9001,2.9068,2.9619,3.048,3.0715,3.1009,3.1303,3.157,3.1738,3.1764,3.1764,3.1791,3.1858,1.0704,1.0684,1.0732,1.0887,1.107,1.1247,1.1369,1.1592,1.1796,1.1945,1.223,1.2447,0.0,0.0,0.0,0.0,0.0,1.202,0.0,0.0,0.0,0.0,0.0,0.0,1.185,1.2898,1.3809,1.4553,1.5411,1.6289,1.7163,1.7884,1.8547,1.9232,2.0034,2.0561,2.0889,0.0,2.2124,0.0,0.0,0.0,0.0,2.3407,2.3875,2.4302,2.4519,2.4599,2.4599,0.0,2.4599,0.0,0.0,0.0,0.0,0.0,0.0,0.0,0.0,0.0,0.0,0.0,0.0,0.0,0.0,0.0,2.3843,0.0,0.0,0.0,0.0,0.0,0.0,0.0,2.5692,2.6026,2.6493,2.68,2.7428,2.8781,2.8821,2.8754,2.8754,2.8634,2.8591,2.8778,2.8791,2.8738,2.8617,2.8604,2.847,2.8192,2.8179,2.8179,2.8179,2.8179,2.8179,2.8179,2.8179,2.8179,2.8192,2.8366,2.8644,2.9001,2.9219,2.97,3.0426,3.0675,3.0969,3.1203,3.1557,3.1711,3.1711,3.1711,3.1711,3.1764,1.0867,0.0,0.0,1.1009,1.1158,1.1308,1.143,1.1708,1.1952,1.2139,0.0,0.0,1.2834,1.2949,0.0,0.0,0.0,1.2454,0.0,0.0,1.1553,0.0,0.0,0.0,0.0,0.0,1.4908,1.5914,1.6601,1.7442,1.8451,1.9008,1.9456,1.9915,2.0644,2.1065,2.1234,0.0,2.2385,2.2445,2.2773,2.3,2.3188,2.3643,2.4128,2.4599,2.4599,2.4599,2.4599,2.4599,2.4599,0.0,2.4693,0.0,0.0,0.0,0.0,0.0,2.585,0.0,0.0,0.0,0.0,0.0,0.0,0.0,0.0,0.0,0.0,0.0,0.0,0.0,0.0,0.0,0.0,2.5478,2.573,2.5959,2.652,2.7576,2.7777,2.7857,2.7938,2.7938,2.8031,2.8217,2.8243,2.827,2.835,2.835,2.8297,2.8192,2.8179,2.8179,2.8179,2.8179,2.8179,2.8179,2.8179,2.8179,2.8192,2.847,2.8764,2.9015,2.9352,2.9766,3.0306,3.0555,3.0849,3.1129,3.1436,3.1597,3.1711,3.1711,3.1711,3.1764,1.1186,1.1186,0.0,0.0,1.1382,1.1436,1.1556,1.1864,1.2145,0.0,0.0,0.0,0.0,0.0,0.0,0.0,0.0,1.2853,1.2501,0.0,1.1901,0.0,0.0,1.3146,0.0,0.0,0.0,1.7236,1.7726,1.8515,1.9539,1.9571,1.9934,2.0583,2.087,2.1227,2.1622,2.2178,2.2385,2.2445,2.2773,2.3255,2.3777,0.0,2.4128,2.4599,2.4599,0.0,0.0,2.4599,2.4599,0.0,0.0,0.0,0.0,0.0,0.0,0.0,0.0,0.0,0.0,2.5518,0.0,0.0,0.0,0.0,2.3465,0.0,0.0,0.0,0.0,0.0,0.0,0.0,0.0,0.0,0.0,2.5358,2.5758,2.6373,2.6694,2.6974,2.7309,2.7336,2.7336,2.7349,2.7349,2.7428,2.7709,2.7722,2.7856,2.8179,2.8179,2.8179,2.8179,2.8179,2.8179,2.8179,2.8179,2.8179,2.8192,2.847,2.8764,2.9015,2.9352,2.9659,2.9953,3.0293,3.0587,3.0835,3.1129,3.141,3.1711,3.1711,3.1711,3.1764,0.0,0.0,0.0,0.0,0.0,1.1477,1.1685,1.1932,1.2186,0.0,0.0,0.0,0.0,1.3498,1.3614,0.0,0.0,1.3166,1.2996,1.2522,0.0,0.0,0.0,1.3818,0.0,0.0,0.0,0.0,1.9331,1.9952,2.0535,2.0535,2.0657,2.0946,2.1422,2.1746,0.0,0.0,0.0,0.0,0.0,2.3407,2.383,0.0,2.4302,2.4599,2.4599,2.4599,0.0,2.4599,2.4599,2.4613,2.4719,2.4783,2.4836,2.5144,2.5224,0.0,0.0,0.0,2.5518,2.5518,0.0,0.0,0.0,0.0,0.0,0.0,0.0,0.0,0.0,0.0,0.0,0.0,0.0,0.0,0.0,2.4839,2.5077,2.5478,2.6119,0.0,2.6947,2.7148,2.7229,2.6987,2.7148,2.7228,2.7121,2.7482,2.7749,2.7884,2.8085,2.8179,2.8179,2.8179,2.8179,2.8179,2.8179,2.8179,2.8205,2.8657,2.8908,2.9028,2.9553,2.982,2.994,3.0234,3.0574,3.0822,3.1116,3.141,3.1711,3.1711,3.1711,3.1791,1.1577,0.0,0.0,0.0,0.0,1.1552,1.1759,0.0,0.0,0.0,1.301,0.0,1.3614,0.0,1.3926,0.0,1.3749,1.3532,1.3268,1.2935,0.0,1.3155,1.3911,0.0,0.0,0.0,0.0,0.0,0.0,2.1132,2.1339,2.1279,2.1231,2.1283,2.1764,2.1991,2.2031,2.2653,2.2893,0.0,0.0,2.3607,0.0,0.0,2.4439,2.4599,0.0,2.4599,2.4599,2.4599,2.4599,2.4599,2.4599,2.4599,2.4639,2.4863,2.4917,2.505,2.5677,2.5585,0.0,2.5611,2.5144,0.0,2.4529,0.0,0.0,0.0,0.0,0.0,0.0,0.0,0.0,0.0,0.0,0.0,0.0,2.4422,2.4559,2.489,2.5611,0.0,0.0,2.6627,2.672,2.6373,2.6533,2.6653,2.6667,2.7028,2.7375,2.7682,2.7924,2.8072,2.8179,2.8179,2.8179,2.8179,2.8179,2.8179,2.8205,2.8764,2.9001,2.9028,2.9659,2.9913,2.9927,3.0127,3.0434,3.0808,3.0996,3.1316,3.1711,3.1711,3.1778,3.1891,0.0,0.0,0.0,0.0,1.1633,0.0,0.0,0.0,1.2499,0.0,1.3227,1.358,1.4057,1.4119,1.4125,1.4125,1.4119,0.0,1.3464,1.3281,0.0,0.0,1.5067,1.6333,1.7742,0.0,0.0,0.0,0.0,2.1964,2.1977,2.1743,2.1596,2.1582,2.1877,2.1991,2.2031,2.2653,2.2893,2.2947,2.3562,2.3803,2.387,2.4422,2.4599,2.4599,2.4599,2.4599,2.4599,2.4599,2.4599,2.4599,2.4599,2.4599,2.4599,2.4599,2.4599,2.4733,2.5358,2.5304,2.5275,2.585,0.0,0.0,0.0,0.0,2.4733,0.0,0.0,0.0,0.0,0.0,0.0,0.0,0.0,0.0,0.0,0.0,0.0,0.0,0.0,0.0,0.0,2.5784,2.5824,2.5478,2.5478,2.5732,2.6293,2.6373,2.6787,2.7655,2.7696,2.7843,2.8179,2.8179,2.8179,2.8179,2.8179,2.8179,2.8205,2.8751,2.8988,2.9028,2.9602,2.99,2.9913,2.9913,3.0261,3.0795,3.0795,3.1156,3.1711,3.1711,3.1851,3.2144,1.1932,1.1989,1.1989,0.0,1.185,1.1827,0.0,0.0,0.0,0.0,1.3315,1.3612,1.3835,1.4102,1.4245,1.4245,1.418,0.0,0.0,0.0,0.0,1.4638,1.5804,1.715,1.8727,2.057,0.0,2.2218,0.0,2.261,2.1991,2.1943,2.1676,2.1243,2.175,2.1991,2.2031,2.2653,2.2893,2.2947,2.3562,2.3803,2.387,0.0,2.4599,2.4599,2.4599,2.4599,2.4599,2.4599,2.4599,2.4599,2.4599,2.4599,2.4599,2.4599,2.4599,2.4733,2.5358,2.5464,2.5491,2.5904,2.5824,2.5623,0.0,0.0,0.0,0.0,0.0,0.0,0.0,0.0,0.0,0.0,0.0,0.0,0.0,0.0,0.0,2.4275,0.0,2.4943,2.517,2.5302,2.5128,2.4583,2.4943,2.5264,2.5449,2.6039,2.6694,2.7403,2.7589,2.7843,2.8179,2.8179,2.8179,2.8179,2.8179,2.8179,2.8205,2.8537,2.8788,2.9015,2.9432,2.9713,2.9913,2.9913,3.0261,3.0795,3.0795,3.1156,3.1711,3.1711,3.1851,3.2144,1.2098,0.0,0.0,1.2268,0.0,0.0,1.2352,1.2562,0.0,1.3207,1.3526,0.0,1.3971,1.4197,1.4299,1.4299,1.4224,0.0,0.0,0.0,0.0,1.5916,1.7144,1.8588,2.025,2.1949,0.0,2.3055,0.0,0.0,2.2178,2.2044,2.177,2.1355,2.181,2.1991,2.2031,2.2653,2.2974,2.3113,2.3616,2.3884,0.0,2.4426,2.4599,2.4599,2.4599,2.4599,2.4599,2.4599,2.4599,2.4599,2.4599,2.4599,2.4626,2.4796,2.4823,2.4957,2.5545,2.5705,2.5772,2.6105,2.6091,2.5957,2.5745,2.5705,2.5758,0.0,0.0,0.0,0.0,0.0,0.0,0.0,0.0,0.0,0.0,0.0,0.0,0.0,2.4275,2.4516,2.4676,2.481,2.469,2.4235,2.4516,2.481,2.5101,2.5665,2.6333,2.7054,2.7362,2.775,2.8179,2.8179,2.8179,2.8179,2.8179,2.8259,2.8393,2.8657,2.8951,2.9245,2.9553,2.9766,2.9913,2.9913,3.0261,3.0822,3.1076,3.1383,3.1711,3.1711,3.1851,3.2144,0.0,0.0,0.0,0.0,0.0,0.0,0.0,1.2861,0.0,1.3531,0.0,1.398,1.4272,1.4319,1.4326,1.4326,0.0,1.4574,1.4901,1.5017,1.5818,1.7503,1.8836,2.0306,2.1948,2.3329,0.0,0.0,0.0,0.0,2.2352,2.2111,2.1836,2.1542,2.1877,2.2031,2.2138,2.2679,2.3046,2.3319,2.3647,2.3941,2.4235,2.4492,2.4599,2.4599,2.4599,2.4599,2.4599,2.4599,2.4599,2.4599,2.4599,2.4599,2.4653,2.4997,2.5115,2.5248,2.5837,2.5998,2.6065,2.6319,2.6238,2.6051,2.6051,2.6051,2.6051,2.6051,2.5772,2.5558,0.0,0.0,0.0,0.0,0.0,0.0,0.0,0.0,0.0,0.0,0.0,0.0,2.4209,2.4396,2.4386,2.4168,2.4142,2.4409,2.4997,2.5331,2.5892,2.6734,2.7094,2.7576,2.8125,2.8165,2.8179,2.8179,2.8232,2.8393,2.8617,2.8868,2.9161,2.9499,2.9753,2.9887,2.9913,2.9913,3.0261,3.0849,3.1436,3.1711,3.1724,3.1764,3.1917,3.2198,0.0,0.0,0.0,0.0,0.0,1.3288,1.3369,1.337,1.3397,1.3558,1.3865,1.4102,1.4278,1.4407,1.4475,1.4475,1.4833,0.0,0.0,0.0,0.0,1.8782,2.0202,2.1587,2.2913,2.3808,2.4144,0.0,0.0,0.0,2.2058,2.2004,2.1697,2.1203,2.175,2.2291,2.2746,2.2853,0.0,2.3319,2.3647,2.3941,2.4235,2.4492,2.4599,2.4599,2.4599,2.4599,2.4599,2.4599,2.4599,2.4599,2.4599,2.4599,2.4653,2.4997,2.5115,2.5248,2.5837,2.5998,2.6065,2.6319,2.6346,2.6319,2.6319,2.6319,2.6319,2.6319,2.6118,2.5837,2.5558,0.0,0.0,0.0,0.0,0.0,0.0,0.0,0.0,0.0,0.0,2.4209,0.0,2.4035,2.3937,2.3884,2.3884,2.4102,2.4639,2.5186,2.5798,2.644,2.7028,2.7469,0.0,0.0,2.8179,2.8192,2.8404,2.8551,2.8617,2.8868,2.9161,2.9486,2.9539,2.97,2.9913,2.9913,3.0261,3.0849,3.1436,3.1711,3.1751,3.1944,3.2211,3.2527,0.0,0.0,0.0,0.0,0.0,0.0,0.0,1.398,1.4,1.4075,1.4211,1.436,1.4509,1.459,1.4597,1.4516,1.492,1.5564,1.6365,1.7315,1.8794,2.0915,2.2093,0.0,2.4554,2.4873,2.4791,2.4304,0.0,0.0,2.1991,2.1991,2.167,2.1136,2.1724,2.2231,2.2645,0.0,0.0,2.3581,2.3875,2.4168,2.4399,2.4546,2.4599,2.4599,2.4599,2.4599,2.4599,2.4599,2.4599,2.4599,2.4599,2.4599,2.4693,2.517,2.5304,2.5438,2.6026,2.6225,2.6252,2.636,2.6386,2.6386,2.6386,2.6386,2.6386,2.6386,2.6198,2.581,2.5133,2.4583,0.0,0.0,0.0,0.0,0.0,0.0,0.0,0.0,0.0,0.0,0.0,0.0,0.0,0.0,0.0,2.4022,2.4572,2.505,2.5558,2.6185,0.0,0.0,2.7696,0.0,2.8179,2.8192,2.8457,2.8684,2.8801,2.9138,2.9432,2.9713,2.9713,2.978,2.994,3.0247,3.0541,3.0849,3.1436,3.1711,3.1751,3.1998,3.2291,3.2621,0.0,1.3282,0.0,0.0,1.3783,0.0,1.4353,1.4516,1.4597,1.4563,1.4563,1.4618,1.4774,1.4741,1.4681,1.457,1.5149,1.6047,1.7148,1.8488,2.0361,2.2869,2.3901,2.4969,2.6099,2.5929,2.5465,0.0,0.0,0.0,0.0,2.2044,2.1737,2.1323,2.1777,0.0,0.0,0.0,2.3527,2.3888,2.4115,2.4382,2.4599,2.4599,2.4599,2.4599,2.4599,2.4599,2.4599,2.4599,2.4599,2.4599,2.4599,2.4599,2.4706,2.5264,2.5464,2.5625,2.6159,2.6346,2.6386,2.6386,2.6386,2.6386,2.6386,2.6386,2.6386,2.6386,2.6198,2.577,2.4919,2.4636,0.0,0.0,0.0,0.0,0.0,0.0,0.0,0.0,0.0,0.0,2.4372,0.0,0.0,0.0,0.0,2.3928,2.4479,2.4823,2.5251,2.5877,2.676,2.7308,2.7602,0.0,2.8219,2.8286,2.8551,2.8815,2.9095,2.9446,2.974,3.0007,3.0007,3.0007,3.0047,3.0581,3.0795,3.0849,3.1436,3.1711,3.1764,3.2064,3.2393,3.2648,0.0,0.0,0.0,0.0,0.0,0.0,1.4626,1.4828,1.4875,1.4694,1.4674,1.478,1.493,1.495,1.4889,1.4687,1.5902,1.6976,1.7691,2.0187,2.232,2.3795,2.5165,2.6221,2.6893,2.6416,2.5911,0.0,0.0,0.0,0.0,0.0,0.0,0.0,0.0,0.0,0.0,2.3265,2.3612,2.4168,2.4195,2.4382,2.4599,2.4599,2.4599,2.4599,2.4599,2.4599,2.4599,2.4599,2.4599,2.4599,2.4599,2.4599,2.4666,2.5024,2.5304,2.5585,2.5944,2.6225,2.6386,2.6386,2.6386,2.6386,2.6386,2.6386,2.6386,2.6386,2.6198,2.5891,2.5491,2.5411,2.5384,0.0,0.0,0.0,0.0,0.0,0.0,0.0,0.0,0.0,0.0,2.3817,0.0,0.0,2.3688,0.0,0.0,0.0,0.0,2.5531,2.64,2.7001,2.7349,2.7898,2.8326,2.8564,2.8815,2.9108,2.9446,2.974,3.0034,3.036,3.036,3.036,3.0386,3.0662,3.0795,3.0849,3.1436,3.1711,3.1791,3.234,3.2567,3.2674,0.0,0.0,0.0,0.0,0.0,0.0,0.0,1.5004,1.5079,1.5011,1.5004,1.5031,1.5092,1.5099,1.4997,1.4714,1.6015,1.7216,1.8173,2.0882,2.3127,2.4769,2.6188,2.7078,2.7418,2.685,2.6202,0.0,0.0,0.0,0.0,0.0,0.0,0.0,0.0,2.2746,2.3086,2.3621,2.3995,2.4222,2.4396,2.4492,2.4599,2.4599,2.4599,2.4599,2.4599,2.4599,2.4599,2.4599,2.4599,2.4599,2.4599,2.4599,2.4653,2.4997,2.5157,2.5358,2.5864,2.6078,2.6212,2.6346,2.6386,2.6386,2.6386,2.6386,2.6386,2.6386,2.6198,2.5957,2.5798,2.5638,2.5518,0.0,0.0,0.0,0.0,0.0,0.0,0.0,0.0,0.0,0.0,0.0,0.0,0.0,0.0,0.0,0.0,0.0,0.0,2.5491,0.0,2.6961,2.7309,2.7898,2.8339,2.8604,2.8855,2.9192,2.9499,2.978,2.998,3.01,3.0333,3.0306,3.0127,3.0595,3.0795,3.0849,3.1436,3.1711,3.1791,3.238,3.2594,3.2674,1.4258,0.0,1.4775,0.0,1.4984,1.5201,1.5105,1.512,1.5181,1.5181,1.5181,1.5181,1.5181,1.5147,1.5064,1.4897,1.6144,1.7518,1.8812,2.1521,2.3858,2.5537,2.6953,0.0,2.7829,2.7255,2.66,2.5892,2.493,0.0,0.0,0.0,0.0,0.0,2.2819,2.3134,2.3335,2.3941,2.4249,2.4342,2.4519,2.4599,2.4599,2.4599,2.4599,2.4599,2.4599,2.4599,2.4599,2.4599,2.4653,2.4719,2.4626,2.4599,2.4639,2.489,2.501,2.5222,2.573,2.5931,2.6051,2.6252,2.6266,2.6266,2.6266,2.6266,2.6279,2.6373,2.6265,2.6118,2.6118,2.5919,2.5772,2.5772,0.0,0.0,0.0,0.0,0.0,0.0,0.0,2.3607,2.3549,2.3148,0.0,0.0,0.0,0.0,0.0,0.0,0.0,0.0,0.0,0.0,2.7309,2.7978,2.843,2.8738,2.9032,2.9325,2.9619,2.9913,3.0047,3.006,3.0319,3.0293,3.0087,3.0581,3.0795,3.0849,3.1436,3.1711,3.1791,3.238,3.2594,3.2674,1.4654,1.497,1.5133,1.5037,1.5208,1.5357,1.5201,1.5181,1.5181,1.5181,1.5181,1.5181,1.5181,1.5059,1.5094,1.5353,1.658,1.8036,1.9752,2.2471,2.4629,0.0,0.0,2.8179,2.8179,2.7603,2.7108,2.676,0.0,0.0,2.4559,0.0,2.3278,2.3278,2.3278,2.3647,2.4182,2.4195,2.4332,2.4599,2.4599,2.4599,2.4599,2.4599,2.4599,2.4599,2.4599,2.4599,2.4599,2.4599,2.4836,2.5024,2.4693,2.4599,2.4599,2.4599,2.485,2.5144,2.5438,2.5732,2.5998,2.5998,2.5998,2.5998,2.5998,2.5998,2.6078,2.6333,2.6386,2.6386,2.6386,2.6386,2.6373,2.6373,0.0,0.0,0.0,0.0,0.0,0.0,2.3688,2.3207,2.2934,2.2893,0.0,0.0,0.0,0.0,0.0,0.0,0.0,2.5478,2.6092,0.0,2.7296,2.815,2.8751,2.9001,2.9339,2.9633,2.9927,3.0221,3.04,3.04,3.04,3.04,3.0426,3.0675,3.0795,3.0849,3.1436,3.1711,3.1791,3.238,3.2594,3.2674,1.4889,1.5133,1.5289,1.514,1.5276,1.5357,1.5208,1.5181,1.5181,1.5181,1.5181,1.5287,1.551,1.55,1.5551,0.0,1.7262,1.8876,0.0,2.2955,2.4971,2.6048,2.7461,2.8179,2.8179,2.7804,2.7321,2.6787,0.0,0.0,0.0,2.4319,2.4186,2.4186,2.4186,2.4292,2.4466,2.4466,2.4519,2.4599,2.4599,2.4599,2.4599,2.4599,2.4599,2.4599,2.4599,2.477,2.4943,2.4943,2.513,2.5358,2.5264,2.5104,2.4943,2.4943,2.4863,2.4836,2.513,2.5329,2.5449,2.5598,2.5651,2.5651,2.5651,2.585,2.6078,2.6333,2.6386,2.6386,2.6386,2.6547,2.668,2.668,2.668,0.0,0.0,0.0,0.0,0.0,2.3688,2.3252,2.3193,2.318,0.0,0.0,0.0,0.0,0.0,0.0,0.0,0.0,2.648,0.0,2.7898,2.8364,2.8858,2.9339,2.9446,2.9633,2.9927,3.0266,3.0293,3.0074,3.0319,3.0293,3.01,3.0595,3.0795,3.0849,3.1436,3.1711,3.1764,3.2104,3.242,3.2648,1.5098,1.5248,1.5364,1.5208,1.5309,1.5357,1.5208,1.5181,1.5181,1.5181,1.5368,1.5573,1.5816,1.6338,0.0,1.6674,1.8194,1.9849,2.1498,2.3729,2.5452,2.6571,2.763,2.8179,2.8179,2.7856,0.0,2.7148,2.6453,2.5824,2.513,2.5024,2.4933,2.4933,2.4933,2.4866,2.4796,2.4796,2.4706,2.4599,2.4599,2.4599,2.4599,2.4599,2.4599,2.4599,2.4599,2.4823,2.5115,2.5115,2.5344,2.5678,2.5678,2.5558,2.5422,2.5277,2.5037,2.4863,2.5157,2.5157,2.5117,2.5304,2.5438,2.5545,2.5651,2.5944,2.6212,2.636,2.6386,2.6426,2.6533,2.6694,2.6787,2.6787,2.6787,2.664,2.6132,0.0,0.0,0.0,0.0,0.0,0.0,2.3661,2.3981,0.0,0.0,0.0,0.0,0.0,0.0,2.6373,2.6774,2.7403,2.8179,2.8564,2.9005,2.9486,2.9593,2.974,2.9927,3.0114,3.01,2.9927,3.0114,3.0087,2.9967,3.0555,3.0795,3.0849,3.1436,3.1711,3.1751,3.1998,3.2225,3.2487,1.5181,1.5296,1.535,0.0,1.5303,1.535,1.5201,1.5181,1.5228,1.5228,1.5657,1.605,1.6226,1.7587,1.8405,1.8351,0.0,0.0,0.0,2.4714,2.6103,2.7445,2.7939,2.8179,2.8179,2.7869,2.7722,2.7696,2.6854,2.6346,2.6051,2.5732,2.5598,2.5571,2.5558,2.5384,2.5141,2.5128,2.4917,2.4599,2.4599,2.4599,2.4599,2.4599,2.4599,2.4599,2.4599,2.4836,2.5141,2.5141,2.5543,2.6024,2.6024,2.6024,2.5971,2.5625,2.5331,2.517,2.5438,2.5317,2.5141,2.5141,2.5317,2.5585,2.5931,2.6198,2.636,2.6386,2.6386,2.648,2.6774,2.68,2.6814,2.6814,2.6841,2.648,2.5665,0.0,0.0,0.0,0.0,0.0,0.0,2.4249,2.4516,0.0,0.0,0.0,0.0,0.0,2.6238,2.6466,2.7055,2.763,2.8245,2.8764,2.9205,2.9513,2.978,2.9913,2.9913,2.9913,2.9913,2.9913,2.9913,2.9913,2.9967,3.0555,3.0795,3.0849,3.1436,3.1711,3.1751,3.1971,3.2078,3.2185,0.0,0.0,1.5221,1.5187,1.5215,1.5221,1.5187,1.5181,1.5321,1.5704,1.6166,1.6833,1.7672,1.9032,2.0355,2.147,2.1865,2.2697,2.4286,2.5708,2.6796,2.7487,2.7939,2.8179,2.8179,2.8112,2.7965,2.7696,2.7309,2.6907,2.6613,2.6547,2.64,2.6172,2.5984,2.5692,2.5398,2.517,2.4917,2.4599,2.4599,2.4599,2.4599,2.4599,2.4599,2.4599,2.4599,2.4933,2.5411,2.5411,2.5798,2.6332,2.6332,2.6332,2.6265,2.5971,2.5638,2.5424,2.5491,2.5464,2.5411,2.5411,2.5464,2.5585,2.5931,2.6051,2.6158,2.6346,2.6386,2.648,2.6774,2.7001,2.7161,2.7161,2.6974,2.66,2.5984,2.5144,0.0,0.0,2.4075,2.4142,2.4466,2.4743,2.5211,0.0,0.0,2.636,2.7068,2.7201,2.7321,2.7388,2.7522,2.7989,2.8818,2.8921,2.9255,2.982,2.9887,2.9913,2.9913,2.9913,2.9913,2.9913,2.9913,2.9913,2.9967,3.0555,3.0795,3.0849,3.1436,3.1711,3.1724,3.1791,3.1904,3.2158,1.5181,1.5181,1.5181,1.5181,1.5181,1.5275,1.5516,1.5509,1.5798,1.6501,1.7242,1.8122,1.9157,2.0561,2.1944,2.3226,2.3354,2.3912,2.5239,2.6061,2.6783,2.7487,2.7728,2.7981,2.8179,2.8179,2.8112,2.7938,2.7643,2.7308,2.7028,2.6881,2.6667,2.6386,2.6265,2.6024,2.5705,2.5583,2.5237,2.4836,2.4836,2.4756,2.4599,2.4599,2.4599,2.4613,2.4759,2.513,2.5531,2.5665,2.6012,2.6386,2.6386,2.6386,2.636,2.6238,2.5984,2.5718,2.5718,2.5611,2.5545,2.5678,2.5718,2.5798,2.6131,2.6198,2.6238,2.636,2.6386,2.652,2.6947,2.7041,2.7068,2.7068,2.6814,2.6373,2.569,2.5024,0.0,2.4609,2.4609,2.4823,2.5384,2.5705,2.6132,2.6747,2.6787,0.0,2.7483,2.7615,2.7696,2.7696,2.7829,2.827,2.8988,2.9268,2.9562,2.9913,2.9913,2.9913,2.9913,2.9913,2.9913,2.9913,2.9913,2.9993,3.0154,3.0608,3.0875,3.1036,3.149,3.1711,3.1711,3.1711,3.177,3.1971,1.5181,1.5181,1.5181,1.5181,1.5275,1.5462,1.5938,1.6173,1.6634,1.7709,1.8727,1.9729,2.0734,2.2049,2.3203,2.4109,2.4149,2.4664,2.6018,2.6103,2.6528,2.7487,2.7487,2.7728,2.8179,2.8179,2.8179,2.8179,2.7896,2.7615,2.7362,2.7028,2.6734,2.6453,2.6413,2.6265,2.5998,2.5998,2.5677,2.5144,2.5144,2.4997,2.4733,2.4733,2.4733,2.4759,2.505,2.5331,2.5625,2.5904,2.6185,2.6386,2.6386,2.6386,2.6386,2.6386,2.6252,2.6065,2.6065,2.5838,2.5705,2.5998,2.6065,2.6131,2.6333,2.6386,2.6386,2.6386,2.6426,2.6627,2.7202,2.7054,2.6867,2.6827,2.6547,2.6039,2.5235,0.0,2.481,2.5117,2.5224,2.5585,2.6373,2.672,2.7014,2.7349,2.7376,2.7496,2.7749,2.7762,2.7762,2.7762,2.8045,2.8473,2.8988,2.9575,2.9913,2.9913,2.9913,2.9913,2.9913,2.9913,2.9913,2.9913,2.9913,3.0087,3.0426,3.0675,3.0969,3.1203,3.1557,3.1711,3.1711,3.1711,3.1711,3.1791,1.5181,1.5181,1.5181,1.5181,1.5509,1.5978,1.6494,1.7289,1.8354,1.9741,2.0807,2.1804,2.2749,2.3475,2.4084,2.4582,2.4321,2.4664,2.6018,2.6103,2.6528,2.7487,2.7487,2.7728,2.8179,2.8179,2.8179,2.8179,2.8138,2.7965,2.7629,2.7335,2.7041,2.6747,2.6493,2.6265,2.5998,2.5998,2.5797,2.5451,2.5451,2.5424,2.5371,2.5371,2.5371,2.5384,2.5424,2.5638,2.5931,2.5984,2.6185,2.6386,2.6386,2.6386,2.6386,2.6386,2.636,2.6319,2.6319,2.6293,2.6266,2.6306,2.6319,2.6333,2.6373,2.6386,2.6386,2.6386,2.6587,2.6854,2.7242,2.7269,2.7108,2.6867,2.6373,2.5837,2.5208,0.0,2.5117,2.5411,2.5879,2.6333,2.672,2.7028,2.7362,2.7602,2.7629,2.7804,2.8098,2.8112,2.8112,2.8112,2.8165,2.8473,2.8988,2.9575,2.9913,2.9913,2.9913,2.9913,2.9913,2.9913,2.9913,2.9913,2.9913,3.0087,3.0426,3.0675,3.0969,3.1203,3.1557,3.1711,3.1711,3.1711,3.1711,3.1764,1.5181,1.5181,1.5275,1.5509,1.5978,1.6681,1.7748,1.8727,2.0019,2.1731,2.2826,2.371,2.4397,2.4717,2.482,2.4699,2.4106,2.4181,2.5251,2.5336,2.589,2.7093,2.7135,2.7474,2.8192,2.8179,2.8179,2.8179,2.8179,2.8031,2.7696,2.7443,2.7108,2.6814,2.652,2.6319,2.6225,2.6225,2.6065,2.5758,2.5758,2.5651,2.5518,2.5518,2.5518,2.5531,2.5692,2.5877,2.6024,2.6172,2.6319,2.6386,2.6386,2.6386,2.6386,2.6386,2.6386,2.6386,2.6386,2.6386,2.6386,2.6386,2.6386,2.6386,2.6386,2.6386,2.6386,2.6386,2.6613,2.6907,2.7255,2.7134,2.6987,2.6841,2.6333,0.0,0.0,2.5317,2.5478,2.5932,2.636,2.68,2.7255,2.7603,2.7831,2.7965,2.7978,2.8045,2.8179,2.8179,2.8179,2.8179,2.85,2.8764,2.8988,2.9575,2.9913,2.9913,2.9913,2.9913,2.9913,2.9913,2.9913,2.9913,2.9913,3.0167,3.0654,3.0742,3.1062,3.1476,3.1623,3.1711,3.1711,3.1711,3.1711,3.1764,1.5181,1.5275,1.5509,1.5985,1.6728,1.7701,1.9192,2.0483,2.1905,2.3754,2.4841,2.5569,2.5825,2.5734,2.5433,2.4754,2.4021,2.3935,2.4792,2.4878,2.5433,2.6753,2.7008,2.7461,2.8192,2.8179,2.8179,2.8179,2.8179,2.8072,2.7789,2.755,2.7241,2.7014,2.6653,2.6493,2.6493,2.6413,2.6305,2.6091,2.6091,2.5919,2.5718,2.5718,2.5718,2.5745,2.6011,2.6091,2.6131,2.6319,2.6386,2.6386,2.6386,2.6386,2.6386,2.6386,2.6386,2.6386,2.6386,2.6386,2.6386,2.6386,2.6386,2.6386,2.6386,2.6386,2.6413,2.648,2.672,2.7014,2.7308,2.7175,2.7001,2.6934,0.0,2.6052,0.0,2.5772,2.6012,2.6533,2.6854,2.7228,2.7749,2.8045,2.8179,2.8179,2.8179,2.8179,2.8179,2.8179,2.8219,2.8286,2.8764,2.9028,2.9095,2.9659,2.9913,2.9913,2.9913,2.9913,2.9913,2.9913,2.9913,2.9913,2.9913,3.0247,3.0795,3.0795,3.1142,3.1711,3.1711,3.1711,3.1711,3.1711,3.1711,3.1751,1.5181,1.5563,1.6032,1.654,1.7795,1.9239,2.0723,2.257,2.4361,2.5855,2.6912,2.7349,2.6908,2.6494,2.5838,2.4796,2.4321,2.4407,2.5305,2.5348,2.5775,2.6753,2.763,2.815,2.8179,2.8179,2.8179,2.8179,2.8179,2.8179,2.8138,2.7844,2.7655,2.7615,2.7041,2.6787,2.6734,2.6507,2.6373,2.636,2.636,2.6346,2.6319,2.6319,2.6319,2.6333,2.6346,2.636,2.636,2.6386,2.6386,2.6386,2.6386,2.6386,2.6386,2.6386,2.6386,2.6386,2.6386,2.6386,2.6386,2.6386,2.6386,2.6386,2.6386,2.6386,2.6466,2.6734,2.7028,2.7362,2.7615,2.7642,2.7549,2.7322,0.0,0.0,2.6373,2.656,2.6841,2.7202,2.7455,2.7762,2.8125,2.8179,2.8179,2.8179,2.8179,2.8179,2.8179,2.8179,2.8312,2.8564,2.8828,2.9135,2.9446,2.9766,2.9913,2.9913,2.9913,2.9913,2.9913,2.9913,2.9913,2.9913,2.9913,3.0247,3.0795,3.0795,3.1142,3.1711,3.1711,3.1711,3.1711,3.1711,3.1711,3.1724,1.5563,1.6025,1.6774,1.7888,1.9285,2.0853,2.2662,2.4132,2.5548,2.7003,2.7321,2.7432,2.7366,2.6816,2.621,2.5629,2.5165,2.5165,2.5805,2.6116,2.6541,2.722,2.7854,2.8179,2.8179,2.8179,2.8179,2.8179,2.8179,2.8179,2.8179,2.7843,2.7696,2.7682,2.7281,2.7001,2.6774,2.6707,2.656,2.6386,2.6386,2.6386,2.6386,2.6386,2.6386,2.6386,2.6386,2.6386,2.6386,2.6386,2.6386,2.6386,2.6386,2.6386,2.6386,2.6386,2.652,2.6653,2.6653,2.6533,2.6426,2.6613,2.6653,2.6707,2.6934,2.6974,2.7001,2.7068,2.7335,2.7562,2.7682,2.7696,2.7669,2.7549,0.0,2.7054,2.6988,2.7068,2.7201,2.7495,2.7629,2.7816,2.8152,2.8179,2.8179,2.8179,2.8179,2.8272,2.8417,2.843,2.8564,2.8828,2.8935,2.9135,2.9486,2.9766,2.9913,2.9913,2.9913,2.9913,2.9913,2.9913,2.9913,2.9913,2.9913,3.0154,3.0587,3.0715,3.1022,3.141,3.1597,3.1711,3.1711,3.1711,3.1711,3.1711,1.6267,1.6915,1.7841,1.9332,2.0816,2.2432,2.4269,2.5423,2.6389,2.7435,2.7544,2.7548,2.7477,2.7001,2.6603,2.6341,2.6018,2.6061,2.6528,2.6995,2.7389,2.7728,2.8023,2.8179,2.8179,2.8179,2.8179,2.8179,2.8179,2.8179,2.8179,2.7978,2.7843,2.7829,2.7535,2.7295,2.7081,2.6894,2.6707,2.652,2.6426,2.6386,2.6386,2.6386,2.6386,2.6386,2.6386,2.6386,2.6386,2.6386,2.6386,2.64,2.6493,2.6533,2.6547,2.664,2.6747,2.68,2.6934,2.6814,2.672,2.6907,2.6961,2.7014,2.7255,2.7309,2.7336,2.7416,2.7562,2.7722,2.7816,2.7843,2.7843,2.7843,2.771,2.7576,2.7576,2.7576,2.7657,2.7857,2.7843,2.7965,2.8165,2.8179,2.8179,2.8179,2.8179,2.8272,2.8444,2.8457,2.8644,2.8988,2.9001,2.9188,2.9619,2.982,2.9913,2.9913,2.9913,2.9913,2.9913,2.9913,2.9913,2.9913,2.9913,3.0087,3.0426,3.0627,3.0889,3.1203,3.145,3.1583,3.1711,3.1711,3.1711,3.1711,1.7343,1.8214,1.9378,2.0862,2.2386,2.3903,2.5377,2.6413,2.7087,2.7278,2.7743,2.7839,2.7266,2.7203,2.7088,2.6808,2.6796,2.7008,2.7487,2.7939,2.8179,2.8179,2.8179,2.8179,2.8179,2.8179,2.8179,2.8179,2.8179,2.8179,2.8179,2.8179,2.8179,2.8179,2.7829,2.7696,2.7655,2.7081,2.6787,2.68,2.6507,2.6386,2.6386,2.6386,2.6386,2.6386,2.6386,2.6386,2.6386,2.6386,2.6386,2.644,2.6734,2.6787,2.6881,2.7215,2.7054,2.6894,2.7229,2.7309,2.7309,2.7309,2.7309,2.7309,2.7309,2.7309,2.7403,2.7642,2.7696,2.7789,2.8125,2.8179,2.8179,2.8179,2.8179,2.8179,2.8179,2.8179,2.8179,2.8179,2.8179,2.8179,2.8179,2.8179,2.8179,2.8179,2.8192,2.8192,2.8179,2.8192,2.846,2.8975,2.9001,2.9282,2.9913,2.9913,2.9913,2.9913,2.9913,2.9913,2.9913,2.9913,2.9913,2.9913,2.9913,3.0087,3.04,3.04,3.0702,3.1176,3.1223,3.1396,3.1711,3.1711,3.1711,3.1711,1.8773,1.9796,2.0908,2.2432,2.3948,2.5332,2.6413,2.6833,2.7127,2.7538,2.7103,2.6952,2.7446,2.7152,2.714,2.7728,2.7757,2.7841,2.7981,2.8094,2.8179,2.8179,2.8179,2.8179,2.8179,2.8179,2.8179,2.8179,2.8179,2.8179,2.8179,2.8179,2.8179,2.8179,2.8098,2.7938,2.7682,2.7509,2.7201,2.6774,2.6734,2.6573,2.6386,2.6386,2.6386,2.6386,2.6386,2.6386,2.6386,2.6386,2.6533,2.6747,2.7041,2.6987,2.6881,2.7215,2.7242,2.7201,2.7495,2.7764,2.7871,2.7615,2.7562,2.7629,2.7871,2.7924,2.7951,2.8031,2.8045,2.8085,2.8165,2.8179,2.8179,2.8179,2.8179,2.8179,2.8179,2.8179,2.8179,2.8179,2.8179,2.8179,2.8179,2.8179,2.8179,2.8179,2.8393,2.8419,2.8192,2.8393,2.8644,2.8988,2.9001,2.9282,2.9913,2.9913,2.9913,2.9913,2.9913,2.9913,2.9913,2.9913,2.9913,2.9913,2.9913,2.9967,3.006,3.0319,3.0507,3.0635,3.0849,3.1102,3.1356,3.1356,3.149,3.1711,2.0575,2.1777,2.2928,2.4086,2.532,2.6334,2.6924,2.7151,2.7304,2.7352,2.7043,2.6978,2.7503,2.7256,2.7389,2.8136,2.8179,2.8179,2.8179,2.8179,2.8179,2.8179,2.8179,2.8179,2.8179,2.8179,2.8179,2.8179,2.8179,2.8179,2.8179,2.8179,2.8179,2.8179,2.8179,2.8085,2.7911,2.7749,2.7428,2.6987,2.6867,2.6653,2.6386,2.6386,2.6386,2.6386,2.6386,2.6386,2.6386,2.6386,2.6667,2.7054,2.7348,2.7308,2.7228,2.7563,2.7563,2.7495,2.7844,2.8045,2.8138,2.7965,2.7911,2.7965,2.8138,2.8179,2.8179,2.8179,2.8179,2.8179,2.8179,2.8179,2.8179,2.8179,2.8179,2.8179,2.8179,2.8179,2.8179,2.8179,2.8179,2.8179,2.8179,2.8179,2.8232,2.8366,2.8433,2.8433,2.8366,2.839,2.8617,2.8988,2.9001,2.9282,2.9913,2.9913,2.9913,2.9913,2.9913,2.9913,2.9913,2.9913,2.9913,2.9913,2.9913,2.9913,2.9927,3.0114,3.0293,3.0426,3.06,3.0795,3.1062,3.1183,3.1343,3.1517,2.257,2.3938,2.5126,2.5696,2.6515,2.7139,2.7118,2.7513,2.7611,2.7114,2.7385,2.7593,2.7575,2.7513,2.7685,2.815,2.8179,2.8179,2.8179,2.8179,2.8179,2.8179,2.8179,2.8179,2.8179,2.8179,2.8179,2.8179,2.8179,2.8179,2.8179,2.8179,2.8179,2.8179,2.8179,2.8179,2.8165,2.7856,2.7575,2.7322,2.7014,2.672,2.6466,2.6466,2.6466,2.6466,2.644,2.6426,2.6426,2.6453,2.6867,2.7362,2.7642,2.7722,2.7762,2.8098,2.7978,2.7762,2.8098,2.8179,2.8179,2.8179,2.8179,2.8179,2.8179,2.8179,2.8179,2.8179,2.8179,2.8179,2.8179,2.8179,2.8179,2.8179,2.8179,2.8179,2.8179,2.8179,2.8179,2.8179,2.8179,2.8179,2.8179,2.8205,2.8353,2.8591,2.8379,2.8353,2.8591,2.8353,2.846,2.8975,2.9001,2.9282,2.9913,2.9913,2.9913,2.9913,2.9913,2.9913,2.9913,2.9913,2.9913,2.9913,2.9913,2.9913,2.9913,2.9913,3.0074,3.036,3.036,3.0547,3.0782,3.1049,3.1183,3.1276,2.3994,2.5218,2.6219,2.7093,2.7739,2.8158,2.8158,2.8249,2.8301,2.8175,2.7814,2.7746,2.8108,2.7748,2.7685,2.815,2.8179,2.8179,2.8179,2.8179,2.8179,2.8179,2.8179,2.8179,2.8179,2.8179,2.8179,2.8179,2.8179,2.8179,2.8179,2.8179,2.8179,2.8179,2.8179,2.8179,2.8179,2.8112,2.7924,2.7602,2.7535,2.7335,2.7122,2.7122,2.7122,2.7081,2.6814,2.6734,2.676,2.7041,2.7202,2.7403,2.7924,2.7924,2.7762,2.8098,2.7978,2.7762,2.8098,2.8179,2.8179,2.8179,2.8179,2.8179,2.8179,2.8179,2.8179,2.8179,2.8179,2.8179,2.8179,2.8179,2.8179,2.8179,2.8179,2.8179,2.8179,2.8179,2.8179,2.8179,2.8179,2.8179,2.8179,2.8406,2.8537,2.8604,2.8537,2.8537,2.8604,2.8353,2.846,2.8975,2.9001,2.9282,2.9913,2.9913,2.9913,2.9913,2.9913,2.9913,2.9913,2.9913,2.9913,2.9913,2.9913,2.9913,2.9913,2.9913,2.9953,3.0007,3.0007,3.0194,3.0507,3.0574,3.0835,3.1276,2.5594,2.6867,2.7772,2.8056,2.852,2.8745,2.852,2.87,2.8783,2.8642,2.8419,2.8326,2.8455,2.8076,2.7939,2.8192,2.8179,2.8179,2.8179,2.8179,2.8179,2.8179,2.8179,2.8179,2.8179,2.8179,2.8179,2.8179,2.8179,2.8179,2.8179,2.8179,2.8179,2.8179,2.8179,2.8179,2.8179,2.8179,2.8018,2.7696,2.7696,2.7522,2.7309,2.7309,2.7309,2.7282,2.7094,2.7028,2.7081,2.7375,2.7468,2.7549,2.8045,2.8072,2.7978,2.8138,2.8072,2.7991,2.8138,2.8179,2.8179,2.8179,2.8179,2.8179,2.8179,2.8179,2.8179,2.8179,2.8179,2.8179,2.8179,2.8179,2.8179,2.8179,2.8179,2.8179,2.8179,2.8179,2.8179,2.8179,2.8179,2.8179,2.8179,2.843,2.8671,2.8761,2.8684,2.8671,2.8761,2.8433,2.8393,2.8818,2.8921,2.9215,2.9713,2.9847,2.9913,2.9913,2.9913,2.9913,2.9913,2.9913,2.9847,2.9713,2.9713,2.9633,2.9468,2.9646,2.9713,2.9726,2.986,3.0007,3.0167,3.036,3.0728,3.1249,2.7139,2.8314,2.9092,2.879,2.906,2.9182,2.879,2.906,2.9238,2.9002,2.8982,2.8908,2.8711,2.8406,2.8179,2.8179,2.8179,2.8179,2.8179,2.8179,2.8179,2.8179,2.8179,2.8179,2.8179,2.8179,2.8179,2.8179,2.8179,2.8179,2.8179,2.8179,2.8179,2.8179,2.8179,2.8179,2.8179,2.8179,2.8045,2.7776,2.7776,2.7629,2.7456,2.7456,2.7456,2.7456,2.7403,2.7349,2.7349,2.7602,2.7696,2.7749,2.8085,2.8179,2.8179,2.8179,2.8179,2.8179,2.8179,2.8179,2.8179,2.8179,2.8179,2.8179,2.8179,2.8179,2.8179,2.8179,2.8179,2.8179,2.8179,2.8179,2.8179,2.8179,2.8179,2.8179,2.8179,2.8179,2.8179,2.8179,2.8179,2.8179,2.8179,2.843,2.8711,2.8908,2.8751,2.8711,2.8908,2.8486,2.8326,2.8591,2.8801,2.9112,2.9406,2.9646,2.9766,2.9766,2.9766,2.982,2.9913,2.986,2.9713,2.9486,2.9432,2.9272,2.9015,2.9312,2.9406,2.9432,2.9726,2.9847,2.9887,3.0279,3.0662,3.1089,2.8113,2.8777,2.9317,2.9644,2.9779,2.9779,2.9734,2.9779,2.981,2.977,2.9291,2.8988,2.8948,2.8484,2.8179,2.8179,2.8179,2.8179,2.8179,2.8179,2.8179,2.8179,2.8179,2.8179,2.8179,2.8179,2.8179,2.8179,2.8179,2.8179,2.8179,2.8179,2.8179,2.8179,2.8179,2.8179,2.8179,2.8179,2.8165,2.8125,2.8125,2.8098,2.8072,2.8072,2.8072,2.8031,2.7736,2.7523,2.7349,2.7602,2.7696,2.7749,2.8085,2.8179,2.8179,2.8179,2.8179,2.8179,2.8179,2.8179,2.8179,2.8179,2.8179,2.8179,2.8179,2.8179,2.8179,2.8179,2.8179,2.8179,2.8179,2.8179,2.8179,2.8179,2.8179,2.8179,2.8179,2.8179,2.8179,2.8179,2.8179,2.8179,2.8179,2.843,2.8631,2.8657,2.8631,2.8631,2.8671,2.8379,2.8326,2.8591,2.8644,2.8804,2.9055,2.9095,2.9108,2.9108,2.9108,2.9375,2.9913,2.9659,2.9526,2.9472,2.9205,2.9028,2.9001,2.9041,2.9055,2.9081,2.9432,2.9539,2.9606,3.0199,3.0453,3.0541,2.8777,2.9285,2.9644,2.9869,2.9913,2.9913,2.9913,2.9913,2.9913,2.9913,2.9553,2.9219,2.9015,2.8497,2.8179,2.8179,2.8179,2.8179,2.8179,2.8179,2.8179,2.8179,2.8179,2.8179,2.8179,2.8179,2.8179,2.8179,2.8179,2.8179,2.8179,2.8179,2.8179,2.8179,2.8179,2.8179,2.8179,2.8179,2.8179,2.8179,2.8179,2.8179,2.8179,2.8179,2.8179,2.8165,2.8031,2.7911,2.7817,2.7951,2.7991,2.8005,2.8138,2.8179,2.8179,2.8179,2.8179,2.8179,2.8179,2.8179,2.8179,2.8179,2.8179,2.8179,2.8179,2.8179,2.8179,2.8179,2.8179,2.8179,2.8179,2.8179,2.8179,2.8179,2.8179,2.8179,2.8179,2.8179,2.8179,2.8179,2.8179,2.8179,2.8179,2.843,2.8604,2.8604,2.8604,2.8604,2.8604,2.8353,2.8245,2.8379,2.8524,2.8671,2.8804,2.8921,2.9001,2.9001,2.9001,2.9135,2.9375,2.9255,2.9152,2.8991,2.8858,2.8698,2.8551,2.8724,2.8804,2.8831,2.9081,2.9339,2.9513,2.9824,3.0119,3.044]},{"header":{"parameterUnit":"m.s-1","parameterCategory":1,"la1":30.6,"la2":28.766,"lo1":-90.7593,"lo2":-88.6598,"dy":0.0162,"dx":0.0183,"nx":116,"ny":114,"refTime":"2023-09-29T00:00:00:Z","depth":0,"parameterNumber":3,"parameterNumberName":"V-component_of_WINDS"},"data":[0.0,0.0,0.0,0.0,0.0,0.0,0.0,0.0,0.0,0.0,0.0,0.0,0.0,0.0,0.0,0.0,0.0,0.0,0.0,0.0,0.0,0.0,0.0,0.0,0.0,0.0,0.0,0.0,0.0,0.0,0.0,0.0,0.0,0.0,0.0,0.0,0.0,0.0,0.0,0.0,0.0,0.0,0.0,0.0,0.0,0.0,0.0,0.0,0.0,0.0,0.0,0.0,0.0,0.0,0.0,0.0,0.0,0.0,0.0,0.0,0.0,0.0,0.0,0.0,0.0,0.0,0.0,0.0,0.0,0.0,0.0,0.0,0.0,0.0,0.0,0.0,0.0,0.0,0.0,0.0,0.0,0.0,0.0,0.0,0.0,0.0,0.0,0.0,0.0,0.0,0.0,0.0,0.0,0.0,0.0,0.0,0.0,0.0,0.0,0.0,0.0,0.0,0.0,0.0,0.0,0.0,0.0,0.0,0.0,0.0,0.0,0.0,0.0,0.0,0.0,0.0,0.0,0.0,0.0,0.0,0.0,0.0,0.0,0.0,0.0,0.0,0.0,0.0,0.0,0.0,0.0,0.0,0.0,0.0,0.0,0.0,0.0,0.0,0.0,0.0,0.0,0.0,0.0,0.0,0.0,0.0,0.0,0.0,0.0,0.0,0.0,0.0,0.0,0.0,0.0,0.0,0.0,0.0,0.0,0.0,0.0,0.0,0.0,0.0,0.0,0.0,0.0,0.0,0.0,0.0,0.0,0.0,0.0,0.0,0.0,0.0,0.0,0.0,0.0,0.0,0.0,0.0,0.0,0.0,0.0,0.0,0.0,0.0,0.0,0.0,0.0,0.0,0.0,0.0,0.0,0.0,0.0,0.0,0.0,0.0,0.0,0.0,0.0,0.0,0.0,0.0,0.0,0.0,0.0,0.0,0.0,0.0,0.0,0.0,0.0,0.0,0.0,0.0,0.0,0.0,0.0,0.0,0.0,0.0,0.0,0.0,0.0,0.0,0.0,0.0,0.0,0.0,0.0,0.0,0.0,0.0,0.0,0.0,0.0,0.0,0.0,0.0,0.0,0.0,0.0,0.0,0.0,0.0,0.0,0.0,0.0,0.0,0.0,0.0,0.0,0.0,0.0,0.0,0.0,0.0,0.0,0.0,0.0,0.0,0.0,0.0,0.0,0.0,0.0,0.0,0.0,0.0,0.0,0.0,0.0,0.0,0.0,0.0,0.0,0.0,0.0,0.0,0.0,0.0,0.0,0.0,0.0,0.0,0.0,0.0,0.0,0.0,0.0,0.0,0.0,0.0,0.0,0.0,0.0,0.0,0.0,0.0,0.0,0.0,0.0,0.0,0.0,0.0,0.0,0.0,0.0,0.0,0.0,0.0,0.0,0.0,0.0,0.0,0.0,0.0,0.0,0.0,0.0,0.0,0.0,0.0,0.0,0.0,0.0,0.0,0.0,0.0,0.0,0.0,0.0,0.0,0.0,0.0,0.0,0.0,0.0,0.0,0.0,0.0,0.0,0.0,0.0,0.0,0.0,0.0,0.0,0.0,0.0,0.0,0.0,0.0,0.0,0.0,0.0,0.0,0.0,0.0,0.0,0.0,0.0,0.0,0.0,0.0,0.0,0.0,0.0,0.0,0.0,0.0,0.0,0.0,0.0,0.0,0.0,0.0,0.0,0.0,0.0,0.0,0.0,0.0,0.0,0.0,0.0,0.0,0.0,0.0,0.0,0.0,0.0,0.0,0.0,0.0,0.0,0.0,0.0,0.0,0.0,0.0,0.0,0.0,0.0,0.0,0.0,0.0,0.0,0.0,0.0,0.0,0.0,0.0,0.0,0.0,0.0,0.0,0.0,0.0,0.0,0.0,0.0,0.0,0.0,0.0,0.0,0.0,0.0,0.0,0.0,0.0,0.0,0.0,0.0,0.0,0.0,0.0,0.0,0.0,0.0,0.0,0.0,0.0,0.0,0.0,0.0,0.0,0.0,0.0,0.0,0.0,0.0,0.0,0.0,0.0,0.0,0.0,0.0,0.0,0.0,0.0,0.0,0.0,0.0,0.0,0.0,0.0,0.0,0.0,0.0,0.0,0.0,0.0,0.0,0.0,0.0,0.0,0.0,0.0,0.0,0.0,0.0,0.0,0.0,0.0,0.0,0.0,0.0,0.0,0.0,0.0,0.0,0.0,0.0,0.0,0.0,0.0,0.0,0.0,0.0,0.0,0.0,0.0,0.0,0.0,0.0,0.0,0.0,0.0,0.0,0.0,0.0,0.0,0.0,0.0,0.0,0.0,0.0,0.0,0.0,0.0,0.0,0.0,0.0,0.0,0.0,0.0,0.0,0.0,0.0,0.0,0.0,0.0,0.0,0.0,0.0,0.0,0.0,0.0,0.0,0.0,0.0,0.0,0.0,0.0,0.0,0.0,0.0,0.0,0.0,0.0,0.0,0.0,0.0,0.0,0.0,0.0,0.0,0.0,0.0,0.0,0.0,0.0,0.0,0.0,0.0,0.0,0.0,0.0,0.0,0.0,0.0,0.0,0.0,0.0,0.0,0.0,0.0,0.0,0.0,0.0,0.0,0.0,0.0,0.0,0.0,0.0,0.0,0.0,0.0,0.0,0.0,0.0,0.0,0.0,0.0,0.0,0.0,0.0,0.0,0.0,0.0,0.0,0.0,0.0,0.0,0.0,0.0,0.0,0.0,0.0,0.0,0.0,0.0,0.0,0.0,0.0,0.0,0.0,0.0,0.0,0.0,0.0,0.0,0.0,0.0,0.0,0.0,0.0,0.0,0.0,0.0,0.0,0.0,0.0,0.0,0.0,0.0,0.0,0.0,0.0,0.0,0.0,0.0,0.0,0.0,0.0,0.0,0.0,0.0,0.0,0.0,0.0,0.0,0.0,0.0,0.0,0.0,0.0,0.0,0.0,0.0,0.0,0.0,0.0,0.0,0.0,0.0,0.0,0.0,0.0,0.0,0.0,0.0,0.0,0.0,0.0,0.0,0.0,0.0,0.0,0.0,0.0,0.0,0.0,0.0,0.0,0.0,0.0,0.0,0.0,0.0,0.0,0.0,0.0,0.0,0.0,0.0,0.0,0.0,0.0,0.0,0.0,0.0,0.0,0.0,0.0,0.0,0.0,0.0,0.0,0.0,0.0,0.0,0.0,0.0,0.0,0.0,0.0,0.0,0.0,0.0,0.0,0.0,0.0,0.0,0.0,0.0,0.0,0.0,0.0,0.0,0.0,0.0,0.0,0.0,0.0,0.0,0.0,0.0,0.0,0.0,0.0,0.0,0.0,0.0,0.0,0.0,0.0,0.0,0.0,0.0,0.0,0.0,0.0,0.0,0.0,0.0,0.0,0.0,0.0,0.0,0.0,0.0,0.0,0.0,0.0,0.0,0.0,0.0,0.0,0.0,0.0,0.0,0.0,0.0,0.0,0.0,0.0,0.0,0.0,0.0,0.0,0.0,0.0,0.0,0.0,0.0,0.0,0.0,0.0,0.0,0.0,0.0,0.0,0.0,0.0,0.0,0.0,0.0,0.0,0.0,0.0,0.0,0.0,0.0,0.0,0.0,0.0,0.0,0.0,0.0,0.0,0.0,0.0,0.0,0.0,0.0,0.0,0.0,0.0,0.0,0.0,0.0,0.0,0.0,0.0,0.0,0.0,0.0,0.0,0.0,0.0,0.0,0.0,0.0,0.0,0.0,0.0,0.0,0.0,0.0,0.0,0.0,0.0,0.0,0.0,0.0,0.0,0.0,0.0,0.0,0.0,0.0,0.0,0.0,0.0,0.0,0.0,0.0,0.0,0.0,0.0,0.0,0.0,0.0,0.0,0.0,0.0,0.0,0.0,0.0,0.0,0.0,0.0,0.0,0.0,0.0,0.0,0.0,0.0,0.0,0.0,0.0,0.0,0.0,0.0,0.0,0.0,0.0,0.0,0.0,0.0,0.0,0.0,0.0,0.0,0.0,0.0,0.0,0.0,0.0,0.0,0.0,0.0,0.0,0.0,0.0,0.0,0.0,0.0,0.0,0.0,0.0,0.0,0.0,0.0,0.0,0.0,0.0,0.0,0.0,0.0,0.0,0.0,0.0,0.0,0.0,0.0,0.0,0.0,0.0,0.0,0.0,0.0,0.0,0.0,0.0,0.0,0.0,0.0,0.0,0.0,0.0,0.0,0.0,0.0,0.0,0.0,0.0,0.0,0.0,0.0,0.0,0.0,0.0,0.0,0.0,0.0,0.0,0.0,0.0,0.0,0.0,0.0,0.0,0.0,0.0,0.0,0.0,0.0,0.0,0.0,0.0,0.0,0.0,0.0,0.0,0.0,0.0,0.0,0.0,0.0,0.0,0.0,0.0,0.0,0.0,0.0,0.0,0.0,0.0,0.0,0.0,0.0,0.0,0.0,0.0,0.0,0.0,0.0,0.0,0.0,0.0,0.0,0.0,0.0,0.0,0.0,0.0,0.0,0.0,0.0,0.0,0.0,0.0,0.0,0.0,0.0,0.0,0.0,0.0,0.0,0.0,0.0,0.0,0.0,0.0,0.0,0.0,0.0,0.0,0.0,0.0,0.0,0.0,0.0,0.0,0.0,0.0,0.0,0.0,0.0,0.0,0.0,0.0,0.0,0.0,0.0,0.0,0.0,0.0,0.0,0.0,0.0,0.0,0.0,0.0,0.0,0.0,0.0,0.0,0.0,0.0,0.0,0.0,0.0,0.0,0.0,0.0,0.0,0.0,0.0,0.0,0.0,0.0,0.0,0.0,0.0,0.0,0.0,0.0,0.0,0.0,0.0,0.0,0.0,0.0,0.0,0.0,0.0,0.0,0.0,0.0,0.0,0.0,0.0,0.0,0.0,0.0,0.0,0.0,0.0,0.0,0.0,0.0,0.0,0.0,0.0,0.0,0.0,0.0,0.0,0.0,0.0,0.0,0.0,0.0,0.0,0.0,0.0,0.0,0.0,0.0,0.0,0.0,0.0,0.0,0.0,0.0,0.0,0.0,0.0,0.0,0.0,0.0,0.0,0.0,0.0,0.0,0.0,0.0,0.0,0.0,0.0,0.0,0.0,0.0,0.0,0.0,0.0,0.0,0.0,0.0,0.0,0.0,0.0,0.0,0.0,0.0,0.0,0.0,0.0,0.0,0.0,0.0,0.0,0.0,0.0,0.0,0.0,0.0,0.0,0.0,0.0,0.0,0.0,0.0,0.0,0.0,0.0,0.0,0.0,0.0,0.0,0.0,0.0,0.0,0.0,0.0,0.0,0.0,0.0,0.0,0.0,0.0,0.0,0.0,0.0,0.0,0.0,0.0,0.0,0.0,0.0,0.0,0.0,0.0,0.0,0.0,0.0,0.0,0.0,0.0,0.0,0.0,0.0,0.0,0.0,0.0,0.0,0.0,0.0,0.0,0.0,0.0,0.0,0.0,0.0,0.0,0.0,0.0,0.0,0.0,0.0,0.0,0.0,0.0,0.0,0.0,0.0,0.0,0.0,0.0,0.0,0.0,0.0,0.0,0.0,0.0,0.0,0.0,0.0,0.0,0.0,0.0,0.0,0.0,0.0,0.0,0.0,0.0,0.0,0.0,0.0,0.0,0.0,0.0,0.0,0.0,0.0,0.0,0.0,0.0,0.0,0.0,0.0,0.0,0.0,0.0,0.0,0.0,0.0,0.0,0.0,0.0,0.0,0.0,0.0,0.0,0.0,0.0,0.0,0.0,0.0,0.0,0.0,0.0,0.0,0.0,0.0,0.0,0.0,0.0,0.0,0.0,0.0,0.0,0.0,0.0,0.0,0.0,0.0,0.0,0.0,0.0,0.0,0.0,0.0,0.0,0.0,0.0,0.0,0.0,0.0,0.0,0.0,0.0,0.0,0.0,0.0,0.0,0.0,0.0,0.0,0.0,0.0,0.0,0.0,0.0,0.0,0.0,0.0,0.0,0.0,0.0,0.0,0.0,0.0,0.0,0.0,0.0,0.0,0.0,0.0,0.0,0.0,0.0,0.0,0.0,0.0,0.0,0.0,0.0,0.0,0.0,0.0,0.0,0.0,0.0,0.0,0.0,0.0,0.0,0.0,0.0,0.0,5.9219,0.0,0.0,0.0,0.0,0.0,0.0,0.0,0.0,0.0,0.0,0.0,0.0,0.0,0.0,0.0,0.0,0.0,0.0,0.0,0.0,0.0,0.0,0.0,0.0,0.0,0.0,0.0,0.0,0.0,0.0,0.0,0.0,0.0,0.0,0.0,0.0,0.0,0.0,4.6912,4.8201,4.9256,5.0037,5.0029,4.9547,4.8747,0.0,0.0,0.0,0.0,0.0,0.0,0.0,0.0,0.0,0.0,0.0,0.0,0.0,0.0,0.0,0.0,0.0,0.0,0.0,0.0,0.0,0.0,0.0,0.0,0.0,0.0,0.0,0.0,0.0,0.0,0.0,0.0,0.0,0.0,0.0,0.0,0.0,0.0,0.0,0.0,0.0,0.0,0.0,0.0,0.0,0.0,0.0,0.0,0.0,0.0,0.0,0.0,0.0,0.0,0.0,0.0,0.0,0.0,0.0,0.0,0.0,0.0,0.0,0.0,0.0,0.0,0.0,0.0,0.0,0.0,0.0,6.0156,0.0,0.0,0.0,0.0,0.0,0.0,0.0,0.0,0.0,0.0,0.0,0.0,0.0,0.0,0.0,0.0,0.0,0.0,0.0,0.0,0.0,0.0,0.0,4.6523,4.6601,4.6758,4.6758,4.668,0.0,0.0,0.0,0.0,0.0,0.0,4.6523,4.7226,4.7734,4.8047,4.9805,5.1406,5.293,5.293,5.1755,4.9709,4.9709,0.0,0.0,0.0,0.0,0.0,0.0,0.0,0.0,0.0,0.0,0.0,0.0,0.0,0.0,0.0,0.0,0.0,0.0,0.0,0.0,0.0,0.0,0.0,0.0,0.0,0.0,0.0,0.0,0.0,0.0,0.0,0.0,0.0,0.0,0.0,0.0,0.0,0.0,0.0,0.0,0.0,0.0,0.0,0.0,0.0,0.0,0.0,0.0,0.0,0.0,0.0,0.0,0.0,0.0,0.0,0.0,0.0,0.0,0.0,0.0,0.0,0.0,0.0,6.7768,6.8163,6.8867,6.8867,6.8867,6.8672,6.5078,6.2851,6.1719,6.1289,0.0,0.0,0.0,0.0,0.0,0.0,0.0,0.0,0.0,0.0,0.0,0.0,0.0,0.0,0.0,0.0,0.0,0.0,0.0,4.6601,4.7344,4.7422,4.7734,4.8476,4.8555,4.8242,4.7461,0.0,0.0,0.0,0.0,0.0,4.7421,4.7535,4.8355,4.9842,5.1562,5.2851,5.3828,5.3828,5.3633,5.332,5.332,5.332,5.3203,0.0,0.0,0.0,0.0,0.0,0.0,0.0,0.0,0.0,0.0,0.0,0.0,0.0,0.0,0.0,0.0,0.0,0.0,0.0,0.0,0.0,0.0,0.0,0.0,0.0,0.0,0.0,0.0,0.0,0.0,0.0,0.0,0.0,0.0,0.0,0.0,0.0,0.0,0.0,0.0,0.0,5.6132,5.6243,0.0,0.0,0.0,0.0,0.0,0.0,0.0,0.0,0.0,0.0,0.0,0.0,0.0,6.6601,6.8447,6.9329,7.0286,7.1317,7.1323,7.1405,7.1484,7.1484,7.1484,7.1484,7.0898,0.0,6.6992,6.4726,0.0,0.0,0.0,0.0,0.0,0.0,0.0,0.0,0.0,0.0,0.0,0.0,0.0,0.0,0.0,0.0,0.0,0.0,0.0,0.0,0.0,4.8047,4.8672,4.9531,4.9648,4.9453,4.9101,4.8125,0.0,0.0,0.0,4.7222,4.7573,4.9013,5.104,5.3733,5.4478,5.5261,5.6159,5.6159,5.5888,5.5423,5.5931,5.5349,5.3945,5.3203,0.0,0.0,0.0,0.0,0.0,0.0,0.0,0.0,0.0,0.0,0.0,0.0,0.0,0.0,0.0,0.0,0.0,0.0,0.0,0.0,0.0,0.0,0.0,0.0,0.0,0.0,0.0,0.0,0.0,0.0,0.0,0.0,0.0,0.0,0.0,0.0,0.0,0.0,0.0,5.6601,5.7851,5.9293,5.9009,5.8521,0.0,0.0,0.0,0.0,0.0,0.0,0.0,0.0,0.0,6.7686,6.8997,7.0459,7.2191,7.3107,7.4249,7.5581,7.5155,7.5195,7.5664,7.5664,7.5664,7.5664,7.5664,7.4726,7.293,6.8906,6.6406,6.5039,0.0,0.0,0.0,0.0,6.0625,6.0742,0.0,0.0,0.0,0.0,0.0,0.0,0.0,0.0,0.0,0.0,0.0,0.0,4.7851,4.8906,4.9883,5.0742,5.0859,5.0742,5.0508,4.9101,4.8162,4.7927,4.7919,4.7991,4.8223,5.0947,5.371,5.647,5.6708,5.7138,5.7764,5.7531,5.7107,5.6492,5.7393,5.6745,5.4961,5.4765,5.4297,5.3594,0.0,0.0,0.0,0.0,0.0,0.0,0.0,0.0,0.0,0.0,0.0,0.0,0.0,0.0,0.0,0.0,0.0,0.0,0.0,0.0,0.0,0.0,0.0,0.0,0.0,0.0,0.0,0.0,0.0,0.0,0.0,0.0,0.0,0.0,0.0,0.0,0.0,5.9101,6.039,6.2733,6.2452,6.1933,0.0,0.0,0.0,0.0,0.0,0.0,6.7834,6.8435,6.9704,7.1878,7.3066,7.4245,7.5495,7.6402,7.7498,7.8749,7.8125,7.8164,7.8828,7.8828,7.8828,7.8828,7.8828,7.8437,7.7461,7.2734,6.9765,6.8047,6.6289,6.5078,6.4219,6.3359,6.3047,6.3164,0.0,0.0,0.0,0.0,0.0,0.0,0.0,0.0,0.0,0.0,0.0,4.7851,4.875,5.0273,5.1641,5.25,5.2578,5.2226,5.1406,5.0546,4.9684,4.8782,4.8721,4.9088,4.9853,5.3194,5.5408,5.642,5.7216,5.7653,5.7692,5.6875,5.6446,5.6447,5.7399,5.7746,5.7654,5.6834,5.6445,5.625,5.4531,0.0,0.0,0.0,0.0,0.0,0.0,0.0,0.0,0.0,0.0,0.0,0.0,0.0,0.0,0.0,0.0,0.0,0.0,0.0,0.0,0.0,0.0,0.0,0.0,0.0,0.0,0.0,0.0,0.0,0.0,0.0,0.0,0.0,0.0,0.0,0.0,0.0,0.0,6.6443,6.6558,0.0,0.0,0.0,0.0,6.6485,6.8035,6.9796,7.1616,7.3257,7.4593,7.5582,7.7223,7.8162,7.8281,7.9101,7.9531,7.9648,7.9609,7.9609,7.9648,7.9648,7.9648,7.9648,7.9648,7.9609,7.9297,7.5781,7.332,7.1562,6.9805,6.8633,6.7812,6.6953,6.664,6.6758,0.0,0.0,0.0,0.0,0.0,0.0,0.0,0.0,4.6484,4.707,4.7422,4.8164,4.957,5.0742,5.1758,5.2617,5.2695,5.2578,5.2266,5.0935,4.9993,4.9635,4.9647,5.0501,5.239,5.4154,5.5719,5.7124,5.7388,5.7501,5.7501,5.719,5.6783,5.6314,5.7803,5.849,5.8529,5.8297,5.7567,5.6476,5.5896,5.4647,0.0,0.0,0.0,0.0,0.0,0.0,0.0,0.0,0.0,0.0,0.0,0.0,0.0,0.0,0.0,0.0,0.0,0.0,0.0,0.0,0.0,0.0,0.0,0.0,0.0,0.0,0.0,0.0,0.0,0.0,0.0,0.0,0.0,0.0,0.0,0.0,0.0,7.0625,7.0506,0.0,7.0503,7.0534,7.0881,7.1741,7.2871,7.4281,7.6047,7.6673,7.7418,7.832,7.9453,8.0078,8.0117,8.0937,8.1367,8.1367,8.1367,8.1367,8.1367,8.1367,8.1367,8.1367,8.1367,8.0742,7.9609,7.8398,7.6875,7.5117,7.2812,7.1719,7.1328,6.9883,6.9336,6.9297,0.0,0.0,0.0,0.0,0.0,0.0,0.0,4.6289,4.6601,4.75,4.7851,4.8594,5.0039,5.1172,5.207,5.2656,5.2695,5.2695,5.2695,5.1325,5.0536,5.053,5.0798,5.1935,5.4141,5.4998,5.6074,5.7486,5.742,5.7397,5.7346,5.7071,5.6633,5.622,5.7995,5.8798,5.8888,5.9591,5.9094,5.7786,5.753,5.6598,5.5271,0.0,0.0,0.0,0.0,0.0,0.0,0.0,0.0,0.0,0.0,0.0,0.0,0.0,0.0,0.0,0.0,0.0,0.0,0.0,0.0,0.0,0.0,0.0,0.0,0.0,0.0,0.0,0.0,0.0,0.0,0.0,0.0,0.0,0.0,6.8164,7.0547,7.457,7.4531,7.453,7.539,7.5466,7.5699,7.6285,7.6871,7.7809,7.9217,7.9296,7.9687,8.0547,8.1133,8.1445,8.1445,8.1992,8.2304,8.2304,8.2304,8.2304,8.2304,8.2304,8.2304,8.2304,8.2304,8.164,8.0547,7.9922,7.9062,7.7773,7.5195,7.418,7.3984,7.2539,7.1836,7.1445,0.0,0.0,0.0,0.0,0.0,0.0,4.6289,4.6289,4.6601,4.7539,4.8398,4.9258,5.0156,5.168,5.2656,5.2656,5.2656,5.2656,5.2656,5.1872,5.1396,5.1428,5.2131,5.3312,5.4974,5.5792,5.659,5.7365,5.7365,5.734,5.7258,5.6399,5.6008,5.6132,5.7885,5.87,5.8874,6.073,6.109,6.0351,5.9475,5.8665,5.7849,0.0,0.0,0.0,0.0,0.0,0.0,0.0,0.0,0.0,0.0,0.0,0.0,0.0,0.0,0.0,0.0,0.0,0.0,0.0,0.0,0.0,0.0,0.0,0.0,0.0,0.0,0.0,0.0,0.0,0.0,0.0,0.0,0.0,6.9531,7.1836,7.4765,7.8203,7.8672,7.9023,7.9805,7.9883,7.9883,7.9844,7.9844,8.0195,8.1054,8.1054,8.1445,8.2265,8.2304,8.2304,8.2304,8.2304,8.2304,8.2304,8.2304,8.2304,8.2304,8.2304,8.2304,8.2304,8.2304,8.2265,8.2148,8.0429,7.9726,7.9453,7.6914,7.5937,7.582,7.4961,7.4062,7.3164,0.0,0.0,0.0,0.0,0.0,0.0,4.6289,4.6289,4.6836,4.8359,4.875,4.9453,5.0898,5.1484,5.1758,5.1758,5.1758,5.1758,5.1758,5.1522,5.167,5.2227,5.309,5.4004,5.5041,5.5802,5.628,5.6474,5.6411,5.6373,5.636,5.6124,5.6377,5.7073,5.8139,5.9018,5.9806,6.0993,6.1398,6.1203,6.0358,5.9518,5.8744,0.0,0.0,0.0,0.0,0.0,0.0,0.0,0.0,0.0,0.0,0.0,0.0,0.0,0.0,0.0,0.0,0.0,0.0,0.0,0.0,0.0,0.0,0.0,0.0,0.0,0.0,0.0,0.0,0.0,0.0,0.0,7.0859,7.3633,7.3242,7.543,7.8125,8.0937,8.2383,8.3242,8.3437,8.4023,8.414,8.3515,8.289,8.2617,8.2851,8.2304,8.2031,8.2304,8.2304,8.2304,8.2304,8.2304,8.2304,8.2304,8.2304,8.2304,8.2304,8.2304,8.2304,8.2304,8.2304,8.1953,8.1328,8.0859,8.0273,7.9492,7.7578,7.6836,7.6758,7.5858,7.4604,7.3268,0.0,0.0,0.0,0.0,0.0,0.0,4.6286,4.66,4.7343,4.8711,4.9219,4.9922,5.125,5.1406,5.1406,5.1406,5.1406,5.1406,5.1406,5.1757,5.2337,5.3131,5.3976,5.4838,5.5623,5.6046,5.6251,5.6149,5.6106,5.6257,5.6574,5.6574,5.7055,5.7978,5.8824,5.9498,6.0112,6.107,6.1765,6.2093,6.1687,6.1198,6.0734,6.0781,6.0781,6.0742,6.039,6.0234,6.0234,6.0234,0.0,0.0,0.0,0.0,0.0,0.0,0.0,0.0,0.0,0.0,0.0,0.0,0.0,0.0,0.0,0.0,0.0,0.0,0.0,0.0,0.0,0.0,0.0,0.0,7.5156,7.8242,7.8828,8.0234,8.1992,8.4219,8.5664,8.664,8.6992,8.7148,8.6914,8.6054,8.5195,8.4531,8.414,8.3672,8.3398,8.3398,8.3398,8.3398,8.3398,8.3047,8.2851,8.2851,8.2461,8.2304,8.2304,8.2304,8.2304,8.2304,8.2304,8.1992,8.1523,8.1132,8.0701,0.0,0.0,0.0,0.0,0.0,7.522,7.4223,0.0,0.0,0.0,0.0,0.0,0.0,4.6271,4.7023,4.7887,4.8786,4.9647,5.0508,5.1328,5.1406,5.1406,5.1406,5.1406,5.1406,5.1406,5.2226,5.3082,5.3969,5.4782,5.5582,5.6395,5.6414,5.6361,5.6215,5.6329,5.6725,5.7441,5.7518,5.8065,5.8926,5.9691,6.0148,6.0394,6.1298,6.2212,6.3098,6.334,6.3312,6.3157,6.3241,6.3281,6.3203,6.2539,6.2305,6.2305,6.2305,0.0,0.0,0.0,0.0,0.0,0.0,0.0,0.0,0.0,0.0,0.0,0.0,0.0,0.0,0.0,0.0,0.0,0.0,0.0,0.0,0.0,0.0,0.0,0.0,7.9335,8.246,8.496,8.5507,8.6093,8.7461,8.8437,8.9258,8.9922,8.9375,8.8633,8.7695,8.6836,8.5937,8.5078,0.0,0.0,0.0,0.0,8.5,8.4883,8.4219,8.3789,8.3594,8.2812,8.2383,8.2304,8.2304,8.2304,8.2304,8.2304,8.2302,8.2221,8.1439,8.1078,8.0827,7.9253,7.8554,7.8279,7.6667,7.594,7.5516,0.0,0.0,0.0,0.0,0.0,0.0,4.6212,4.6958,4.7824,4.8696,4.9597,5.0461,5.1327,5.1405,5.1406,5.1406,5.1406,5.1406,5.1406,5.2226,5.3085,5.3941,5.4839,5.5653,5.6454,5.6481,5.6463,5.6436,5.7084,5.7502,5.765,5.8355,5.9174,5.9993,6.0157,6.1029,6.2333,6.2556,6.3162,6.4154,6.5579,6.531,6.4138,6.4843,6.5117,6.5156,6.5703,6.5898,6.5898,6.5898,6.5312,6.4609,6.4609,6.3515,0.0,0.0,0.0,0.0,0.0,0.0,0.0,0.0,0.0,0.0,0.0,0.0,0.0,0.0,0.0,0.0,0.0,0.0,0.0,7.9434,8.2869,8.5755,8.7619,8.9103,8.9627,8.8593,8.9844,9.0586,9.0039,9.0469,9.0156,8.8591,8.7654,8.6793,8.5929,8.5269,8.4919,8.4919,8.5585,8.5625,8.4922,8.5429,8.5,8.3592,0.0,0.0,8.2207,8.2207,8.2203,8.2232,8.2232,8.2231,8.2188,8.1981,8.1453,8.0731,7.9757,7.8975,7.8286,7.787,7.6785,7.5426,0.0,0.0,0.0,0.0,0.0,0.0,4.6084,4.7247,4.8247,4.8691,4.9882,5.0872,5.131,5.1393,5.1397,5.1402,5.1795,5.2031,5.2031,5.3281,5.4219,5.4648,5.5507,5.6326,5.7179,5.7215,5.7402,5.7817,5.8202,5.8624,5.9047,5.9515,6.0178,6.1037,6.1475,6.2146,6.2972,6.3417,6.4363,6.5695,6.6561,6.6913,6.6953,6.7383,6.7539,6.7578,6.8008,6.8164,6.8164,6.8164,6.7851,6.75,6.7539,6.664,6.5508,0.0,0.0,0.0,0.0,0.0,0.0,0.0,0.0,0.0,0.0,0.0,0.0,0.0,0.0,7.3186,7.4822,0.0,8.0508,8.3069,8.6027,8.8554,9.0222,9.1588,9.181,9.0138,9.1119,9.1744,9.1275,9.1236,9.0882,9.0017,8.9157,8.8451,8.8015,8.763,8.7399,8.7399,8.7834,8.7837,8.7407,8.6978,8.6312,8.5447,8.4583,8.3673,8.2799,8.2789,8.2546,8.2148,8.2148,8.2136,8.2109,8.1957,8.1636,8.123,8.0759,7.9867,7.879,7.8333,7.7492,7.6479,0.0,0.0,0.0,0.0,0.0,0.0,0.0,4.7835,4.8903,4.8915,5.0288,5.1255,5.1268,5.1317,5.1369,5.1384,5.2177,5.269,5.2691,5.449,5.5546,5.5546,5.6522,5.7422,5.8124,5.8163,5.8551,5.9363,5.9519,6.0062,6.0914,6.107,6.1539,6.224,6.2952,6.3424,6.3816,6.4528,6.5819,6.7382,6.7578,6.8476,6.9765,6.9922,6.9844,6.9687,6.9844,6.9922,6.9922,6.9922,7.0039,7.0156,7.0234,6.9648,6.8789,6.8086,6.6914,0.0,0.0,0.0,0.0,0.0,0.0,0.0,0.0,7.1851,7.3319,7.4448,7.6505,7.8365,7.9333,8.2049,8.4722,8.6576,8.8776,9.0785,9.2444,9.3302,9.3247,9.1975,9.2331,9.2667,9.2471,9.1847,9.1414,9.1403,9.0738,9.0343,9.0332,9.0185,9.0072,9.0072,9.0122,9.0049,8.9891,8.8644,8.778,8.7225,8.5841,8.461,8.3576,8.3555,8.3109,8.2242,8.2086,8.1978,8.1905,8.1721,8.1645,8.1669,8.1619,8.084,7.9695,7.882,7.8163,7.7532,0.0,0.0,0.0,0.0,0.0,0.0,0.0,0.0,4.9605,4.9651,5.0528,5.1157,5.1205,5.1214,5.1237,5.1321,5.2106,5.2658,5.2705,5.5008,5.6381,5.6351,5.7952,5.8896,5.9061,5.9061,5.9453,6.0234,6.1015,6.1875,6.2734,6.3515,6.3906,6.4023,6.4101,6.5,6.6484,6.6562,6.7578,6.918,6.9961,7.039,7.0664,7.1445,7.125,7.0664,7.1445,7.1719,7.1719,7.1719,7.2226,7.2851,7.2851,7.2265,7.1562,7.1445,6.9219,6.6719,6.6522,6.6983,6.7752,6.861,7.0748,7.3037,0.0,7.5744,7.71,7.9459,8.0817,8.2008,8.3519,8.5374,8.7432,8.9722,9.098,9.2231,9.3834,9.4171,9.4139,9.3956,9.3667,9.3161,9.2383,9.2227,9.2164,9.21,9.2016,9.1906,9.1866,9.1194,9.0804,9.0804,9.0908,9.0586,8.9804,9.0389,8.9468,8.7108,8.691,8.5902,8.4188,8.4183,8.367,8.2774,8.1998,8.1618,8.1558,8.153,8.1523,8.1514,8.1502,8.1361,8.1078,8.0275,7.8894,7.7441,0.0,0.0,0.0,0.0,0.0,0.0,0.0,0.0,4.9637,4.9685,5.0467,5.106,5.1077,5.1128,5.113,5.1165,5.2464,5.3543,5.4053,5.6023,5.7633,5.8654,5.9405,6.0273,6.1337,6.1344,6.1779,6.2603,6.3461,6.4086,6.4477,6.534,6.5733,6.5772,6.6325,6.6952,6.7694,6.8203,6.9375,7.0937,7.1328,7.1758,7.2265,7.2617,7.1914,7.0742,7.1094,7.125,0.0,7.0664,7.1406,7.2539,7.2539,7.2656,7.2578,7.1523,6.9882,6.824,6.7758,6.93,7.1154,7.1457,7.4195,7.7124,7.8322,7.9971,8.1695,8.3237,8.498,8.6447,8.7113,8.902,9.0835,0.0,9.2716,9.3639,9.4825,9.5005,9.4818,9.4322,9.4055,9.3817,9.3483,9.3454,9.343,9.3423,9.3418,9.3397,9.3387,9.3075,9.2675,9.2213,9.222,9.186,9.0965,9.081,9.0203,8.9066,8.8069,8.6876,8.5613,8.5119,8.4103,8.2777,8.2353,8.1897,8.144,8.1362,8.1308,8.1319,8.1277,8.1234,8.115,8.0415,7.9609,7.8784,0.0,0.0,0.0,0.0,0.0,0.0,0.0,0.0,0.0,0.0,5.0514,5.0948,5.0971,5.1016,5.1147,5.1389,5.2803,5.4176,5.5304,5.6977,5.8715,6.0514,6.0807,6.1764,6.3503,6.3556,6.4115,6.5256,6.5879,6.6426,6.6894,6.7296,6.7615,6.7892,6.8575,6.9012,6.9287,7.0151,7.1363,7.2691,7.2691,7.2926,7.3278,7.3278,7.2184,7.0661,7.0429,7.0195,6.9883,6.8984,6.9844,7.1289,7.1289,7.1874,7.2342,7.1089,7.0067,6.9272,6.8844,7.1025,7.3597,7.4274,7.7407,8.0618,8.1734,8.3684,8.5513,8.6317,8.8109,8.952,8.9494,9.1197,9.2743,9.3164,9.3731,9.4505,9.5555,9.5517,9.5138,9.4489,9.4219,9.418,9.4476,9.4135,9.4098,9.4581,9.462,9.4684,9.4895,9.4722,9.4349,9.3768,9.3284,9.2755,9.2096,9.1244,9.0689,9.0437,8.9152,8.7945,8.6815,8.5703,8.4361,8.2925,8.2638,8.2077,8.1298,8.1229,8.1177,8.1177,8.1116,8.1093,8.1039,8.0555,8.0155,7.9791,0.0,0.0,0.0,0.0,0.0,0.0,0.0,0.0,0.0,0.0,0.0,0.0,0.0,5.0882,5.1235,5.2089,5.2992,5.425,5.5943,5.7622,5.937,6.1186,6.2087,6.3398,6.5185,6.5226,6.6108,6.7865,6.7904,6.8763,7.0325,6.9586,6.9674,7.0471,7.0515,7.0995,7.183,7.2728,7.3586,7.4408,7.4408,7.3939,7.3199,7.3199,7.2146,7.0593,6.9724,6.8945,6.8125,6.7265,6.8085,6.949,6.949,7.007,7.0762,7.0723,6.998,6.9358,7.0144,7.2178,7.4658,7.7135,8.0242,8.3136,8.4788,8.6506,8.803,8.8828,8.9711,9.0348,9.0269,9.0989,9.2056,9.3624,9.3907,9.445,9.6046,9.5537,9.5007,9.4969,9.4238,9.4045,0.0,9.374,9.3621,9.5239,9.5355,9.5663,9.6393,9.5771,9.5355,9.5316,9.3768,9.2876,9.2876,9.1986,9.1139,9.0293,9.0255,8.9246,8.7417,8.5681,8.4417,8.354,8.2686,8.1839,8.11,8.11,8.1093,8.1093,8.1093,8.1093,8.1093,8.1062,8.0523,7.9785,0.0,0.0,0.0,0.0,0.0,0.0,0.0,0.0,0.0,0.0,0.0,0.0,0.0,0.0,0.0,0.0,5.3786,5.5028,5.6708,5.7938,5.9865,6.2685,6.3141,6.4425,6.6729,6.6792,6.7402,6.8513,6.9096,6.9683,7.0231,7.0597,7.1212,7.204,7.2167,7.2674,7.3505,7.3848,7.4484,7.5267,7.4683,7.4254,7.3864,7.2697,7.0865,6.8722,0.0,6.6965,6.7054,6.5608,6.588,6.6814,6.6808,6.7426,6.8195,6.8704,6.9312,7.0162,7.1552,7.4595,7.7699,7.9094,8.2315,8.55,8.664,8.814,8.9524,9.0396,9.0773,9.0917,9.0884,9.1116,9.1668,9.281,9.2956,9.3554,9.5181,9.4672,9.4143,9.4143,9.3403,0.0,0.0,0.0,0.0,9.5893,9.6009,9.6106,9.6349,9.6145,9.5739,9.5161,9.4579,9.4009,9.3431,9.2622,9.2035,9.1732,9.0045,8.8587,8.7405,8.6217,8.5247,8.4401,8.3555,8.267,8.1862,8.1323,8.1093,8.1093,8.1093,8.1093,8.1093,8.1093,8.09,8.0669,0.0,0.0,0.0,0.0,0.0,0.0,0.0,0.0,0.0,0.0,0.0,0.0,0.0,0.0,0.0,0.0,0.0,5.5321,5.7023,5.7675,5.9403,6.2514,6.2699,6.4048,6.6946,6.7053,6.7619,6.8757,6.9338,6.9924,7.0544,7.081,7.1589,7.2732,7.2808,7.3172,7.3735,7.4094,7.4583,7.5015,7.4119,7.3616,7.3148,7.1402,6.9376,0.0,6.5436,6.5187,6.5422,6.3839,6.4042,6.4967,6.4957,6.5946,6.7268,6.8024,6.9535,7.1465,7.346,7.6614,7.9726,8.1496,8.4368,8.7063,8.8213,8.9483,9.0488,9.0757,9.0561,9.021,8.9902,8.9825,9.021,9.1364,9.2095,9.3095,9.4758,9.4527,9.4181,9.4181,9.3441,9.3249,0.0,0.0,0.0,9.6249,9.6288,9.6288,9.6288,9.6288,9.6057,9.548,9.5181,9.472,9.4181,9.3326,9.2787,9.2479,9.0517,8.9133,8.8248,8.7094,8.6094,8.5286,8.4439,8.3555,8.2716,8.2208,8.1823,8.1516,8.1516,8.1362,8.1093,8.1093,8.1093,8.1093,0.0,0.0,0.0,0.0,0.0,0.0,0.0,0.0,0.0,0.0,0.0,0.0,0.0,0.0,0.0,0.0,0.0,0.0,5.6907,5.6983,5.8165,6.0724,6.0883,6.248,6.5864,6.5986,6.6863,6.8573,6.8573,6.9429,7.1059,7.0242,7.0771,7.245,7.2455,7.2525,7.2691,7.352,7.3835,7.3719,7.2832,7.1974,7.1004,6.9341,6.7635,6.5959,6.4369,6.3705,6.3437,6.2107,6.2723,6.4045,6.4161,6.5865,6.7971,6.8762,7.0761,7.3323,7.5851,7.8332,8.0968,8.4281,8.6343,8.794,8.947,9.0509,9.0855,8.997,8.9094,8.8256,0.0,0.0,8.7786,8.947,9.1248,9.2979,9.4681,9.4912,9.4951,0.0,0.0,0.0,0.0,0.0,0.0,9.6288,9.6326,9.6288,9.6288,9.6288,9.6288,9.6288,9.5489,9.5066,9.5066,9.422,9.3364,9.2556,9.1633,9.0787,8.9893,8.8248,8.6978,8.6132,8.5316,8.4478,8.3678,8.3601,8.3101,8.2362,8.2362,8.1862,8.117,8.117,8.1131,8.1093,0.0,0.0,0.0,0.0,0.0,0.0,0.0,0.0,0.0,0.0,0.0,0.0,0.0,0.0,0.0,0.0,0.0,0.0,5.6945,5.6983,5.783,5.9765,6.0464,6.1828,6.3969,6.4669,6.5522,6.6625,6.6625,6.7164,6.8172,6.7984,6.8829,7.0507,7.0567,7.0966,7.1601,7.1887,7.1598,7.094,7.0127,6.927,6.8302,6.6598,6.5277,6.43,6.3835,6.325,6.2687,6.2381,6.3321,6.4898,6.6209,6.7871,6.9623,7.1042,7.3696,7.673,7.9254,8.1762,8.4117,8.628,8.8025,8.9201,8.9056,8.9633,8.9816,8.8325,8.6863,8.5786,8.5593,8.5016,8.5332,8.7671,8.9479,0.0,9.371,9.4027,0.0,9.4912,0.0,9.4027,9.4912,9.4989,0.0,0.0,9.6634,9.6288,9.6288,9.6288,9.6288,9.6288,9.6095,9.598,9.598,9.5104,9.4258,9.3364,9.1902,9.1095,9.0816,8.9133,8.7902,8.7017,8.617,8.5324,8.4516,8.387,8.3486,8.3255,8.3255,8.2747,8.1977,8.1977,8.1593,8.1093,0.0,0.0,0.0,0.0,0.0,0.0,0.0,0.0,0.0,0.0,0.0,0.0,0.0,0.0,0.0,0.0,0.0,0.0,0.0,5.6266,5.6898,5.8203,5.9178,6.0432,6.2124,6.3038,6.3935,6.4743,6.4743,6.5205,6.6013,6.6057,6.6768,6.8084,6.8126,6.8432,6.8895,6.8903,6.8645,0.0,0.0,6.667,6.6052,6.4315,6.3615,6.345,6.3069,6.3604,6.4685,6.6251,6.6912,6.7474,6.954,7.1297,7.2945,7.4571,7.7207,8.0038,8.2224,8.4395,8.6401,8.8094,8.894,8.9363,8.9248,8.9017,8.8325,8.6671,8.4939,8.367,8.3285,8.3131,8.3978,8.6901,0.0,0.0,9.4441,9.5134,9.5557,0.0,9.5672,0.0,9.6057,9.6095,9.6634,0.0,9.7288,9.698,9.7365,9.7019,9.6826,9.6826,9.648,9.6288,9.6288,9.5826,9.5134,9.4258,9.3326,9.2479,9.1748,9.0402,8.9325,8.844,0.0,8.6978,8.6517,8.5632,8.5025,8.467,8.4324,8.3632,8.2862,8.2862,8.2593,8.2208,0.0,0.0,0.0,0.0,0.0,0.0,0.0,0.0,0.0,0.0,0.0,0.0,0.0,0.0,0.0,0.0,0.0,0.0,0.0,0.0,5.5785,5.6645,5.7638,5.8894,6.0475,6.1426,6.2257,6.2931,6.2949,6.3378,6.4269,6.4275,6.4743,6.5551,6.5551,6.5551,6.5551,6.5551,6.5474,6.5327,6.4551,6.4205,6.3935,0.0,6.2512,6.3083,6.2749,6.4749,6.8097,7.129,7.1551,7.1008,7.3593,7.5562,7.7249,7.8884,8.1131,8.3516,8.5132,8.6786,8.844,8.9893,8.9633,8.9133,8.947,8.8286,8.6555,8.4786,8.3016,8.1631,8.1016,8.1593,8.3247,8.6671,8.9479,9.2326,9.5518,9.6865,9.7519,9.7519,9.7596,9.7673,9.7673,9.7673,9.8019,9.8904,9.825,9.8134,9.875,9.8096,9.7634,9.7519,9.6711,9.6288,9.6288,9.6288,9.5903,9.5181,9.5066,9.4258,9.2787,9.1825,9.0902,9.0047,8.921,8.8795,8.8641,8.7872,8.7132,8.6363,8.567,8.4863,8.4101,8.4101,8.3947,8.3755,0.0,0.0,0.0,0.0,0.0,0.0,0.0,0.0,0.0,0.0,5.4042,5.4964,0.0,0.0,0.0,0.0,0.0,0.0,0.0,0.0,0.0,5.6569,5.7526,5.8483,5.9441,6.0393,6.0898,6.0999,6.1115,6.1587,6.2471,6.2494,6.2974,6.3737,6.3737,6.3737,6.3737,6.3737,6.3358,6.2749,6.2595,6.2095,6.1512,6.1941,0.0,0.0,6.4557,6.7398,7.0552,7.2584,7.3535,7.4442,7.7691,7.9877,8.157,8.3285,8.5593,8.7786,8.8778,9.0287,9.1672,9.1979,9.1402,9.0248,8.8286,8.6555,0.0,8.2247,8.0362,7.9323,7.9939,8.0746,8.2401,8.5786,8.9056,9.1902,9.3864,9.6095,9.7519,0.0,9.8134,9.8557,9.8557,9.8557,0.0,0.0,9.9721,9.9413,9.8827,9.8673,9.825,9.7519,9.6711,9.6288,9.6288,9.6288,9.6211,9.6057,9.5335,9.4835,9.4527,9.2979,9.1787,9.0932,9.0047,0.0,8.8679,8.8526,8.841,8.8256,8.8094,8.7517,8.6748,8.6748,8.5863,8.467,0.0,0.0,0.0,0.0,0.0,0.0,0.0,5.0909,5.1729,5.2548,5.3697,5.4438,5.4536,5.4544,5.4544,0.0,0.0,0.0,0.0,0.0,0.0,5.62,5.7608,5.8525,5.8945,5.9855,6.0325,6.0332,0.0,6.0744,6.1237,6.1306,6.1585,6.1964,6.1994,6.2012,6.2012,6.2012,6.1781,6.1402,6.1402,6.1441,6.1518,6.1941,0.0,0.0,6.6436,6.909,7.1898,7.4053,7.5938,7.7854,8.0823,8.2939,8.4632,8.6363,8.8363,9.0094,9.047,9.1825,9.3018,9.2595,9.1518,8.9979,8.7863,0.0,0.0,8.0862,7.9054,7.7984,7.84,7.9554,8.14,8.4324,8.7671,9.0787,9.3326,9.5903,9.7673,9.8134,9.8942,9.949,9.949,9.949,9.9837,10.0712,10.0712,10.0519,10.0096,9.925,9.8404,9.7519,9.6711,9.6288,9.6288,9.6288,9.6288,9.6288,9.5865,9.5451,9.4989,9.4181,9.3335,9.2441,9.1633,9.1018,9.0603,8.971,8.9325,8.9286,8.8872,8.8449,8.8064,8.8064,8.7555,8.6863,0.0,0.0,0.0,0.0,0.0,0.0,0.0,5.0796,5.1611,5.276,5.3501,5.3977,5.4065,5.4019,5.3953,0.0,0.0,0.0,0.0,0.0,0.0,0.0,0.0,0.0,5.8808,0.0,0.0,6.003,6.0165,0.0,0.0,0.0,0.0,0.0,6.0757,6.0787,6.0787,6.0787,6.0787,0.0,0.0,6.1479,0.0,0.0,0.0,0.0,0.0,7.0321,7.2822,7.4976,7.74,7.9977,8.2516,8.4593,8.6478,8.8402,9.0133,9.1518,9.171,9.2979,9.4018,9.3018,9.1479,8.9624,8.7594,8.4478,8.1554,7.9862,7.8207,7.7092,7.7253,7.8515,8.0362,8.2909,8.6025,8.9257,9.2441,9.5249,9.7365,9.8404,9.9433,0.0,10.0298,10.0278,0.0,10.122,10.1317,10.1298,10.1279,9.9712,9.8481,9.7788,9.6826,9.6288,9.6288,9.6288,9.6288,9.6288,9.6288,9.5942,9.5258,9.5104,9.4643,9.3941,9.3095,9.2672,9.2402,9.1018,9.0355,9.0124,8.9479,8.9257,8.9257,8.9257,8.9133,8.8949,0.0,0.0,0.0,0.0,0.0,0.0,0.0,5.0779,5.1661,5.3949,5.4317,5.4354,5.4349,5.4034,5.3813,0.0,0.0,0.0,0.0,0.0,0.0,0.0,0.0,0.0,0.0,0.0,0.0,5.947,5.9772,0.0,0.0,0.0,0.0,0.0,0.0,6.0787,6.0787,6.0787,0.0,0.0,0.0,0.0,0.0,0.0,0.0,0.0,0.0,7.1199,7.3546,7.4469,7.6515,7.9061,8.1631,8.4093,8.6594,8.9047,9.1018,9.2556,9.3249,9.4749,9.5672,9.398,9.2326,9.0248,8.6978,0.0,8.0708,7.8984,7.7284,7.6361,7.7138,7.8023,7.9446,8.2016,8.4632,8.7248,8.9893,9.3133,9.5835,9.7442,0.0,0.0,10.0996,10.098,10.0879,10.0994,10.1088,10.119,10.1317,9.9712,9.875,9.8673,9.7134,9.6288,9.6288,9.6288,9.6288,9.6288,9.6288,9.6249,9.6134,9.5374,9.4951,9.4835,9.3989,9.3172,0.0,9.2326,9.1787,9.1056,9.1018,9.0979,9.0979,9.0979,9.047,8.9778,0.0,0.0,0.0,0.0,0.0,0.0,4.9894,5.0472,5.1316,5.2758,5.3812,5.4216,5.3728,5.397,5.3963,5.3474,0.0,0.0,0.0,0.0,0.0,0.0,0.0,0.0,0.0,0.0,5.9045,5.9178,5.9461,0.0,0.0,0.0,0.0,0.0,0.0,6.0787,6.0787,6.0787,0.0,0.0,0.0,0.0,0.0,0.0,0.0,0.0,0.0,0.0,7.3623,7.443,7.6053,7.8138,8.0169,8.1477,8.3208,8.7825,9.0364,9.2018,9.3326,9.498,9.5865,9.4134,9.2441,9.0287,8.6901,0.0,8.0592,7.8869,7.7169,7.6092,7.6438,7.7599,7.883,7.9869,8.2593,8.5286,8.7325,9.0556,9.3326,9.5018,9.7087,9.8709,0.0,0.0,10.0295,10.0715,10.0798,10.088,10.0886,9.9574,9.8788,9.8788,9.7173,9.6288,9.6288,9.6288,9.6288,9.6288,9.6288,9.6288,9.6288,9.5942,9.5788,9.5711,9.4864,9.4296,0.0,9.3441,9.3018,9.271,9.271,9.2402,9.1979,9.1979,9.1441,9.0663,0.0,0.0,0.0,0.0,0.0,4.86,4.9454,5.0298,5.1169,5.2234,5.3555,5.4179,5.3618,5.4069,5.4069,5.3287,5.3214,0.0,0.0,0.0,0.0,0.0,0.0,0.0,0.0,0.0,5.8687,5.8845,5.915,5.947,0.0,0.0,6.05,6.0623,0.0,0.0,0.0,0.0,0.0,0.0,0.0,0.0,0.0,0.0,0.0,0.0,0.0,0.0,0.0,0.0,0.0,7.7169,7.8631,7.9031,8.0138,8.5893,8.8748,9.0517,9.2441,9.421,9.5172,9.371,9.2056,8.9979,8.6824,8.3708,8.09,7.8907,7.7561,7.6669,7.6438,7.7561,7.86,7.8823,8.1139,8.3431,8.5099,8.8051,9.0725,9.2592,9.4993,9.6974,9.8204,9.9094,9.9811,10.0399,10.0399,10.0411,10.0486,9.9173,9.8503,9.8602,9.6951,9.6078,9.6107,9.6107,9.6146,9.6241,9.6241,9.626,9.6288,9.6288,9.6288,9.6288,9.5634,9.5258,0.0,9.4335,9.3941,9.371,9.371,9.3364,9.2864,9.2864,9.2326,9.1595,0.0,0.0,0.0,0.0,0.0,0.0,4.9454,5.0298,5.1379,5.2994,5.3922,5.4399,5.4399,5.4399,5.4069,5.3287,5.3214,0.0,0.0,0.0,0.0,0.0,0.0,0.0,0.0,0.0,5.8459,5.8529,5.8898,5.9317,5.9694,6.0121,6.0414,6.0623,0.0,0.0,0.0,0.0,0.0,0.0,0.0,0.0,6.7289,0.0,0.0,0.0,0.0,0.0,0.0,0.0,0.0,0.0,0.0,7.7232,7.8177,8.3407,8.6132,8.7979,9.0556,9.2441,9.3518,9.271,9.121,8.9239,8.6662,8.4132,8.1554,7.9023,7.8484,7.8215,7.7445,7.7946,7.8784,7.9669,8.0554,8.1684,8.3294,8.5651,8.8113,9.0453,9.2856,9.5215,9.7486,9.8983,9.9826,9.9882,9.9896,9.9961,10.0101,9.8515,9.7761,9.8093,9.6488,9.5626,9.5696,9.5696,9.5849,9.6098,9.6098,9.6155,9.6288,9.6288,9.6288,9.6288,9.6288,9.5788,0.0,9.4989,9.4489,9.371,9.371,9.3672,9.3672,9.3672,9.3172,9.2479,0.0,0.0,0.0,0.0,0.0,0.0,0.0,4.9417,5.0372,5.1426,5.2737,5.3581,5.3581,5.4546,5.4913,5.4106,5.4032,0.0,0.0,0.0,0.0,0.0,0.0,0.0,0.0,0.0,5.8212,5.8448,5.8754,5.9102,5.9496,5.9928,6.0248,6.0484,6.0539,6.0635,0.0,0.0,0.0,0.0,0.0,6.6205,6.8045,0.0,0.0,0.0,0.0,0.0,0.0,0.0,0.0,0.0,0.0,0.0,0.0,7.9555,8.2805,8.6047,8.8644,9.0583,9.1677,9.0923,8.944,8.7671,8.5701,8.3237,8.0967,7.9584,7.8806,7.8321,7.8108,7.8683,7.9319,7.9683,8.038,8.1427,8.3019,8.4814,8.6852,8.9242,9.3126,9.5983,9.6972,9.8526,9.9338,9.9035,9.9005,9.899,9.8855,9.7275,9.6804,9.7737,9.6148,9.5292,9.5417,9.5533,9.5696,9.5961,9.6068,9.6155,9.6288,9.6288,9.6288,9.6288,9.6288,9.6134,9.5903,9.5903,9.5711,9.548,9.548,9.5095,9.4604,9.4604,9.4066,9.3326,0.0,0.0,0.0,0.0,0.0,0.0,0.0,4.905,4.9894,5.0692,5.194,5.2847,5.3177,5.4106,5.462,5.4436,5.4693,0.0,0.0,0.0,0.0,0.0,0.0,0.0,5.7997,5.7997,5.8099,5.8327,5.8932,5.9393,5.9722,6.0446,6.0917,6.1104,6.09,6.0919,0.0,0.0,0.0,0.0,6.5089,6.6705,6.843,0.0,0.0,0.0,0.0,0.0,0.0,0.0,0.0,0.0,0.0,0.0,0.0,0.0,7.9751,8.2688,8.5769,8.7831,8.8974,8.8555,8.7363,8.5992,8.4609,8.2736,8.0941,7.9821,7.9323,7.905,7.8756,7.9335,7.9892,7.9991,8.0378,8.1103,8.2292,8.4035,8.6475,8.9927,9.3647,9.6172,9.6719,9.7957,9.8589,9.8303,9.8287,9.8088,9.769,9.6369,9.5835,9.6257,9.5151,9.4641,9.4832,9.5043,9.533,9.5648,9.5766,9.5918,9.6057,9.6057,9.6057,9.6057,9.6057,9.6039,0.0,9.6078,9.6117,9.6232,9.6232,9.5914,9.5489,9.5489,9.4951,9.4181,0.0,0.0,0.0,0.0,0.0,0.0,0.0,4.8976,4.9821,5.0692,5.1463,5.2234,5.3104,5.3251,5.3618,5.4436,0.0,0.0,0.0,0.0,0.0,0.0,0.0,0.0,5.7997,5.7997,5.8091,5.8289,5.936,6.0008,6.0282,6.146,6.2138,6.2243,6.168,6.1552,0.0,0.0,0.0,0.0,6.6365,6.7552,0.0,0.0,0.0,0.0,0.0,0.0,0.0,0.0,0.0,0.0,0.0,0.0,0.0,0.0,0.0,0.0,0.0,8.4267,8.5604,8.5692,8.5026,8.4187,8.3382,8.2458,0.0,7.9774,7.9961,8.0201,7.939,7.9896,8.0468,8.0478,8.0497,8.0754,8.141,8.3671,8.7045,9.1938,9.4275,9.5827,9.6683,9.7366,9.7783,9.7748,9.7748,9.7377,9.6577,9.5706,9.4835,9.4052,9.3668,9.3672,9.4047,9.4394,9.4754,9.5143,9.5298,9.5425,9.5576,9.5576,9.5576,0.0,9.5576,9.5604,9.5664,9.5674,9.5849,9.6088,9.6098,9.6165,9.6288,9.6288,9.5788,9.5104,0.0,0.0,0.0,0.0,0.0,0.0,0.0,0.0,0.0,0.0,5.0949,5.161,5.3067,5.3739,5.4436,0.0,0.0,0.0,0.0,0.0,0.0,0.0,0.0,0.0,5.7997,5.7997,5.8359,5.911,5.9501,6.007,6.089,6.1239,6.1556,6.1855,6.1849,6.2157,0.0,0.0,0.0,0.0,6.5743,6.7051,0.0,0.0,0.0,0.0,7.0794,7.1818,0.0,0.0,0.0,0.0,0.0,0.0,0.0,0.0,7.6103,7.6951,7.7991,0.0,8.2759,8.2859,8.2558,8.2216,0.0,8.1232,8.0367,8.0018,7.9964,7.9937,7.982,7.9882,8.0013,8.0096,8.0444,8.118,8.2496,8.6072,8.9644,9.245,9.4313,9.5609,9.6362,9.7106,9.7446,9.7193,9.7175,9.6769,9.5792,9.4982,9.4172,9.3362,9.2744,9.2827,9.3543,9.399,9.4383,9.4666,9.4907,9.5079,9.5236,9.5236,9.5236,9.5236,9.5236,9.5268,9.5394,9.5484,9.5706,9.5951,9.6068,9.6165,9.6288,9.6288,9.6172,9.598,0.0,0.0,0.0,0.0,0.0,0.0,0.0,0.0,0.0,0.0,0.0,0.0,0.0,0.0,0.0,0.0,0.0,0.0,0.0,0.0,0.0,0.0,0.0,5.8031,5.8088,5.8088,5.8366,5.8932,5.9737,6.0637,6.1619,6.2472,6.3014,6.328,6.2918,6.3006,0.0,0.0,0.0,6.5243,6.5705,0.0,0.0,0.0,0.0,0.0,7.0736,7.1505,0.0,7.2887,7.3703,7.4638,0.0,0.0,0.0,0.0,7.5408,7.5789,7.5978,7.7932,8.0001,8.0354,8.0235,8.0083,8.0093,7.9562,7.9095,7.9123,7.9029,7.9044,7.9384,7.9459,7.961,7.9988,8.0333,8.157,8.4481,8.7727,9.0736,9.3322,9.4659,9.5679,9.64,9.6879,9.7045,9.6876,9.6526,9.5918,9.4997,9.4189,9.3382,9.2537,9.226,9.2373,9.2946,9.3342,9.3642,9.3856,9.4062,9.4215,9.4284,9.4284,9.4284,9.4284,9.4352,9.4536,9.4781,9.4982,9.5318,9.5691,9.5835,9.6009,9.6222,9.6222,9.6251,9.6288,0.0,0.0,0.0,0.0,0.0,0.0,0.0,0.0,0.0,0.0,0.0,0.0,0.0,0.0,0.0,0.0,0.0,0.0,0.0,0.0,0.0,0.0,5.8088,5.8133,5.8234,5.8257,5.846,5.8817,6.0307,6.1584,6.2638,6.4273,6.5121,6.525,6.4265,6.4025,0.0,0.0,0.0,6.5904,6.5904,0.0,0.0,0.0,0.0,0.0,0.0,0.0,0.0,7.2605,7.3228,7.3877,7.4642,0.0,0.0,0.0,0.0,0.0,7.5075,7.6196,7.7465,7.82,7.8425,7.8402,7.816,7.7994,7.7899,7.7934,7.7864,7.8017,7.8789,7.9065,7.9428,8.0234,8.0861,8.2638,8.6668,8.8935,9.1293,9.4117,9.5091,9.5822,9.6612,9.6685,9.6649,9.6539,9.5914,9.5107,9.4153,9.3455,9.2721,9.184,9.1966,9.2127,9.2322,9.268,9.2946,9.3056,9.3157,9.3236,9.3236,9.3236,9.3236,9.3252,0.0,0.0,9.4061,9.4394,9.4832,9.5321,9.5498,9.5702,9.5971,9.6019,9.6088,9.6222,0.0,0.0,0.0,0.0,0.0,0.0,0.0,0.0,0.0,0.0,0.0,0.0,0.0,0.0,0.0,0.0,0.0,0.0,0.0,0.0,0.0,5.8582,5.8497,5.8417,5.8439,5.8561,5.9293,6.0676,6.1663,6.2948,6.4408,6.55,6.5881,6.5698,6.5139,6.5015,6.5303,0.0,0.0,6.5904,6.5904,0.0,0.0,0.0,0.0,0.0,0.0,0.0,0.0,7.2789,7.3427,7.3982,7.4761,0.0,0.0,0.0,0.0,0.0,7.4764,7.5117,7.5758,7.6734,7.7838,7.849,7.7829,7.7516,7.7401,7.7704,7.7515,7.7769,7.9295,7.946,7.9861,8.1371,8.3819,8.618,8.8005,9.0283,9.2406,9.4117,9.5016,9.5822,9.6612,9.6685,9.6428,9.5749,9.5565,9.485,9.3345,9.3161,9.2721,9.184,9.184,9.1858,9.1894,9.2424,9.2734,9.2768,9.2914,9.2958,9.2958,9.2958,9.2958,9.2958,0.0,9.3442,9.3777,9.4047,9.4451,9.4921,9.5155,9.5318,9.5428,9.5604,9.5713,9.5828,0.0,0.0,0.0,0.0,0.0,0.0,0.0,0.0,0.0,0.0,0.0,0.0,0.0,0.0,0.0,0.0,0.0,0.0,0.0,0.0,5.8692,5.8915,5.9064,5.9073,5.8935,5.9433,6.0307,6.1624,6.2786,6.4256,6.5993,6.6524,6.6755,6.6624,6.5694,6.5375,6.5559,6.5746,6.6102,6.6519,0.0,0.0,0.0,0.0,0.0,0.0,0.0,0.0,0.0,0.0,7.3148,7.3495,7.4647,0.0,0.0,0.0,0.0,0.0,7.4394,7.4905,7.5567,7.5889,7.6803,7.7564,7.7142,7.6972,7.6917,7.7091,7.6972,7.7367,7.8911,7.9563,8.0674,8.3229,8.6216,8.8599,8.9661,9.1433,9.3217,9.474,9.5272,9.5822,9.6612,9.6318,9.5914,9.5528,9.4684,9.3896,9.3125,9.2648,9.2207,9.1803,9.1803,9.1803,9.1803,9.2074,9.2198,9.2198,9.2285,9.232,9.232,9.232,9.232,9.2301,0.0,9.2934,9.3173,9.3559,9.3961,9.4315,9.4532,9.4743,9.4992,9.533,9.55,9.5631,0.0,0.0,0.0,0.0,0.0,0.0,0.0,0.0,0.0,0.0,0.0,0.0,0.0,0.0,0.0,0.0,0.0,0.0,0.0,5.81,5.8848,5.9261,5.9618,5.9774,5.9709,6.0347,6.1398,6.2805,6.4087,6.5729,6.7751,6.7529,6.7484,6.7466,6.6116,6.5561,6.5667,6.5979,6.6506,6.7058,0.0,0.0,0.0,0.0,0.0,0.0,0.0,0.0,0.0,0.0,0.0,0.0,0.0,0.0,0.0,7.4798,7.4514,7.4191,7.4003,7.4647,7.5347,7.5258,7.6136,7.6969,7.6854,7.6839,7.6913,7.7141,7.7149,7.757,7.9072,8.0555,8.2444,8.5357,8.8316,9.0512,9.1303,9.2721,9.4116,9.5345,9.5675,9.5951,9.6392,9.5859,9.5345,9.4978,9.3822,9.3015,9.2831,9.217,9.1803,9.1803,9.1803,9.1803,9.1803,9.1803,9.1803,9.1803,9.1803,9.1803,9.1803,9.1803,9.1803,9.1822,9.2162,9.2461,9.2667,9.3061,9.3426,9.3665,9.3829,9.4109,9.4483,9.4907,9.5186,9.5398,0.0,0.0,0.0,0.0,0.0,0.0,0.0,0.0,0.0,0.0,0.0,0.0,0.0,0.0,0.0,0.0,0.0,0.0,0.0,5.7667,5.8722,5.979,5.9976,6.0341,6.0938,6.1161,6.2427,6.4886,6.5745,6.7453,6.9929,6.8534,6.7889,6.7906,6.6427,6.5773,6.5832,6.6673,6.7051,6.7173,6.7936,0.0,0.0,0.0,0.0,0.0,0.0,0.0,0.0,0.0,0.0,0.0,0.0,0.0,7.5123,7.4795,7.4338,7.3872,7.3616,7.3795,7.4188,7.491,7.6346,7.7525,7.7525,7.7525,7.7776,7.8648,7.8742,7.9115,8.0735,8.3419,8.5964,8.769,9.0077,9.2023,9.285,9.4336,9.5345,9.5492,9.6171,9.6355,9.5639,9.5528,9.4868,9.3382,9.3161,9.2758,9.195,9.184,9.1803,9.1803,9.1803,9.1803,9.1803,9.1803,9.1803,9.1803,9.1803,9.1803,9.1803,9.1803,9.1803,9.1822,9.202,9.2215,9.2444,9.2667,9.2851,9.2996,9.3136,9.3383,9.3747,9.4208,9.4585,9.4908,0.0,0.0,0.0,0.0,0.0,0.0,0.0,0.0,0.0,0.0,0.0,0.0,0.0,0.0,0.0,0.0,0.0,0.0,0.0,5.7951,5.9001,6.0112,6.0318,6.103,6.2376,6.2371,6.364,6.6208,6.8128,6.9221,6.961,6.8632,6.7863,6.7316,6.6313,6.5859,6.5936,6.6737,6.7398,6.7936,6.8276,6.8737,0.0,0.0,0.0,0.0,0.0,0.0,0.0,0.0,7.2609,7.3314,7.3985,7.4597,7.5007,7.468,7.4145,7.3591,7.3311,7.3513,7.3978,7.4787,7.6205,7.7675,7.8719,7.8976,7.9359,8.0709,8.0956,8.1239,8.2341,8.4329,8.6334,8.7949,9.0262,9.2134,9.2978,9.4042,9.474,9.474,9.5034,9.507,9.4777,9.4299,9.3786,9.3161,9.2611,9.2134,9.1803,9.1803,9.1803,9.1803,9.1803,9.1803,9.1803,9.1803,9.1803,9.1803,9.1803,9.1803,9.1803,9.1803,9.1803,9.1822,9.202,9.2145,9.2215,9.2444,9.2565,9.2596,9.2781,9.2996,9.3232,9.374,9.4231,9.4703,0.0,0.0,0.0,0.0,0.0,0.0,0.0,0.0,0.0,0.0,0.0,0.0,0.0,0.0,0.0,0.0,0.0,0.0,5.6922,5.7916,5.8928,5.9969,6.0412,6.1339,6.2829,6.3008,6.4516,6.7365,6.9637,7.0299,6.9397,6.8692,6.7856,6.7011,6.6224,6.5904,6.5942,6.675,6.7436,6.8013,6.8276,6.8584,0.0,0.0,0.0,0.0,0.0,0.0,0.0,0.0,7.2379,7.3268,7.3645,7.4295,7.4859,7.4438,7.3697,7.3028,7.2997,7.2949,7.3266,7.4573,7.5931,7.7546,8.0,8.0755,8.1379,8.2994,8.3324,8.3508,8.4058,8.5453,8.7068,8.872,9.0776,9.2501,9.3345,9.3932,9.4299,9.4299,9.4299,9.4189,9.3932,9.3418,9.2978,9.2721,9.2134,9.1803,9.1803,9.1803,9.1803,9.1803,9.1803,9.1803,9.1803,9.1803,9.1803,9.1803,9.1803,9.1803,9.1803,9.1803,9.1803,9.1822,9.1948,9.2002,9.202,9.2145,9.2198,9.2215,9.2338,9.2545,9.2798,9.3285,9.3829,9.4387,0.0,0.0,0.0,0.0,0.0,0.0,0.0,0.0,0.0,0.0,0.0,0.0,0.0,0.0,0.0,0.0,0.0,0.0,5.6442,5.7423,5.84,5.9373,6.023,6.115,6.2095,6.2897,6.5006,6.8391,7.0052,7.0475,6.9667,6.8776,6.7936,6.7058,6.625,6.5904,6.5942,6.675,6.7096,6.7173,6.8045,6.7898,6.7096,0.0,0.0,0.0,0.0,0.0,0.0,0.0,7.188,7.3137,7.2872,7.3735,7.4678,7.4073,7.3056,7.2205,7.2614,7.2008,7.1894,7.428,7.5542,7.7194,8.1269,8.2847,8.3858,8.549,8.5837,8.582,8.582,8.7142,8.872,9.0335,9.1987,9.3345,9.4153,9.4263,9.4263,9.4263,9.4263,9.3969,9.3161,9.3088,9.2721,9.184,9.1803,9.1803,9.1803,9.1803,9.1803,9.1803,9.1803,9.1803,9.1803,9.1803,9.1803,9.1803,9.1767,9.1803,9.1803,9.1803,9.1803,9.1803,9.1803,9.1803,9.1803,9.1803,9.1803,9.1803,9.1803,9.2038,9.2461,9.2781,9.3311,9.3961,0.0,0.0,0.0,0.0,0.0,0.0,0.0,0.0,0.0,0.0,0.0,0.0,0.0,0.0,0.0,0.0,0.0,0.0,5.6658,5.7019,5.7908,5.94,5.9713,6.0571,6.2056,6.4095,6.5897,6.7475,6.859,6.8706,6.7859,6.759,6.7051,6.625,6.6019,6.5904,6.5942,6.675,6.7096,6.7173,6.8045,6.8237,0.0,0.0,0.0,0.0,0.0,0.0,0.0,0.0,0.0,0.0,7.3222,7.3766,7.4222,7.3752,7.3151,7.2657,7.2705,7.2412,7.2591,7.4426,7.6387,7.8626,8.1525,8.3251,8.5013,8.7748,8.7876,8.7472,8.7472,8.7876,8.8536,8.9583,9.0647,9.162,9.2427,9.2537,9.2537,9.2537,9.2537,9.2464,9.2207,9.217,9.206,9.1803,9.1803,9.1803,9.1803,9.1803,9.1803,9.1803,9.1803,9.1803,9.1803,9.1253,9.0959,9.0959,9.0391,9.0702,9.1803,9.1803,9.1803,9.1803,9.1803,9.1803,9.1803,9.1803,9.1803,9.1803,9.1803,9.1966,9.2215,9.2459,9.2958,9.3514,0.0,0.0,0.0,0.0,0.0,0.0,0.0,0.0,0.0,0.0,5.4966,0.0,0.0,0.0,0.0,0.0,0.0,0.0,0.0,5.6702,5.7555,5.8967,5.9319,6.0473,6.2512,6.4436,6.5782,6.6635,6.7814,6.7936,6.7096,6.7096,6.6673,6.5904,6.5904,6.5904,6.5936,6.6404,6.6635,6.6673,6.7205,6.759,6.7898,0.0,0.0,0.0,0.0,0.0,0.0,0.0,0.0,0.0,7.3103,7.3534,7.3788,7.3376,7.2812,7.2378,7.2556,7.2553,7.2973,7.4882,7.7231,8.0021,8.3728,8.56,8.7124,8.94,8.9473,8.905,8.8757,8.894,8.9307,8.9803,9.0555,9.1253,9.173,9.1803,9.1803,9.1803,9.1803,9.1803,9.1803,9.1803,9.1803,9.1803,9.1803,9.1803,9.1803,9.1803,9.1657,9.1326,9.1326,9.1179,9.0849,9.0354,9.0097,9.0097,8.962,8.9913,9.0849,9.0849,9.0849,9.0849,9.1179,9.151,9.1803,9.1803,9.1803,9.1803,9.1803,9.193,9.2109,9.2215,9.261,9.3083,0.0,0.0,0.0,0.0,0.0,0.0,0.0,0.0,0.0,0.0,5.5275,5.5352,0.0,0.0,0.0,0.0,0.0,0.0,0.0,5.6489,5.7401,5.8275,5.9204,6.0896,6.3352,6.4199,6.5013,6.5904,6.743,6.7782,6.6981,6.6981,6.6596,6.5904,6.5904,6.5904,6.5904,6.5904,6.5904,6.5904,6.5904,6.6442,6.7212,6.7212,0.0,0.0,0.0,0.0,0.0,0.0,0.0,0.0,7.2613,7.2967,7.319,7.2856,7.2157,7.165,7.2378,7.2679,7.3303,7.5726,7.8332,8.1762,8.7105,8.8923,8.973,9.0555,9.0702,9.0482,8.9767,9.0207,9.0702,9.0702,9.1326,9.1803,9.1803,9.1803,9.1803,9.1803,9.1803,9.1803,9.1803,9.1803,9.1803,9.1803,9.1803,9.1767,9.1693,9.1693,9.1326,9.0519,9.0482,9.0134,8.94,8.9326,8.929,8.929,8.9216,8.9179,8.9179,8.9326,8.94,8.9436,9.017,9.0959,9.1693,9.1693,9.173,9.1803,9.173,9.1839,9.2074,9.2,9.2266,9.2667,0.0,0.0,0.0,0.0,0.0,0.0,0.0,0.0,0.0,0.0,0.0,0.0,0.0,0.0,0.0,0.0,0.0,0.0,0.0,5.6511,5.7401,5.8275,6.0358,6.2403,6.4282,6.4512,6.5013,6.5904,6.6244,6.632,6.6173,6.6173,6.6058,6.5904,6.5904,6.5904,6.5904,6.5904,6.5904,6.5904,6.5904,6.6782,6.8122,6.8122,6.9012,0.0,0.0,0.0,0.0,0.0,0.0,0.0,7.2056,7.1851,7.1218,7.1655,7.16,7.1643,7.3061,7.3891,7.4977,7.7451,8.1305,8.5306,8.8409,8.9767,9.0592,9.1363,9.1546,9.1473,9.1326,9.1436,9.1546,9.1546,9.1693,9.1803,9.1803,9.1803,9.1803,9.1803,9.1803,9.1803,9.1803,9.1803,9.1803,9.1803,9.1803,9.151,9.0886,9.0849,9.0482,8.9693,8.9657,8.9583,8.94,8.8776,8.8463,8.8463,8.7839,8.7528,8.7565,8.8812,8.94,8.94,8.9583,9.0097,9.0849,9.0849,9.1216,9.173,9.1106,9.1271,9.1803,9.116,9.1468,9.2215,0.0,0.0,0.0,0.0,0.0,0.0,0.0,0.0,0.0,0.0,0.0,0.0,0.0,0.0,0.0,0.0,0.0,0.0,0.0,0.0,5.7747,5.9435,6.155,6.3281,6.4589,6.5013,6.5243,6.5282,6.5705,6.5904,6.5904,6.5904,6.5904,6.5904,6.5904,6.5673,6.5282,6.5705,6.5667,6.532,6.575,6.6647,6.7768,6.8184,6.9083,7.0125,7.0424,0.0,0.0,0.0,0.0,0.0,0.0,0.0,7.0535,7.1218,7.1341,7.1637,7.3266,7.4551,7.635,7.9984,8.3948,8.7362,8.9033,9.0317,9.1289,9.1693,9.1803,9.1803,9.1803,9.1803,9.1803,9.1803,9.1803,9.1803,9.1803,9.1803,9.1803,9.1803,9.1803,9.1803,9.1803,9.1803,9.1803,9.1803,9.1436,9.1033,9.0629,9.0207,8.9657,8.8849,8.8812,8.8629,8.8262,8.7822,8.7619,8.7619,8.7198,8.6978,8.7014,8.7858,8.8445,8.8812,8.8812,8.929,9.0024,9.0024,9.028,9.0629,9.017,9.028,9.0665,9.0629,9.094,9.1434,0.0,0.0,0.0,0.0,0.0,0.0,0.0,0.0,0.0,0.0,0.0,0.0,0.0,0.0,0.0,0.0,0.0,0.0,0.0,0.0,0.0,6.0941,6.2358,6.3506,6.4359,6.5089,6.5089,6.4397,6.5243,6.5743,6.5904,6.6058,6.6019,6.5904,6.6058,6.5628,6.4859,6.559,6.5468,6.4878,6.5571,6.6333,6.7027,6.7735,6.8432,6.9067,6.9726,6.9728,6.9518,7.0121,0.0,0.0,0.0,0.0,6.9967,7.0688,7.0977,7.1417,7.3046,7.5065,7.7818,8.228,8.582,8.8426,8.9216,9.0629,9.1767,9.162,9.1693,9.1803,9.1803,9.1803,9.1803,9.1803,9.1693,9.1583,9.1583,9.1583,9.1583,9.1583,9.173,9.173,9.162,9.1583,9.1546,9.14,9.0776,9.0317,9.0188,8.9546,8.8812,8.8023,8.7986,8.7655,8.7014,8.6978,8.6978,8.6978,8.6978,8.6978,8.6978,8.6978,8.7362,8.7986,8.7986,8.8463,8.9179,8.9179,8.9253,8.94,8.9253,8.9363,8.9657,9.0207,9.0592,9.0922,0.0,0.0,0.0,0.0,0.0,0.0,0.0,0.0,0.0,0.0,0.0,0.0,0.0,0.0,0.0,0.0,0.0,0.0,5.6945,0.0,0.0,6.1864,6.2133,6.2627,6.3468,6.3583,6.3583,6.3468,6.4359,6.5166,6.5904,6.6596,6.6558,6.5936,6.6635,6.6481,6.575,6.5865,6.5788,6.5653,6.5768,6.6225,6.6818,6.6835,6.7199,6.7832,6.8423,6.8349,6.8178,6.9507,6.9236,0.0,0.0,0.0,6.8191,6.8972,6.9706,7.0624,7.2239,7.5909,7.9947,8.272,8.582,8.8426,8.9216,9.0629,9.1583,9.0922,9.1326,9.1803,9.1803,9.1803,9.1803,9.1803,9.1216,9.0776,9.0776,9.0776,9.0776,9.0776,9.1363,9.1546,9.0849,9.0776,9.0464,8.9767,8.962,8.9253,8.8573,8.8426,8.7986,8.7215,8.7178,8.7088,8.6978,8.6978,8.6978,8.6978,8.6978,8.6978,8.6978,8.6978,8.7051,8.7178,8.7178,8.7619,8.8353,8.8353,8.8776,8.9326,8.8647,8.9234,9.0354,8.9767,9.0427,9.1657,0.0,0.0,0.0,0.0,0.0,0.0,0.0,0.0,0.0,0.0,0.0,0.0,0.0,0.0,0.0,5.5708,5.5708,5.6285,5.7627,5.8858,6.0281,6.2018,6.2095,6.248,6.3275,6.3314,6.3089,6.2627,6.3935,6.4782,6.5205,6.7475,6.8129,6.7321,6.7667,6.7359,6.6551,6.6513,0.0,0.0,0.0,0.0,6.5784,6.6159,6.6307,0.0,0.0,0.0,0.0,6.8036,6.811,6.7941,6.7723,0.0,0.0,0.0,6.8788,6.9963,7.2496,7.6093,7.969,8.2113,8.5159,8.7876,8.9106,8.995,9.0464,9.0592,9.0519,9.0482,9.0482,9.0482,9.0482,9.0482,9.017,8.9913,8.9913,8.9913,8.9913,8.9913,9.0244,9.0317,8.995,8.9913,8.9767,8.9436,8.8959,8.8573,8.8206,8.7766,8.7178,8.6334,8.6334,8.6114,8.5673,8.5673,8.5894,8.6334,8.6775,8.6978,8.6978,8.6978,8.6978,8.6978,8.6978,8.7198,8.7545,8.7545,8.7766,8.8005,8.7692,8.8243,8.9271,8.9363,9.0134,9.1179,0.0,0.0,0.0,0.0,0.0,0.0,0.0,0.0,0.0,0.0,0.0,0.0,0.0,0.0,0.0,0.0,5.5708,5.6434,5.8198,5.9044,6.0165,6.171,6.1787,6.2056,6.266,6.266,6.2358,6.1787,6.3435,6.4512,6.5013,6.7975,6.9244,6.9045,6.9045,6.8423,6.741,6.7106,0.0,0.0,0.0,0.0,0.0,0.0,0.0,0.0,0.0,0.0,0.0,0.0,0.0,0.0,6.6442,6.6623,0.0,0.0,0.0,6.9192,7.2018,7.5028,7.8002,8.0608,8.3691,8.6574,8.8372,8.9106,8.951,8.9931,8.951,8.9033,8.8812,8.9106,8.94,8.94,8.9216,8.9106,8.9106,8.9106,8.9106,8.9106,8.929,8.9326,8.9106,8.9106,8.8996,8.8812,8.8243,8.7912,8.7912,8.7142,8.6407,8.582,8.56,8.5196,8.4609,8.4609,8.4903,8.549,8.6114,8.6407,8.6407,8.6591,8.6701,8.6701,8.6904,8.6978,8.6978,8.6978,8.6978,8.6978,8.6978,8.7601,8.8573,8.9179,9.0024,9.0996,0.0,0.0,0.0,0.0,0.0,0.0,0.0,0.0,0.0,0.0,0.0,0.0,5.5708,5.5708,5.5708,5.5708,5.5708,5.6434,5.8198,5.9044,5.9896,6.0825,6.0864,0.0,6.0935,6.0935,6.0902,6.0864,6.2545,6.4205,6.5859,6.7622,6.9276,7.0783,7.0783,6.9819,6.8168,6.7292,0.0,0.0,0.0,0.0,0.0,0.0,0.0,0.0,0.0,0.0,0.0,0.0,0.0,0.0,0.0,0.0,6.5398,0.0,0.0,0.0,6.9816,7.2092,7.4735,7.7965,8.1232,8.4188,8.6574,8.8299,8.9179,8.8463,8.828,8.8023,8.7288,8.8372,8.94,8.94,8.8757,8.828,8.828,8.828,8.828,8.828,8.8923,8.9106,8.8353,8.828,8.7949,8.7161,8.7088,8.7051,8.7051,8.6297,8.582,8.58,8.5049,8.4646,8.4609,8.4609,8.4609,8.4646,8.4719,8.4719,8.4756,8.549,8.5857,8.5894,8.6664,8.6978,8.6978,8.6978,8.6978,8.6978,8.6978,8.7968,8.9326,8.9363,9.0391,9.173,0.0,0.0,0.0,0.0,0.0,0.0,0.0,0.0,0.0,0.0,0.0,0.0,0.0,5.5708,5.5708,5.5708,5.6209,5.7055,5.8204,5.9044,5.9896,6.0748,6.0787,6.0787,6.0787,6.0787,6.0787,6.0787,6.2468,6.3891,6.5128,6.7936,6.9525,7.0022,7.0598,7.0508,6.9812,6.8732,0.0,0.0,0.0,0.0,0.0,0.0,0.0,0.0,0.0,0.0,0.0,0.0,0.0,0.0,0.0,0.0,0.0,6.5288,6.5692,6.6512,6.8141,7.033,7.2936,7.6203,7.947,8.2463,8.4903,8.6297,8.7142,8.7399,8.7435,8.7362,8.7051,8.7455,8.7858,8.7858,8.7601,8.7435,8.7435,8.7435,8.7435,8.7435,8.7215,8.7178,8.7399,8.6958,8.6738,8.6978,8.6978,8.6757,8.6261,8.5967,8.5306,8.4278,8.3985,8.3581,8.3067,8.3581,8.3821,8.3821,8.4352,8.4609,8.4609,8.4903,8.5306,8.582,8.6114,8.6518,8.6978,8.6978,8.6978,8.6978,8.6978,8.7968,8.94,8.94,9.0427,9.1803,0.0,0.0,0.0,0.0,0.0,0.0,0.0,0.0,0.0,5.6588,0.0,0.0,0.0,0.0,5.6588,5.6588,5.7093,5.778,5.866,5.9204,5.9896,6.0748,6.0787,6.0787,6.0787,6.0787,6.0787,6.0787,6.2204,6.332,6.4237,6.7064,6.8478,6.867,6.9442,6.9949,7.0157,0.0,0.0,6.6757,0.0,0.0,6.3152,0.0,0.0,0.0,0.0,0.0,0.0,0.0,0.0,0.0,0.0,0.0,0.0,0.0,0.0,6.5118,6.6195,6.8238,7.0807,7.3744,7.6754,7.9653,8.237,8.3618,8.4499,8.5546,8.5987,8.6297,8.6554,8.6811,8.6978,8.6978,8.6978,8.6978,8.6978,8.6978,8.6978,8.6978,8.6297,8.6114,8.6904,8.6261,8.6114,8.6958,8.6775,8.6371,8.5837,8.527,8.4278,8.2647,8.2867,8.2627,8.1819,8.259,8.2994,8.2994,8.3544,8.3801,8.3801,8.4058,8.4646,8.5416,8.5673,8.6261,8.6978,8.6978,8.6978,8.6978,8.6978,8.7968,8.94,8.94,9.0427,9.1803,0.0,0.0,0.0,0.0,0.0,0.0,0.0,0.0,0.0,5.8313,0.0,0.0,0.0,0.0,0.0,5.8352,5.8352,5.8698,5.9435,5.9511,5.9935,6.0748,6.0787,6.0787,6.0787,6.0787,6.0787,6.0787,6.1672,6.2512,6.3308,6.4975,6.6137,6.6852,6.7461,6.815,6.8811,0.0,6.7373,6.5552,0.0,6.3141,6.2125,0.0,0.0,0.0,6.1704,6.2218,0.0,0.0,0.0,0.0,0.0,0.0,0.0,0.0,0.0,0.0,0.0,0.0,0.0,7.061,7.3032,7.5674,7.8935,8.0314,8.1379,8.3014,8.3985,8.4792,8.56,8.6407,8.6904,8.6904,8.6978,8.6978,8.6978,8.6978,8.6978,8.6978,8.6297,8.6114,8.6904,8.6261,8.6114,8.6904,8.6224,8.5764,8.571,8.4242,8.2647,8.1048,8.1746,8.1782,8.0975,8.1746,8.2113,8.2113,8.2113,8.215,8.2186,8.2977,8.3785,8.4609,8.5416,8.6224,8.6978,8.6978,8.6978,8.6978,8.6978,8.7968,8.94,8.94,9.0427,9.1803,0.0,0.0,0.0,0.0,0.0,0.0,5.8313,5.8313,5.8313,0.0,0.0,0.0,5.8313,5.8813,5.9165,5.9165,5.9742,5.9935,5.9511,6.0089,6.055,6.0787,6.0787,6.0787,6.0787,6.0787,6.0787,6.0787,6.1672,6.2186,6.24,6.4032,6.4792,6.4825,6.5419,6.5314,6.4785,6.6596,0.0,6.5328,6.4655,6.3801,0.0,0.0,0.0,0.0,0.0,6.4407,0.0,0.0,6.4237,6.3613,0.0,0.0,0.0,0.0,0.0,0.0,6.3906,0.0,0.0,0.0,0.0,0.0,7.5799,7.7818,7.9727,8.1342,8.2757,8.3985,8.4792,8.5123,8.527,8.527,8.6244,8.6978,8.6978,8.6978,8.6978,8.6978,8.6297,8.6114,8.6904,8.5747,8.527,8.6077,8.538,8.4682,8.4095,8.3104,8.2076,8.1048,8.1232,8.0938,8.0147,8.0367,8.0477,8.0477,8.0477,8.0755,8.1342,8.1562,8.2427,8.3785,8.4572,8.538,8.6187,8.6775,8.6978,8.6978,8.6978,8.7968,8.94,8.94,9.0427,9.1803,0.0,0.0,0.0,0.0,0.0,5.9358,5.9358,5.9358,5.9358,0.0,0.0,0.0,6.0352,6.0814,6.1083,6.1083,6.1243,6.1133,6.0633,6.0704,6.0787,6.0787,6.0787,6.0787,6.0787,6.0787,6.0775,6.0746,6.129,6.1472,6.1403,6.2619,6.3068,6.2815,6.3349,6.3126,6.2388,0.0,0.0,0.0,6.4369,0.0,0.0,6.3431,6.3576,0.0,0.0,0.0,6.4861,6.5178,6.4787,0.0,0.0,0.0,0.0,0.0,0.0,0.0,0.0,0.0,0.0,0.0,0.0,0.0,7.3032,7.4771,7.6497,7.8096,8.0005,8.1636,8.2443,8.3141,8.3728,8.4058,8.4886,8.573,8.6407,8.6518,8.6628,8.6941,8.6297,8.6114,8.6904,8.5563,8.4939,8.5764,8.4756,8.3765,8.2957,8.2443,8.1672,8.0534,8.0828,8.0461,7.9302,7.9633,7.9816,7.9816,7.9816,8.0036,8.0498,8.0865,8.1709,8.2957,8.4095,8.5049,8.5857,8.6664,8.6978,8.6978,8.6978,8.7968,8.94,8.94,9.0427,9.1803,0.0,0.0,6.0787,6.0787,6.0864,6.0941,6.0941,6.1018,6.1089,0.0,6.1826,6.271,6.3506,6.3583,6.3583,6.3583,6.2743,6.221,6.2095,6.1287,6.0787,6.0787,6.0787,6.0787,6.0787,6.0775,6.0752,6.0691,6.0679,6.0604,6.0504,6.1077,6.1172,6.0943,6.1337,6.1282,6.0981,0.0,0.0,6.2128,6.3468,6.3604,0.0,0.0,6.3013,0.0,6.4053,6.4433,6.4617,6.5228,6.4971,0.0,0.0,0.0,0.0,0.0,6.3086,0.0,0.0,0.0,0.0,0.0,0.0,0.0,7.0683,7.1637,7.2679,7.428,7.6533,7.8442,7.9229,8.0624,8.1929,8.272,8.2867,8.3544,8.5527,8.58,8.6077,8.6904,8.6297,8.6077,8.6794,8.5416,8.4756,8.549,8.4132,8.292,8.2113,8.2076,8.1305,7.9706,8.0351,8.0021,7.8479,7.9192,7.9522,7.9522,7.9522,7.9559,7.9706,8.0424,8.1232,8.215,8.3654,8.4829,8.571,8.6518,8.6904,8.6978,8.6978,8.7932,8.9253,8.9253,9.0207,9.1546,0.0,6.0787,6.0787,6.0787,6.1364,6.1864,6.1864,6.2397,6.2814,6.2814,6.3589,6.4436,6.5282,6.5397,6.5397,6.5397,6.3974,6.2781,6.2133,6.1287,6.0787,6.0787,6.0787,6.0787,6.0787,6.074,6.071,6.0691,6.0585,6.048,6.0429,6.0327,6.0153,5.9877,5.9647,5.936,5.9101,5.9501,0.0,6.0832,6.1874,0.0,6.3064,6.3626,6.4237,6.4921,6.5742,6.6452,6.693,0.0,6.6145,6.5888,0.0,0.0,0.0,0.0,0.0,0.0,0.0,0.0,0.0,0.0,0.0,0.0,6.9142,7.0,7.1027,7.2642,7.439,7.5858,7.668,7.7635,7.8537,7.9396,7.9543,8.1012,8.5196,8.58,8.6077,8.6904,8.6297,8.5857,8.6004,8.4572,8.3711,8.3858,8.2994,8.2076,8.1269,8.1232,8.0498,7.8883,7.8993,7.8589,7.7546,7.7693,7.7803,7.7803,7.7803,7.8185,7.8846,7.8993,7.9874,8.1305,8.226,8.3471,8.4903,8.571,8.6407,8.6978,8.6978,8.7582,8.8426,8.8426,8.905,8.995,6.0787,6.0787,6.0787,6.0787,6.1518,6.2095,6.2095,6.2781,6.3314,6.3314,6.4436,6.5743,6.7013,6.7167,6.6974,6.6558,6.532,6.4051,6.2781,6.1903,6.1248,6.0825,6.0757,6.074,6.074,6.0673,6.061,6.0539,6.0425,6.0292,6.0137,5.9839,5.9595,5.9383,5.8945,5.8656,5.8495,5.9074,5.9744,6.0493,6.1336,0.0,6.3002,6.3785,6.436,6.4861,6.6072,6.704,6.759,6.6769,6.6512,0.0,0.0,6.5288,6.5288,0.0,6.5288,6.5472,0.0,0.0,0.0,6.7614,0.0,0.0,0.0,6.8311,6.9119,6.9926,7.1394,7.2753,7.3546,7.4353,7.5307,7.657,7.7084,7.8626,8.2313,8.3524,8.4462,8.5673,8.5453,8.5049,8.4646,8.3508,8.2663,8.2207,8.1819,8.1415,8.1012,8.1012,8.0277,7.8662,7.8589,7.8185,7.7326,7.7289,7.7289,7.7289,7.7289,7.7546,7.7949,7.8405,7.925,8.0461,8.1672,8.3104,8.4646,8.5453,8.6261,8.6978,8.6978,8.7509,8.8206,8.8206,8.872,8.9473,6.0787,6.0787,6.0864,6.1018,6.1749,6.2403,6.2557,6.3281,6.3852,6.4006,6.5551,6.7167,6.8507,0.0,0.0,0.0,6.6558,6.5282,0.0,0.0,6.1787,6.1095,6.0843,6.0691,6.0691,6.0597,6.048,6.0349,6.0203,6.003,5.9836,5.9534,5.929,5.91,5.8708,5.8454,5.8386,5.8959,5.9673,6.0456,0.0,6.2071,6.2903,6.3759,6.4213,6.4543,6.6145,6.7136,6.759,6.6953,0.0,6.6623,6.6132,6.5985,0.0,0.0,0.0,0.0,0.0,0.0,0.0,0.0,0.0,6.8274,0.0,0.0,0.0,6.7444,6.8618,6.9889,7.0683,7.149,7.2532,7.3949,7.4882,7.6203,7.8516,8.0094,8.1782,8.3875,8.3985,8.3654,8.3014,8.2223,8.1452,8.0828,8.0755,8.0718,8.0571,8.0534,7.9874,7.8405,7.8369,7.7986,7.7326,7.7289,7.7289,7.7289,7.7289,7.7289,7.7326,7.8038,7.8883,7.989,8.1158,8.2737,8.4425,8.5233,8.604,8.6775,8.6958,8.7399,8.7986,8.7986,8.839,8.8959,6.0787,6.0787,6.1056,6.1826,6.2627,6.3429,6.4205,6.5051,6.5859,6.6551,6.8205,6.936,0.0,0.0,0.0,0.0,0.0,0.0,6.5628,0.0,0.0,6.1941,6.115,6.0691,6.0691,6.0506,6.0356,6.0225,6.0045,5.9836,5.9642,5.94,5.9149,5.8835,5.8598,5.84,5.8263,5.8924,5.9673,0.0,6.1263,6.2071,0.0,6.3759,6.453,6.5375,6.7003,6.7627,6.77,0.0,6.7554,6.7664,0.0,6.8481,0.0,0.0,0.0,0.0,0.0,0.0,0.0,0.0,6.8348,0.0,0.0,0.0,6.5765,6.6476,0.0,6.8214,6.9009,0.0,0.0,7.1564,7.2371,7.3523,7.5212,7.624,7.8222,8.2003,8.1856,8.1379,8.1289,8.0534,8.0036,7.9926,7.9926,7.9633,7.8919,7.8883,7.8442,7.7472,7.7436,7.7399,7.7289,7.7289,7.7289,7.7289,7.7289,7.7289,7.7289,7.7399,7.8332,7.9816,8.0,8.1379,8.3601,8.4389,8.5196,8.6004,8.6738,8.7051,8.7124,8.7124,8.7198,8.7381,6.0902,6.0787,6.1056,6.1941,6.2781,6.3583,6.4474,6.5743,6.6898,6.7744,6.936,7.0591,0.0,0.0,0.0,0.0,0.0,6.8167,0.0,0.0,0.0,0.0,0.0,0.0,6.061,6.0356,6.0114,5.9898,5.9723,5.949,5.9244,5.9071,5.8825,5.8646,5.8913,5.898,5.8989,0.0,6.0786,0.0,0.0,0.0,0.0,6.431,6.5595,6.6769,6.748,6.77,6.77,0.0,6.77,0.0,0.0,0.0,0.0,0.0,0.0,0.0,0.0,0.0,0.0,0.0,0.0,0.0,0.0,0.0,6.5398,0.0,0.0,0.0,0.0,0.0,0.0,0.0,7.0587,7.1505,7.2665,7.3509,7.5359,7.894,7.905,7.8867,7.8867,7.8537,7.8552,7.9066,7.9103,7.8956,7.8626,7.8589,7.8222,7.7326,7.7289,7.7289,7.7289,7.7289,7.7289,7.7289,7.7289,7.7289,7.7326,7.7803,7.8699,7.9816,8.0277,8.1599,8.3454,8.4278,8.5086,8.5874,8.6701,8.6978,8.6978,8.6978,8.6978,8.7124,6.1627,0.0,0.0,6.2633,6.3281,6.3929,6.482,6.6397,6.7782,6.8622,0.0,0.0,7.2783,7.3437,0.0,0.0,0.0,7.0629,0.0,0.0,6.5314,0.0,0.0,0.0,0.0,0.0,6.0213,5.9915,5.9484,5.9121,5.8855,5.8719,5.8572,5.8459,5.9116,5.9382,5.9446,0.0,6.1606,6.1667,6.2462,6.3086,6.36,6.4848,6.6292,6.77,6.77,6.77,6.77,6.77,6.77,0.0,6.7958,0.0,0.0,0.0,0.0,0.0,7.0903,0.0,0.0,0.0,0.0,0.0,0.0,0.0,0.0,0.0,0.0,0.0,0.0,0.0,0.0,0.0,0.0,7.0,7.0573,7.1321,7.2863,7.5637,7.6188,7.6408,7.6628,7.6628,7.6885,7.7524,7.7598,7.7671,7.7892,7.7892,7.7745,7.7326,7.7289,7.7289,7.7289,7.7289,7.7289,7.7289,7.7289,7.7289,7.7326,7.8222,7.9029,7.9853,8.0645,8.1782,8.3124,8.3948,8.4756,8.5527,8.6371,8.6811,8.6978,8.6978,8.6978,8.7124,6.3237,6.3237,0.0,0.0,6.4551,6.4859,6.575,6.7282,6.866,0.0,0.0,0.0,0.0,0.0,0.0,0.0,0.0,7.2661,7.0898,0.0,6.6641,0.0,0.0,6.2859,0.0,0.0,0.0,6.0482,5.9485,5.8835,5.8503,5.8492,5.8411,5.8227,5.9037,5.9324,5.9306,6.0933,6.1606,6.1667,6.2462,6.3783,6.5215,0.0,6.6292,6.77,6.77,0.0,0.0,6.77,6.77,0.0,0.0,0.0,0.0,0.0,0.0,0.0,0.0,0.0,0.0,7.011,0.0,0.0,0.0,0.0,6.458,0.0,0.0,0.0,0.0,0.0,0.0,0.0,0.0,0.0,0.0,6.9669,7.077,7.2459,7.334,7.4111,7.4903,7.4977,7.4977,7.5014,7.5014,7.5359,7.613,7.6166,7.6533,7.7289,7.7289,7.7289,7.7289,7.7289,7.7289,7.7289,7.7289,7.7289,7.7326,7.8222,7.9029,7.9853,8.0645,8.1489,8.2296,8.3087,8.3895,8.4719,8.5527,8.6297,8.6978,8.6978,8.6978,8.7124,0.0,0.0,0.0,0.0,0.0,6.5089,6.6481,6.7667,6.8891,0.0,0.0,0.0,0.0,7.6553,7.7207,0.0,0.0,7.4668,7.3469,7.1014,0.0,0.0,0.0,6.4833,0.0,0.0,0.0,0.0,6.0502,5.9848,5.9113,5.9113,5.8739,5.8139,5.9462,6.0051,0.0,0.0,0.0,0.0,0.0,6.431,6.5362,0.0,6.6769,6.77,6.77,6.77,0.0,6.77,6.77,6.7737,6.8031,6.8091,6.8238,6.9082,6.9302,0.0,0.0,0.0,7.011,7.011,0.0,0.0,0.0,0.0,0.0,0.0,0.0,0.0,0.0,0.0,0.0,0.0,0.0,0.0,0.0,6.8361,6.8898,7.0,7.1762,0.0,7.4037,7.4588,7.4683,7.4147,7.4588,7.4808,7.4515,7.5506,7.624,7.6481,7.7032,7.7289,7.7289,7.7289,7.7289,7.7289,7.7289,7.7289,7.7362,7.8736,7.9559,7.989,8.1195,8.1929,8.226,8.3067,8.3858,8.4682,8.549,8.6297,8.6978,8.6978,8.6978,8.7198,6.5865,0.0,0.0,0.0,0.0,6.5513,6.6904,0.0,0.0,0.0,7.3783,0.0,7.7207,0.0,7.8977,0.0,7.7977,7.6746,7.5245,7.336,0.0,6.9707,6.8564,0.0,0.0,0.0,0.0,0.0,0.0,6.0725,5.9741,5.9472,5.9032,5.8474,5.9795,6.0419,6.0529,6.2132,6.2793,0.0,0.0,6.4861,0.0,0.0,6.726,6.77,0.0,6.77,6.77,6.77,6.77,6.77,6.77,6.77,6.7811,6.8311,6.8458,6.8825,7.0426,7.0293,0.0,7.0367,6.9082,0.0,6.7393,0.0,0.0,0.0,0.0,0.0,0.0,0.0,0.0,0.0,0.0,0.0,0.0,6.71,6.759,6.8385,7.0367,0.0,0.0,7.3156,7.3289,7.2459,7.2899,7.323,7.3266,7.4258,7.5212,7.6056,7.6592,7.6995,7.7289,7.7289,7.7289,7.7289,7.7289,7.7289,7.7362,7.9029,7.9816,7.989,8.1489,8.2186,8.2223,8.2774,8.3618,8.4646,8.5159,8.604,8.6978,8.6978,8.7161,8.7619,0.0,0.0,0.0,0.0,6.5974,0.0,0.0,0.0,7.0661,0.0,7.5014,7.7015,7.9469,7.9815,7.9854,7.9854,7.9815,0.0,7.6361,7.5322,0.0,0.0,7.1077,6.9874,6.8602,0.0,0.0,0.0,0.0,6.1384,6.0382,5.9636,5.9233,5.9196,6.0003,6.0419,6.0529,6.2132,6.2793,6.2939,6.4628,6.5288,6.5472,6.71,6.77,6.77,6.77,6.77,6.77,6.77,6.77,6.77,6.77,6.77,6.77,6.77,6.77,6.8068,6.9669,6.9522,6.9325,7.0903,0.0,0.0,0.0,0.0,6.8068,0.0,0.0,0.0,0.0,0.0,0.0,0.0,0.0,0.0,0.0,0.0,0.0,0.0,0.0,0.0,0.0,7.072,7.083,7.0,7.0,7.0697,7.2239,7.2459,7.3597,7.5983,7.6093,7.6497,7.7289,7.7289,7.7289,7.7289,7.7289,7.7289,7.7362,7.8993,7.9779,7.989,8.1468,8.215,8.2186,8.2186,8.3141,8.4609,8.4609,8.56,8.6978,8.6978,8.7509,8.8316,6.7667,6.7776,6.7776,0.0,6.7205,6.7289,0.0,0.0,0.0,0.0,7.5515,7.7445,7.8715,7.9977,8.0785,8.0785,8.0162,0.0,0.0,0.0,0.0,7.5747,7.4554,7.3013,7.1131,6.9724,0.0,6.5102,0.0,6.2438,6.0419,6.0187,5.9453,5.8364,5.9758,6.0419,6.0529,6.2132,6.2793,6.2939,6.4628,6.5288,6.5472,0.0,6.77,6.77,6.77,6.77,6.77,6.77,6.77,6.77,6.77,6.77,6.77,6.77,6.77,6.8068,6.9669,6.9963,7.0036,7.105,7.083,7.0279,0.0,0.0,0.0,0.0,0.0,0.0,0.0,0.0,0.0,0.0,0.0,0.0,0.0,0.0,0.0,6.6696,0.0,6.8531,6.9155,6.9398,6.8921,6.754,6.8531,6.9412,6.9802,7.1541,7.334,7.516,7.5799,7.6497,7.7289,7.7289,7.7289,7.7289,7.7289,7.7289,7.7362,7.8405,7.9229,7.9853,8.0865,8.1636,8.2186,8.2186,8.3141,8.4609,8.4609,8.56,8.6978,8.6978,8.7509,8.8316,6.8391,0.0,0.0,6.9353,0.0,0.0,7.0052,7.1245,0.0,7.4899,7.6707,0.0,7.9485,8.0516,8.1093,8.1093,8.0669,0.0,0.0,0.0,0.0,7.7364,7.6541,7.5077,7.2863,7.1512,0.0,6.6136,0.0,0.0,6.0933,6.0566,5.971,5.8572,5.982,6.0419,6.0529,6.2132,6.3013,6.3503,6.4774,6.5508,0.0,6.7223,6.77,6.77,6.77,6.77,6.77,6.77,6.77,6.77,6.77,6.77,6.7774,6.8128,6.8201,6.8568,7.0183,7.0624,7.0807,7.16,7.1564,7.1197,7.0734,7.0624,7.077,0.0,0.0,0.0,0.0,0.0,0.0,0.0,0.0,0.0,0.0,0.0,0.0,0.0,6.6696,6.7357,6.7797,6.8164,6.7834,6.6586,6.7357,6.8164,6.8848,7.0513,7.2349,7.4331,7.5175,7.6114,7.7289,7.7289,7.7289,7.7289,7.7289,7.7509,7.7876,7.8736,7.9543,8.0351,8.1195,8.1782,8.2186,8.2186,8.3141,8.4682,8.538,8.6224,8.6978,8.6978,8.7509,8.8316,0.0,0.0,0.0,0.0,0.0,0.0,0.0,7.2937,0.0,7.6984,0.0,7.9285,8.0939,8.1208,8.1246,8.1246,0.0,8.0845,7.9911,7.981,7.9297,7.8142,7.7711,7.6451,7.4245,7.288,0.0,0.0,0.0,0.0,6.141,6.075,5.9893,5.9086,6.0003,6.0529,6.0823,6.2205,6.3319,6.4176,6.4971,6.5778,6.6586,6.7407,6.77,6.77,6.77,6.77,6.77,6.77,6.77,6.77,6.77,6.77,6.7847,6.8678,6.8885,6.9252,7.0866,7.1307,7.149,7.2312,7.1967,7.1454,7.1454,7.1454,7.1454,7.1454,7.0807,7.022,0.0,0.0,0.0,0.0,0.0,0.0,0.0,0.0,0.0,0.0,0.0,0.0,6.6512,6.7026,6.7113,6.6402,6.6329,6.7063,6.8678,6.9596,7.1138,7.345,7.4441,7.5637,7.7142,7.7252,7.7289,7.7289,7.7436,7.7876,7.8626,7.9449,8.0257,8.1048,8.1746,8.2113,8.2186,8.2186,8.3141,8.4756,8.6371,8.6978,8.7014,8.7124,8.7692,8.8463,0.0,0.0,0.0,0.0,0.0,7.5361,7.606,7.5822,7.5976,7.7138,7.8631,7.9977,8.0977,8.1708,8.2093,8.2093,8.2029,0.0,0.0,0.0,0.0,7.9571,7.9182,7.8005,7.5832,7.3958,7.1255,0.0,0.0,0.0,6.0603,6.0456,5.9612,5.8253,5.9758,6.1141,6.2389,6.2683,0.0,6.4176,6.4971,6.5778,6.6586,6.7407,6.77,6.77,6.77,6.77,6.77,6.77,6.77,6.77,6.77,6.77,6.7847,6.8678,6.8885,6.9252,7.0866,7.1307,7.149,7.2312,7.2386,7.2312,7.2312,7.2312,7.2312,7.2312,7.1637,7.0866,7.022,0.0,0.0,0.0,0.0,0.0,0.0,0.0,0.0,0.0,0.0,6.6512,0.0,6.6035,6.5655,6.5508,6.5508,6.6219,6.7811,6.9316,7.0881,7.2642,7.4133,7.5344,0.0,0.0,7.7289,7.7326,7.8038,7.8442,7.8626,7.9449,8.0257,8.1012,8.1158,8.1599,8.2186,8.2186,8.3141,8.4756,8.6371,8.6978,8.7088,8.7766,8.85,8.9216,0.0,0.0,0.0,0.0,0.0,0.0,0.0,7.9285,7.94,7.9823,8.0592,8.1439,8.2285,8.2747,8.2785,8.2324,8.2251,8.1734,8.0661,8.0383,8.001,7.9441,7.9162,0.0,7.5851,7.3936,7.1239,6.7807,0.0,0.0,6.0419,6.0419,5.9538,5.807,5.9685,6.108,6.2218,0.0,0.0,6.4787,6.5595,6.6402,6.715,6.7554,6.77,6.77,6.77,6.77,6.77,6.77,6.77,6.77,6.77,6.77,6.7958,6.9155,6.9522,6.9889,7.1505,7.1931,7.2004,7.2422,7.2496,7.2496,7.2496,7.2496,7.2496,7.2496,7.1857,7.0793,6.9169,6.754,0.0,0.0,0.0,0.0,0.0,0.0,0.0,0.0,0.0,0.0,0.0,0.0,0.0,0.0,0.0,6.5999,6.7627,6.8825,7.022,7.1821,0.0,0.0,7.6093,0.0,7.7289,7.7326,7.8185,7.8809,7.9265,8.0057,8.0865,8.1636,8.1636,8.1819,8.226,8.3104,8.3911,8.4756,8.6371,8.6978,8.7088,8.7912,8.872,8.9473,0.0,7.5084,0.0,0.0,7.8169,0.0,8.14,8.2324,8.2785,8.2593,8.2593,8.2901,8.3785,8.387,8.3524,8.2631,8.2488,8.184,8.0458,8.0081,7.9625,7.8941,7.8635,7.7564,7.5664,7.3862,7.1416,0.0,0.0,0.0,0.0,6.0566,5.9722,5.8584,5.9832,0.0,0.0,0.0,6.464,6.5632,6.6256,6.699,6.77,6.77,6.77,6.77,6.77,6.77,6.77,6.77,6.77,6.77,6.77,6.77,6.7994,6.9412,6.9963,7.0403,7.1872,7.2386,7.2496,7.2496,7.2496,7.2496,7.2496,7.2496,7.2496,7.2496,7.1857,7.0683,6.8582,6.7687,0.0,0.0,0.0,0.0,0.0,0.0,0.0,0.0,0.0,0.0,6.7076,0.0,0.0,0.0,0.0,6.5742,6.737,6.8201,6.9376,7.0977,7.3399,7.5028,7.5836,0.0,7.7399,7.7582,7.8442,7.9302,8.0073,8.0901,8.1709,8.2443,8.2443,8.2443,8.2553,8.4022,8.4609,8.4756,8.6371,8.6978,8.7124,8.8096,8.8849,8.9546,0.0,0.0,0.0,0.0,0.0,0.0,8.3216,8.4093,8.4362,8.3601,8.3486,8.3824,8.467,8.4786,8.4439,8.3563,8.3261,8.229,8.0421,7.967,7.9139,7.8749,7.8322,7.7521,7.6339,7.4726,7.2542,0.0,0.0,0.0,0.0,0.0,0.0,0.0,0.0,0.0,0.0,6.4029,6.4984,6.6402,6.6476,6.699,6.77,6.77,6.77,6.77,6.77,6.77,6.77,6.77,6.77,6.77,6.77,6.77,6.7884,6.8752,6.9522,7.0293,7.116,7.1931,7.2496,7.2496,7.2496,7.2496,7.2496,7.2496,7.2496,7.2496,7.1857,7.1013,7.0036,6.9816,6.9743,0.0,0.0,0.0,0.0,0.0,0.0,0.0,0.0,0.0,0.0,6.5325,0.0,0.0,6.5081,0.0,0.0,0.0,0.0,7.0146,7.2532,7.4184,7.5014,7.6518,7.7693,7.8479,7.9302,8.011,8.0901,8.1709,8.2517,8.3271,8.3271,8.3271,8.3344,8.4242,8.4609,8.4756,8.6371,8.6978,8.7198,8.8702,8.9326,8.962,0.0,0.0,0.0,0.0,0.0,0.0,0.0,8.5093,8.5517,8.5132,8.5093,8.5247,8.5593,8.5632,8.5055,8.3717,8.3358,8.232,8.0313,7.949,7.8866,7.8407,7.7986,7.7268,7.6235,7.4654,7.2604,0.0,0.0,0.0,0.0,0.0,0.0,0.0,0.0,6.2389,6.3429,6.4897,6.5925,6.6549,6.7026,6.7407,6.77,6.77,6.77,6.77,6.77,6.77,6.77,6.77,6.77,6.77,6.77,6.77,6.7847,6.8678,6.9119,6.9669,7.094,7.1527,7.1894,7.2386,7.2496,7.2496,7.2496,7.2496,7.2496,7.2496,7.1857,7.1197,7.0881,7.044,7.011,0.0,0.0,0.0,0.0,0.0,0.0,0.0,0.0,0.0,0.0,0.0,0.0,0.0,0.0,0.0,0.0,0.0,0.0,7.0036,0.0,7.4074,7.4903,7.6518,7.7729,7.8589,7.9412,8.0204,8.1048,8.1819,8.237,8.27,8.3197,8.3124,8.2774,8.4058,8.4609,8.4756,8.6371,8.6978,8.7198,8.8812,8.94,8.962,8.0862,0.0,8.4063,0.0,8.4978,8.6209,8.5393,8.5747,8.6094,8.6094,8.6094,8.6094,8.6094,8.5901,8.5162,8.3684,8.3055,8.1977,8.0086,7.9279,7.8648,7.816,7.7725,0.0,7.646,7.4882,7.3083,7.1138,6.8495,0.0,0.0,0.0,0.0,0.0,6.2695,6.3453,6.4004,6.5778,6.6623,6.688,6.748,6.77,6.77,6.77,6.77,6.77,6.77,6.77,6.77,6.77,6.7847,6.8031,6.7774,6.77,6.7811,6.8385,6.8715,6.9178,7.0573,7.1123,7.1454,7.2004,7.2165,7.2165,7.2165,7.2165,7.2202,7.2459,7.2041,7.1637,7.1637,7.1211,7.0807,7.0807,0.0,0.0,0.0,0.0,0.0,0.0,0.0,6.4861,6.4591,6.349,0.0,0.0,0.0,0.0,0.0,0.0,0.0,0.0,0.0,0.0,7.4903,7.6738,7.8112,7.8956,7.9764,8.0571,8.1379,8.2186,8.2553,8.259,8.3161,8.3087,8.2663,8.4022,8.4609,8.4756,8.6371,8.6978,8.7198,8.8812,8.94,8.962,8.337,8.4901,8.5824,8.5008,8.6247,8.7094,8.6209,8.6094,8.6094,8.6094,8.6094,8.6094,8.6094,8.5401,8.4522,8.3602,8.2411,8.1145,7.9778,7.9015,7.841,0.0,0.0,7.7289,7.7289,7.5711,7.4478,7.3648,0.0,0.0,6.759,0.0,6.4066,6.4066,6.4066,6.4971,6.6439,6.6476,6.6966,6.77,6.77,6.77,6.77,6.77,6.77,6.77,6.77,6.77,6.77,6.77,6.8238,6.8752,6.7958,6.77,6.77,6.77,6.8274,6.9082,6.9889,7.0697,7.1307,7.1307,7.1307,7.1307,7.1307,7.1307,7.1527,7.2349,7.2496,7.2496,7.2496,7.2496,7.2459,7.2459,0.0,0.0,0.0,0.0,0.0,0.0,6.5081,6.3759,6.2903,6.2793,0.0,0.0,0.0,0.0,0.0,0.0,0.0,7.0,7.1688,0.0,7.4867,7.7341,7.8993,7.9816,8.0608,8.1415,8.2223,8.303,8.3381,8.3381,8.3381,8.3381,8.3454,8.4278,8.4609,8.4756,8.6371,8.6978,8.7198,8.8812,8.94,8.962,8.4439,8.5824,8.6709,8.5863,8.6632,8.7094,8.6247,8.6094,8.6094,8.6094,8.6094,8.5876,8.5241,8.4925,8.4161,0.0,8.1872,8.0953,0.0,7.8916,7.8302,7.7991,7.7547,7.7289,7.7289,7.6261,7.5065,7.3722,0.0,0.0,0.0,6.693,6.6562,6.6562,6.6562,6.6856,6.7333,6.7333,6.748,6.77,6.77,6.77,6.77,6.77,6.77,6.77,6.77,6.8054,6.8531,6.8531,6.9045,6.9669,6.9412,6.8972,6.8531,6.8531,6.8311,6.8238,6.9045,6.9472,6.9802,7.033,7.0477,7.0477,7.0477,7.0903,7.1527,7.2349,7.2496,7.2496,7.2496,7.2936,7.3303,7.3303,7.3303,0.0,0.0,0.0,0.0,0.0,6.5081,6.3992,6.3723,6.3686,0.0,0.0,0.0,0.0,0.0,0.0,0.0,0.0,7.2753,0.0,7.6518,7.7928,7.9286,8.0608,8.0901,8.1415,8.2223,8.3014,8.3087,8.2627,8.3161,8.3087,8.27,8.4058,8.4609,8.4756,8.6371,8.6978,8.7124,8.8206,8.8923,8.9546,8.5354,8.6478,8.7132,8.6247,8.6824,8.7094,8.6247,8.6094,8.6094,8.6094,8.606,8.5587,8.431,8.4052,0.0,8.1954,8.1229,8.0358,7.9366,7.8687,7.8188,7.7856,7.7487,7.7289,7.7289,7.6533,0.0,7.4588,7.2679,7.083,6.9045,6.8752,6.8618,6.8618,6.8618,6.8435,6.8128,6.8128,6.7994,6.77,6.77,6.77,6.77,6.77,6.77,6.77,6.77,6.8201,6.8885,6.8885,6.9633,7.055,7.055,7.022,6.9729,6.9449,6.8788,6.8311,6.9119,6.9119,6.9009,6.9522,6.9889,7.0183,7.0477,7.116,7.1894,7.2422,7.2496,7.2606,7.2899,7.334,7.3722,7.3722,7.3722,7.3193,7.1798,0.0,0.0,0.0,0.0,0.0,0.0,6.5007,6.5888,0.0,0.0,0.0,0.0,0.0,0.0,7.2459,7.356,7.516,7.7289,7.8479,7.969,8.1012,8.1305,8.1709,8.2223,8.2737,8.27,8.2223,8.2737,8.2663,8.2333,8.3948,8.4609,8.4756,8.6371,8.6978,8.7088,8.7912,8.8536,8.9106,8.6094,8.6748,8.7055,0.0,8.6786,8.7055,8.6209,8.6094,8.6085,8.6085,8.6048,8.53,8.3476,8.2961,8.2383,8.1514,0.0,0.0,0.0,7.8383,7.8014,7.7635,7.7417,7.7289,7.7289,7.657,7.6166,7.6093,7.378,7.2261,7.1454,7.0697,7.033,7.0257,7.022,6.9743,6.8958,6.8921,6.8458,6.77,6.77,6.77,6.77,6.77,6.77,6.77,6.77,6.8238,6.8958,6.8958,7.0059,7.138,7.138,7.138,7.1233,7.0403,6.9596,6.9155,6.9889,6.9559,6.8958,6.8958,6.9559,7.0293,7.1123,7.1857,7.2422,7.2496,7.2496,7.2753,7.356,7.3758,7.3795,7.3795,7.3744,7.2877,7.0513,0.0,0.0,0.0,0.0,0.0,0.0,6.6623,6.7357,0.0,0.0,0.0,0.0,0.0,7.1967,7.2716,7.4206,7.5784,7.7472,7.9029,8.0241,8.1085,8.1819,8.2186,8.2186,8.2186,8.2186,8.2186,8.2186,8.2186,8.2333,8.3948,8.4609,8.4756,8.6371,8.6978,8.7088,8.7839,8.8133,8.8426,0.0,0.0,8.6324,8.6132,8.6286,8.6324,8.6132,8.6094,8.6069,8.6039,8.5914,8.5109,8.3142,8.2641,8.1641,7.9779,7.9347,7.8991,7.8517,7.8104,7.782,7.762,7.7417,7.7289,7.7289,7.7105,7.6702,7.6093,7.4903,7.3927,7.312,7.2936,7.2532,7.1908,7.127,7.0587,6.9779,6.9155,6.8458,6.77,6.77,6.77,6.77,6.77,6.77,6.77,6.77,6.8618,6.9816,6.9816,7.0881,7.2224,7.2224,7.2224,7.2041,7.1233,7.044,6.9853,7.0036,6.9963,6.9816,6.9816,6.9963,7.0293,7.1123,7.1454,7.1747,7.2386,7.2496,7.2753,7.356,7.4184,7.4625,7.4625,7.4111,7.3083,7.127,6.9082,0.0,0.0,6.6145,6.6329,6.7333,6.7981,6.9265,0.0,0.0,7.2422,7.4243,7.4735,7.5065,7.5249,7.5616,7.69,7.9176,7.9596,8.0514,8.1929,8.2113,8.2186,8.2186,8.2186,8.2186,8.2186,8.2186,8.2186,8.2333,8.3948,8.4609,8.4756,8.6371,8.6978,8.7014,8.7198,8.7655,8.8353,8.6094,8.6094,8.6094,8.6094,8.6094,8.6077,8.6073,8.6035,8.6022,8.589,8.5704,8.4804,8.2773,8.2274,8.1188,7.9041,7.884,7.8673,7.8257,7.8028,7.7783,7.762,7.7493,7.7402,7.7289,7.7289,7.7105,7.6628,7.5821,7.5028,7.4258,7.3854,7.3266,7.2496,7.2041,7.138,7.0624,7.0169,6.9339,6.8238,6.8238,6.8017,6.77,6.77,6.77,6.7737,6.8141,6.9045,7.0146,7.0513,7.1468,7.2496,7.2496,7.2496,7.2422,7.1967,7.127,7.066,7.066,7.0367,7.0183,7.055,7.066,7.0881,7.1674,7.1857,7.1967,7.2422,7.2496,7.2863,7.4037,7.4294,7.4368,7.4368,7.367,7.2459,7.0463,6.8752,0.0,6.7614,6.7614,6.8201,6.9743,7.0624,7.1798,7.3487,7.3597,0.0,7.538,7.5873,7.6093,7.6093,7.646,7.7671,7.9779,8.055,8.1358,8.2186,8.2186,8.2186,8.2186,8.2186,8.2186,8.2186,8.2186,8.2406,8.2847,8.4095,8.4829,8.527,8.6518,8.6978,8.6978,8.6978,8.7288,8.7839,8.6094,8.6094,8.6094,8.6094,8.6077,8.6043,8.5996,8.5952,8.5825,8.5609,8.5352,8.4404,8.2392,8.1929,8.0919,7.8858,7.8682,7.8522,7.8043,7.8014,7.7871,7.762,7.762,7.7493,7.7289,7.7289,7.7289,7.7289,7.6644,7.5873,7.505,7.4258,7.345,7.2679,7.2569,7.2041,7.1307,7.1307,7.0426,6.9082,6.9082,6.8678,6.8068,6.8068,6.8068,6.8141,6.8825,6.9596,7.0403,7.105,7.1821,7.2496,7.2496,7.2496,7.2496,7.2496,7.2004,7.149,7.149,7.0991,7.0624,7.1307,7.149,7.1674,7.2349,7.2496,7.2496,7.2496,7.2606,7.3156,7.461,7.4331,7.3817,7.3707,7.2936,7.1541,6.9215,0.0,6.8164,6.9009,6.9302,7.0293,7.2459,7.3413,7.4221,7.5014,7.5087,7.5417,7.624,7.6276,7.6276,7.6276,7.6922,7.8096,7.9779,8.1395,8.2186,8.2186,8.2186,8.2186,8.2186,8.2186,8.2186,8.2186,8.2186,8.2663,8.3454,8.4278,8.5086,8.5874,8.6701,8.6978,8.6978,8.6978,8.6978,8.7198,8.6094,8.6094,8.6094,8.6094,8.6035,8.5949,8.5852,8.5695,8.5433,8.5083,8.4829,8.3933,8.1858,8.1531,8.0661,7.8712,7.8629,7.8522,7.8043,7.8014,7.7871,7.762,7.762,7.7493,7.7289,7.7289,7.7289,7.7289,7.7179,7.6702,7.5909,7.5102,7.4294,7.3487,7.2789,7.2041,7.1307,7.1307,7.0756,6.9926,6.9926,6.9853,6.9706,6.9706,6.9706,6.9743,6.9853,7.044,7.1123,7.127,7.1821,7.2496,7.2496,7.2496,7.2496,7.2496,7.2422,7.2312,7.2312,7.2239,7.2165,7.2275,7.2312,7.2349,7.2459,7.2496,7.2496,7.2496,7.3046,7.378,7.472,7.4793,7.4478,7.3817,7.2459,7.0866,6.9142,0.0,6.9009,6.9816,7.1101,7.2349,7.3413,7.4258,7.505,7.5836,7.5909,7.6261,7.7069,7.7105,7.7105,7.7105,7.7252,7.8096,7.9779,8.1395,8.2186,8.2186,8.2186,8.2186,8.2186,8.2186,8.2186,8.2186,8.2186,8.2663,8.3454,8.4278,8.5086,8.5874,8.6701,8.6978,8.6978,8.6978,8.6978,8.7124,8.6094,8.6094,8.6077,8.6035,8.5949,8.5815,8.5561,8.5352,8.5018,8.4597,8.4268,8.3374,8.1383,8.1163,8.0397,7.8634,7.8695,7.8631,7.8294,7.8267,7.8085,7.7718,7.7703,7.7584,7.7326,7.7289,7.7289,7.7289,7.7289,7.6885,7.6093,7.527,7.4478,7.367,7.2863,7.2312,7.1931,7.1931,7.149,7.077,7.077,7.0477,7.011,7.011,7.011,7.0146,7.0587,7.0977,7.138,7.1784,7.2188,7.2496,7.2496,7.2496,7.2496,7.2496,7.2496,7.2496,7.2496,7.2496,7.2496,7.2496,7.2496,7.2496,7.2496,7.2496,7.2496,7.2496,7.312,7.3927,7.4757,7.4551,7.4147,7.3744,7.2349,0.0,0.0,6.9559,7.0,7.1248,7.2422,7.3634,7.4882,7.5711,7.6335,7.6702,7.6738,7.6922,7.7289,7.7289,7.7289,7.7289,7.817,7.9029,7.9779,8.1395,8.2186,8.2186,8.2186,8.2186,8.2186,8.2186,8.2186,8.2186,8.2186,8.2884,8.4078,8.4462,8.5343,8.6481,8.6885,8.6978,8.6978,8.6978,8.6978,8.7124,8.6094,8.6077,8.6035,8.5987,8.5806,8.5571,8.5249,8.4908,8.4512,8.4051,8.3696,8.2823,8.0982,8.0847,8.0205,7.8658,7.8721,7.8747,7.8482,7.8455,7.8276,7.7835,7.7747,7.7547,7.7326,7.7289,7.7289,7.7289,7.7289,7.6995,7.635,7.5564,7.4845,7.4221,7.323,7.2789,7.2789,7.2569,7.2151,7.1564,7.1564,7.1211,7.066,7.066,7.066,7.0734,7.1344,7.1564,7.1674,7.2312,7.2496,7.2496,7.2496,7.2496,7.2496,7.2496,7.2496,7.2496,7.2496,7.2496,7.2496,7.2496,7.2496,7.2496,7.2496,7.2496,7.2569,7.2753,7.3413,7.4221,7.5028,7.4661,7.4184,7.4001,0.0,7.1578,0.0,7.0807,7.1468,7.2899,7.378,7.4808,7.624,7.6922,7.7289,7.7289,7.7289,7.7289,7.7289,7.7289,7.7399,7.7582,7.9029,7.989,8.0073,8.1489,8.2186,8.2186,8.2186,8.2186,8.2186,8.2186,8.2186,8.2186,8.2186,8.3104,8.4609,8.4609,8.5563,8.6978,8.6978,8.6978,8.6978,8.6978,8.6978,8.7088,8.6094,8.6065,8.5979,8.5843,8.5552,8.5238,8.489,8.4417,8.3918,8.3429,8.3135,8.2334,8.0711,8.0642,8.0116,7.8644,7.8629,7.8602,7.8318,7.8304,7.8165,7.7835,7.7487,7.7341,7.7289,7.7289,7.7289,7.7289,7.7289,7.7289,7.7179,7.6371,7.5983,7.5873,7.4294,7.3597,7.3575,7.2826,7.2459,7.2422,7.2422,7.2386,7.2312,7.2312,7.2312,7.2349,7.2386,7.2422,7.2422,7.2496,7.2496,7.2496,7.2496,7.2496,7.2496,7.2496,7.2496,7.2496,7.2496,7.2496,7.2496,7.2496,7.2496,7.2496,7.2496,7.2496,7.2716,7.345,7.4258,7.505,7.5873,7.5946,7.5689,7.494,0.0,0.0,7.2459,7.2973,7.3744,7.461,7.5432,7.6276,7.7142,7.7289,7.7289,7.7289,7.7289,7.7289,7.7289,7.7289,7.7656,7.8479,7.9339,8.0183,8.0901,8.1782,8.2186,8.2186,8.2186,8.2186,8.2186,8.2186,8.2186,8.2186,8.2186,8.3104,8.4609,8.4609,8.5563,8.6978,8.6978,8.6978,8.6978,8.6978,8.6978,8.7014,8.6065,8.594,8.5797,8.5532,8.5228,8.4818,8.4393,8.3984,8.3564,8.3106,8.2549,8.1689,8.0474,8.0,7.9337,7.8295,7.8322,7.8322,7.8113,7.8051,7.7908,7.7673,7.7448,7.7289,7.7289,7.7289,7.7289,7.7289,7.7289,7.7289,7.7289,7.6497,7.6093,7.6056,7.4955,7.4184,7.3685,7.3377,7.2973,7.2496,7.2496,7.2496,7.2496,7.2496,7.2496,7.2496,7.2496,7.2496,7.2496,7.2496,7.2496,7.2496,7.2496,7.2496,7.2496,7.2496,7.2863,7.323,7.323,7.2899,7.2606,7.312,7.323,7.3377,7.3876,7.3986,7.4059,7.4368,7.5102,7.5726,7.6056,7.6093,7.6019,7.5689,0.0,7.4331,7.4023,7.4243,7.4735,7.5542,7.5909,7.6423,7.7215,7.7289,7.7289,7.7289,7.7289,7.7546,7.8075,7.8112,7.8479,7.9339,7.9633,8.0183,8.1012,8.1782,8.2186,8.2186,8.2186,8.2186,8.2186,8.2186,8.2186,8.2186,8.2186,8.2847,8.3895,8.4389,8.5233,8.6297,8.6811,8.6978,8.6978,8.6978,8.6978,8.6978,8.5935,8.577,8.5542,8.5217,8.4867,8.4454,8.3945,8.3643,8.3221,8.2594,8.2022,8.1155,7.9941,7.9401,7.8794,7.8017,7.8043,7.8028,7.7871,7.771,7.7614,7.7493,7.7387,7.7289,7.7289,7.7289,7.7289,7.7289,7.7289,7.7289,7.7289,7.6738,7.6497,7.646,7.5652,7.4992,7.4404,7.3891,7.3377,7.2863,7.2606,7.2496,7.2496,7.2496,7.2496,7.2496,7.2496,7.2496,7.2496,7.2496,7.2496,7.2532,7.2789,7.2899,7.2936,7.3193,7.3487,7.3758,7.4001,7.367,7.3413,7.3927,7.4074,7.4221,7.4757,7.4903,7.4977,7.5197,7.5726,7.6166,7.6423,7.6497,7.6497,7.6497,7.6004,7.5637,7.5637,7.5637,7.5858,7.6408,7.6497,7.6702,7.7252,7.7289,7.7289,7.7289,7.7289,7.7546,7.8148,7.8185,7.8699,7.9779,7.9816,8.033,8.1379,8.1929,8.2186,8.2186,8.2186,8.2186,8.2186,8.2186,8.2186,8.2186,8.2186,8.2663,8.3454,8.4005,8.4866,8.5874,8.6407,8.6775,8.6978,8.6978,8.6978,8.6978,8.5724,8.5463,8.5207,8.4856,8.4466,8.405,8.3657,8.3295,8.275,8.1823,8.1583,8.0849,7.9187,7.9002,7.867,7.7857,7.782,7.7747,7.762,7.7417,7.7289,7.7289,7.7289,7.7289,7.7289,7.7289,7.7289,7.7289,7.7289,7.7289,7.7289,7.7289,7.7289,7.7289,7.646,7.6093,7.5983,7.4404,7.3722,7.3634,7.2826,7.2496,7.2496,7.2496,7.2496,7.2496,7.2496,7.2496,7.2496,7.2496,7.2496,7.2642,7.345,7.3722,7.3854,7.4647,7.4331,7.3891,7.4683,7.4903,7.4903,7.4903,7.4903,7.4903,7.4903,7.4903,7.516,7.5946,7.6093,7.635,7.7142,7.7289,7.7289,7.7289,7.7289,7.7289,7.7289,7.7289,7.7289,7.7289,7.7289,7.7289,7.7289,7.7289,7.7289,7.7289,7.7326,7.7326,7.7289,7.7326,7.806,7.9743,7.9816,8.0587,8.2186,8.2186,8.2186,8.2186,8.2186,8.2186,8.2186,8.2186,8.2186,8.2186,8.2186,8.2663,8.3381,8.3381,8.4352,8.58,8.5783,8.6261,8.6978,8.6978,8.6978,8.6978,8.5342,8.5111,8.4844,8.4454,8.4037,8.3671,8.3295,8.3202,8.3024,8.2601,8.1593,8.0696,7.9993,7.8855,7.7991,7.7493,7.7441,7.7411,7.7402,7.732,7.7289,7.7289,7.7289,7.7289,7.7289,7.7289,7.7289,7.7289,7.7289,7.7289,7.7289,7.7289,7.7289,7.7289,7.7069,7.6628,7.6056,7.5579,7.4735,7.3685,7.345,7.301,7.2496,7.2496,7.2496,7.2496,7.2496,7.2496,7.2496,7.2496,7.2899,7.3487,7.4294,7.4147,7.3854,7.4647,7.472,7.4735,7.5542,7.6151,7.6445,7.5873,7.5726,7.5909,7.6445,7.6592,7.6665,7.6885,7.6922,7.7032,7.7252,7.7289,7.7289,7.7289,7.7289,7.7289,7.7289,7.7289,7.7289,7.7289,7.7289,7.7289,7.7289,7.7289,7.7289,7.7289,7.7876,7.7949,7.7326,7.7876,7.8699,7.9779,7.9816,8.0587,8.2186,8.2186,8.2186,8.2186,8.2186,8.2186,8.2186,8.2186,8.2186,8.2186,8.2186,8.2333,8.259,8.3161,8.3675,8.4168,8.4756,8.5453,8.6151,8.6151,8.6518,8.6978,8.4886,8.4585,8.428,8.3998,8.3634,8.3361,8.3172,8.3099,8.2802,8.2045,8.1118,8.0193,7.9312,7.8323,7.7614,7.7304,7.7289,7.7289,7.7289,7.7289,7.7289,7.7289,7.7289,7.7289,7.7289,7.7289,7.7289,7.7289,7.7289,7.7289,7.7289,7.7289,7.7289,7.7289,7.7289,7.7032,7.6555,7.624,7.5359,7.4147,7.3817,7.323,7.2496,7.2496,7.2496,7.2496,7.2496,7.2496,7.2496,7.2496,7.3266,7.4331,7.5139,7.5028,7.4808,7.5601,7.5601,7.5542,7.6371,7.6922,7.7179,7.6702,7.6555,7.6702,7.7179,7.7289,7.7289,7.7289,7.7289,7.7289,7.7289,7.7289,7.7289,7.7289,7.7289,7.7289,7.7289,7.7289,7.7289,7.7289,7.7289,7.7289,7.7289,7.7289,7.7436,7.7803,7.7986,7.7986,7.7803,7.8002,7.8626,7.9779,7.9816,8.0587,8.2186,8.2186,8.2186,8.2186,8.2186,8.2186,8.2186,8.2186,8.2186,8.2186,8.2186,8.2186,8.2223,8.2737,8.3087,8.3454,8.3931,8.4609,8.5343,8.5673,8.6114,8.6591,8.4417,8.3999,8.3651,8.356,8.3304,8.3062,8.3151,8.2979,8.237,8.0889,8.0385,7.957,7.8004,7.7694,7.7508,7.7341,7.7289,7.7289,7.7289,7.7289,7.7289,7.7289,7.7289,7.7289,7.7289,7.7289,7.7289,7.7289,7.7289,7.7289,7.7289,7.7289,7.7289,7.7289,7.7289,7.7289,7.7252,7.6533,7.5763,7.494,7.4221,7.3413,7.2716,7.2716,7.2716,7.2716,7.2642,7.2606,7.2606,7.2679,7.3692,7.505,7.5946,7.6166,7.6276,7.7069,7.6738,7.6276,7.7069,7.7289,7.7289,7.7289,7.7289,7.7289,7.7289,7.7289,7.7289,7.7289,7.7289,7.7289,7.7289,7.7289,7.7289,7.7289,7.7289,7.7289,7.7289,7.7289,7.7289,7.7289,7.7289,7.7289,7.7289,7.7362,7.7766,7.8552,7.7839,7.7766,7.8552,7.7766,7.806,7.9743,7.9816,8.0587,8.2186,8.2186,8.2186,8.2186,8.2186,8.2186,8.2186,8.2186,8.2186,8.2186,8.2186,8.2186,8.2186,8.2186,8.2627,8.3271,8.3271,8.3785,8.4572,8.5306,8.5673,8.593,8.4024,8.3624,8.3315,8.3076,8.2904,8.2804,8.2804,8.2773,8.2631,8.2262,8.1064,8.0013,7.9514,7.8357,7.7508,7.7341,7.7289,7.7289,7.7289,7.7289,7.7289,7.7289,7.7289,7.7289,7.7289,7.7289,7.7289,7.7289,7.7289,7.7289,7.7289,7.7289,7.7289,7.7289,7.7289,7.7289,7.7289,7.7105,7.6592,7.5836,7.5652,7.5102,7.439,7.439,7.439,7.428,7.367,7.345,7.3523,7.4169,7.461,7.516,7.6592,7.6592,7.6276,7.7069,7.6738,7.6276,7.7069,7.7289,7.7289,7.7289,7.7289,7.7289,7.7289,7.7289,7.7289,7.7289,7.7289,7.7289,7.7289,7.7289,7.7289,7.7289,7.7289,7.7289,7.7289,7.7289,7.7289,7.7289,7.7289,7.7289,7.7289,7.7913,7.8405,7.8589,7.8405,7.8405,7.8589,7.7766,7.806,7.9743,7.9816,8.0587,8.2186,8.2186,8.2186,8.2186,8.2186,8.2186,8.2186,8.2186,8.2186,8.2186,8.2186,8.2186,8.2186,8.2186,8.2296,8.2443,8.2443,8.2957,8.3675,8.3858,8.4719,8.593,8.355,8.315,8.2852,8.2798,8.268,8.2602,8.268,8.2618,8.2423,8.2018,8.0813,7.9851,7.939,7.8198,7.7417,7.7326,7.7289,7.7289,7.7289,7.7289,7.7289,7.7289,7.7289,7.7289,7.7289,7.7289,7.7289,7.7289,7.7289,7.7289,7.7289,7.7289,7.7289,7.7289,7.7289,7.7289,7.7289,7.7289,7.6848,7.6093,7.6093,7.5616,7.4903,7.4903,7.4903,7.483,7.4441,7.4258,7.4404,7.5212,7.5469,7.5689,7.6922,7.6995,7.6738,7.7179,7.6995,7.6775,7.7179,7.7289,7.7289,7.7289,7.7289,7.7289,7.7289,7.7289,7.7289,7.7289,7.7289,7.7289,7.7289,7.7289,7.7289,7.7289,7.7289,7.7289,7.7289,7.7289,7.7289,7.7289,7.7289,7.7289,7.7289,7.8112,7.8772,7.9155,7.8809,7.8772,7.9155,7.7986,7.7876,7.9176,7.9596,8.0404,8.1636,8.2003,8.2186,8.2186,8.2186,8.2186,8.2186,8.2186,8.2003,8.1636,8.1636,8.1415,8.1101,8.1452,8.1636,8.1672,8.2039,8.2443,8.2884,8.3271,8.4425,8.5857,8.3062,8.2668,8.2439,8.2586,8.2492,8.2407,8.2586,8.2492,8.2139,8.1476,8.0446,7.9559,7.8883,7.7913,7.7289,7.7289,7.7289,7.7289,7.7289,7.7289,7.7289,7.7289,7.7289,7.7289,7.7289,7.7289,7.7289,7.7289,7.7289,7.7289,7.7289,7.7289,7.7289,7.7289,7.7289,7.7289,7.7289,7.7289,7.6922,7.6313,7.6313,7.5909,7.5307,7.5307,7.5307,7.5307,7.516,7.5014,7.5014,7.5836,7.6093,7.624,7.7032,7.7289,7.7289,7.7289,7.7289,7.7289,7.7289,7.7289,7.7289,7.7289,7.7289,7.7289,7.7289,7.7289,7.7289,7.7289,7.7289,7.7289,7.7289,7.7289,7.7289,7.7289,7.7289,7.7289,7.7289,7.7289,7.7289,7.7289,7.7289,7.7289,7.7289,7.8112,7.8883,7.9559,7.8993,7.8883,7.9559,7.8133,7.7693,7.8552,7.9265,7.9984,8.0791,8.1452,8.1782,8.1782,8.1782,8.1929,8.2186,8.2039,8.1636,8.1012,8.0865,8.0424,7.9853,8.0534,8.0791,8.0865,8.1672,8.2003,8.2113,8.3051,8.4242,8.5416,8.2819,8.255,8.2359,8.2284,8.2235,8.2235,8.2251,8.2235,8.2182,8.2072,8.075,7.9779,7.9669,7.8259,7.7289,7.7289,7.7289,7.7289,7.7289,7.7289,7.7289,7.7289,7.7289,7.7289,7.7289,7.7289,7.7289,7.7289,7.7289,7.7289,7.7289,7.7289,7.7289,7.7289,7.7289,7.7289,7.7289,7.7289,7.7252,7.7142,7.7142,7.7069,7.6995,7.6995,7.6995,7.6885,7.6203,7.5491,7.5014,7.5836,7.6093,7.624,7.7032,7.7289,7.7289,7.7289,7.7289,7.7289,7.7289,7.7289,7.7289,7.7289,7.7289,7.7289,7.7289,7.7289,7.7289,7.7289,7.7289,7.7289,7.7289,7.7289,7.7289,7.7289,7.7289,7.7289,7.7289,7.7289,7.7289,7.7289,7.7289,7.7289,7.7289,7.8112,7.8662,7.8736,7.8662,7.8662,7.8772,7.7839,7.7693,7.8552,7.8699,7.914,7.9963,8.0073,8.011,8.011,8.011,8.0844,8.2186,8.1489,8.1122,8.0975,8.0241,7.989,7.9816,7.9926,7.9963,8.0036,8.0865,8.1158,8.1342,8.283,8.3528,8.3911,8.255,8.2412,8.2284,8.2203,8.2186,8.2186,8.2186,8.2186,8.2186,8.2186,8.1195,8.0277,7.9853,7.8295,7.7289,7.7289,7.7289,7.7289,7.7289,7.7289,7.7289,7.7289,7.7289,7.7289,7.7289,7.7289,7.7289,7.7289,7.7289,7.7289,7.7289,7.7289,7.7289,7.7289,7.7289,7.7289,7.7289,7.7289,7.7289,7.7289,7.7289,7.7289,7.7289,7.7289,7.7289,7.7252,7.6885,7.6555,7.6298,7.6665,7.6775,7.6812,7.7179,7.7289,7.7289,7.7289,7.7289,7.7289,7.7289,7.7289,7.7289,7.7289,7.7289,7.7289,7.7289,7.7289,7.7289,7.7289,7.7289,7.7289,7.7289,7.7289,7.7289,7.7289,7.7289,7.7289,7.7289,7.7289,7.7289,7.7289,7.7289,7.7289,7.7289,7.8112,7.8589,7.8589,7.8589,7.8589,7.8589,7.7766,7.7472,7.7839,7.8369,7.8772,7.914,7.9596,7.9816,7.9816,7.9816,8.0183,8.0844,8.0514,8.0094,7.9653,7.9286,7.8846,7.8442,7.8919,7.914,7.9213,8.0036,8.0608,8.1085,8.1803,8.261,8.3491]}]]